Temperatur und Luftfeuchte

Temperatur und Luftfeuchte

Nummer Datum und Zeit Sensor ID Temperatur in Celsius gef├╝hlte Temperatur Luftfeuchte in %
78046 2022-12-09 13:26:21 Bahnzimmer 19.10 18.25 45.50
78045 2022-12-09 13:15:04 Terrasse 4.20 2.51 70.10
78044 2022-12-09 12:56:20 Bahnzimmer 18.60 17.69 45.00
78043 2022-12-09 12:46:48 Terrasse 3.70 1.98 71.20
78042 2022-12-09 12:26:20 Bahnzimmer 18.70 17.79 44.60
78041 2022-12-09 12:18:40 Terrasse 4.50 2.86 71.10
78040 2022-12-09 11:56:19 Bahnzimmer 18.90 18.05 46.10
78039 2022-12-09 11:50:25 Terrasse 3.00 1.32 75.20
78038 2022-12-09 11:26:18 Bahnzimmer 18.80 17.94 46.30
78037 2022-12-09 11:22:03 Terrasse 2.00 0.30 78.30
78036 2022-12-09 10:56:18 Bahnzimmer 19.00 18.16 46.20
78035 2022-12-09 10:53:49 Terrasse 1.80 0.08 78.20
78034 2022-12-09 10:26:17 Bahnzimmer 19.10 18.27 46.30
78033 2022-12-09 10:25:33 Terrasse 1.70 0.00 79.40
78032 2022-12-09 09:57:19 Terrasse 1.10 -0.62 81.00
78031 2022-12-09 09:56:16 Bahnzimmer 19.00 18.16 46.20
78030 2022-12-09 09:29:06 Terrasse 1.00 -0.73 81.10
78029 2022-12-09 09:26:16 Bahnzimmer 19.00 18.15 45.90
78028 2022-12-09 09:00:55 Terrasse 1.10 -0.61 81.50
78027 2022-12-09 08:56:15 Bahnzimmer 19.20 18.38 46.10
78026 2022-12-09 08:32:43 Terrasse 1.20 -0.48 82.00
78025 2022-12-09 08:26:14 Bahnzimmer 19.00 18.15 45.90
78024 2022-12-09 08:04:31 Terrasse 1.20 -0.49 81.90
78023 2022-12-09 07:56:14 Bahnzimmer 18.90 18.03 45.50
78022 2022-12-09 07:36:18 Terrasse 1.10 -0.58 82.70
78021 2022-12-09 07:26:13 Bahnzimmer 18.90 18.04 45.70
78020 2022-12-09 07:08:10 Terrasse 1.10 -0.58 82.40
78019 2022-12-09 06:56:12 Bahnzimmer 19.00 18.14 45.50
78018 2022-12-09 06:39:56 Terrasse 1.10 -0.60 81.80
78017 2022-12-09 06:26:12 Bahnzimmer 18.90 18.04 45.70
78016 2022-12-09 06:11:43 Terrasse 1.00 -0.73 81.00
78015 2022-12-09 05:56:11 Bahnzimmer 19.00 18.14 45.50
78014 2022-12-09 05:43:30 Terrasse 1.20 -0.50 81.20
78013 2022-12-09 05:26:10 Bahnzimmer 19.10 18.25 45.40
78012 2022-12-09 05:15:17 Terrasse 1.00 -0.70 82.00
78011 2022-12-09 04:56:10 Bahnzimmer 18.80 17.92 45.50
78010 2022-12-09 04:47:07 Terrasse 1.20 -0.49 81.70
78009 2022-12-09 04:26:09 Bahnzimmer 18.70 17.82 45.60
78008 2022-12-09 04:18:53 Terrasse 1.00 -0.70 82.20
78007 2022-12-09 03:56:08 Bahnzimmer 18.70 17.82 45.70
78006 2022-12-09 03:50:42 Terrasse 1.10 -0.61 81.50
78005 2022-12-09 03:26:08 Bahnzimmer 18.70 17.82 45.60
78004 2022-12-09 03:22:30 Terrasse 1.10 -0.58 82.50
78003 2022-12-09 02:56:07 Bahnzimmer 18.80 17.93 45.60
78002 2022-12-09 02:54:17 Terrasse 1.10 -0.57 82.90
78001 2022-12-09 02:26:06 Bahnzimmer 18.70 17.82 45.70
78000 2022-12-09 02:26:03 Terrasse 1.10 -0.58 82.50
77999 2022-12-09 01:57:50 Terrasse 1.20 -0.45 83.10
77998 2022-12-09 01:56:06 Bahnzimmer 18.70 17.82 45.60
77997 2022-12-09 01:29:39 Terrasse 1.10 -0.57 82.80
77996 2022-12-09 01:26:05 Bahnzimmer 18.70 17.81 45.50
77995 2022-12-09 01:01:25 Terrasse 1.30 -0.36 82.60
77994 2022-12-09 00:56:04 Bahnzimmer 18.60 17.70 45.50
77993 2022-12-09 00:33:13 Terrasse 1.10 -0.58 82.70
77992 2022-12-09 00:26:04 Bahnzimmer 18.70 17.81 45.20
77991 2022-12-09 00:05:01 Terrasse 1.30 -0.36 82.50
77990 2022-12-08 23:56:03 Bahnzimmer 18.70 17.81 45.50
77989 2022-12-08 23:36:49 Terrasse 1.30 -0.36 82.60
77988 2022-12-08 23:26:02 Bahnzimmer 18.90 18.03 45.40
77987 2022-12-08 23:08:36 Terrasse 1.40 -0.26 82.00
77986 2022-12-08 22:56:02 Bahnzimmer 19.00 18.14 45.30
77985 2022-12-08 22:40:23 Terrasse 1.50 -0.15 82.20
77984 2022-12-08 22:26:01 Bahnzimmer 19.00 18.14 45.20
77983 2022-12-08 22:12:12 Terrasse 1.50 -0.18 81.00
77982 2022-12-08 21:56:00 Bahnzimmer 19.00 18.13 45.10
77981 2022-12-08 21:43:58 Terrasse 1.60 -0.04 82.30
77980 2022-12-08 21:26:00 Bahnzimmer 19.00 18.13 45.00
77979 2022-12-08 21:15:46 Terrasse 1.50 -0.18 81.10
77978 2022-12-08 20:55:59 Bahnzimmer 19.00 18.13 44.90
77977 2022-12-08 20:47:34 Terrasse 1.50 -0.16 81.80
77976 2022-12-08 20:25:58 Bahnzimmer 19.00 18.12 44.70
77975 2022-12-08 20:19:21 Terrasse 1.60 -0.05 81.80
77974 2022-12-08 19:55:58 Bahnzimmer 19.10 18.23 44.50
77973 2022-12-08 19:51:09 Terrasse 1.70 0.06 81.60
77972 2022-12-08 19:25:57 Bahnzimmer 19.20 18.32 44.00
77971 2022-12-08 19:22:57 Terrasse 1.70 0.01 80.00
77970 2022-12-08 18:55:57 Bahnzimmer 19.50 18.63 43.20
77969 2022-12-08 18:54:46 Terrasse 1.80 0.13 80.40
77968 2022-12-08 18:26:34 Terrasse 2.00 0.32 78.90
77967 2022-12-08 18:25:56 Bahnzimmer 18.50 17.50 41.90
77966 2022-12-08 17:58:22 Terrasse 2.20 0.55 79.30
77965 2022-12-08 17:55:55 Bahnzimmer 20.20 19.46 45.30
77964 2022-12-08 17:30:09 Terrasse 2.10 0.50 81.80
77963 2022-12-08 17:25:55 Bahnzimmer 20.30 19.57 45.40
77962 2022-12-08 17:01:56 Terrasse 2.20 0.59 81.10
77961 2022-12-08 16:55:54 Bahnzimmer 20.30 19.57 45.40
77960 2022-12-08 16:33:45 Terrasse 2.20 0.53 78.70
77959 2022-12-08 16:25:53 Bahnzimmer 20.10 19.34 45.10
77958 2022-12-08 16:05:32 Terrasse 2.40 0.74 78.40
77957 2022-12-08 15:55:53 Bahnzimmer 19.90 19.10 44.20
77956 2022-12-08 15:37:21 Terrasse 2.70 1.08 78.70
77955 2022-12-08 15:25:52 Bahnzimmer 18.50 17.51 42.30
77954 2022-12-08 15:09:10 Terrasse 3.00 1.39 78.10
77953 2022-12-08 14:55:51 Bahnzimmer 20.00 19.27 46.60
77952 2022-12-08 14:40:58 Terrasse 3.10 1.53 79.00
77951 2022-12-08 14:25:51 Bahnzimmer 19.90 19.15 46.30
77950 2022-12-08 14:12:46 Terrasse 3.00 1.43 79.50
77949 2022-12-08 13:44:34 Terrasse 3.10 1.53 79.00
77948 2022-12-08 13:25:44 Bahnzimmer 18.60 17.66 44.00
77947 2022-12-08 13:16:19 Terrasse 3.00 1.45 80.20
77946 2022-12-08 12:55:44 Bahnzimmer 19.70 18.95 46.80
77945 2022-12-08 12:48:05 Terrasse 3.00 1.46 80.70
77944 2022-12-08 12:25:43 Bahnzimmer 19.80 19.06 47.00
77943 2022-12-08 12:19:52 Terrasse 2.70 1.17 82.30
77942 2022-12-08 11:55:42 Bahnzimmer 19.90 19.18 47.30
77941 2022-12-08 11:51:38 Terrasse 2.70 1.20 83.40
77940 2022-12-08 11:25:42 Bahnzimmer 19.90 19.17 46.90
77939 2022-12-08 11:23:23 Terrasse 2.30 0.78 84.10
77938 2022-12-08 10:55:41 Bahnzimmer 19.90 19.16 46.70
77937 2022-12-08 10:55:10 Terrasse 2.10 0.56 84.00
77936 2022-12-08 10:26:58 Terrasse 1.90 0.34 84.00
77935 2022-12-08 10:25:40 Bahnzimmer 19.90 19.15 46.20
77934 2022-12-08 09:58:44 Terrasse 1.90 0.34 84.10
77933 2022-12-08 09:55:40 Bahnzimmer 19.70 18.93 46.00
77932 2022-12-08 09:30:31 Terrasse 1.80 0.23 84.20
77931 2022-12-08 09:25:39 Bahnzimmer 19.60 18.81 45.80
77930 2022-12-08 09:02:18 Terrasse 1.80 0.23 84.20
77929 2022-12-08 08:55:38 Bahnzimmer 19.70 18.90 45.10
77928 2022-12-08 08:34:06 Terrasse 1.90 0.34 84.10
77927 2022-12-08 08:25:38 Bahnzimmer 19.90 19.14 45.60
77926 2022-12-08 08:06:04 Terrasse 1.80 0.24 84.40
77925 2022-12-08 07:55:37 Bahnzimmer 19.90 19.15 46.00
77924 2022-12-08 07:37:50 Terrasse 1.80 0.24 84.50
77923 2022-12-08 07:25:36 Bahnzimmer 19.90 19.14 45.90
77922 2022-12-08 07:09:39 Terrasse 1.70 0.14 85.00
77921 2022-12-08 06:55:35 Bahnzimmer 19.80 19.04 46.20
77920 2022-12-08 06:41:26 Terrasse 1.70 0.14 85.00
77919 2022-12-08 06:25:35 Bahnzimmer 19.70 18.93 46.30
77918 2022-12-08 06:13:14 Terrasse 1.70 0.14 84.90
77917 2022-12-08 05:55:34 Bahnzimmer 19.70 18.93 46.20
77916 2022-12-08 05:45:06 Terrasse 1.60 0.03 85.00
77915 2022-12-08 05:25:33 Bahnzimmer 19.50 18.71 46.30
77914 2022-12-08 05:16:51 Terrasse 1.70 0.14 84.70
77913 2022-12-08 04:55:33 Bahnzimmer 19.20 18.39 46.50
77912 2022-12-08 04:48:37 Terrasse 1.50 -0.10 84.20
77911 2022-12-08 04:25:32 Bahnzimmer 19.00 18.17 46.70
77910 2022-12-08 04:20:25 Terrasse 1.40 -0.22 83.60
77909 2022-12-08 03:55:31 Bahnzimmer 19.00 18.17 46.70
77908 2022-12-08 03:52:12 Terrasse 1.50 -0.11 83.60
77907 2022-12-08 03:25:31 Bahnzimmer 19.00 18.18 46.80
77906 2022-12-08 03:24:00 Terrasse 1.70 0.11 83.50
77905 2022-12-08 02:55:47 Terrasse 1.90 0.33 83.50
77904 2022-12-08 02:55:30 Bahnzimmer 19.10 18.28 46.60
77903 2022-12-08 02:27:34 Terrasse 1.70 0.10 83.40
77902 2022-12-08 02:25:29 Bahnzimmer 19.20 18.39 46.60
77901 2022-12-08 01:59:21 Terrasse 1.70 0.10 83.20
77900 2022-12-08 01:55:29 Bahnzimmer 19.20 18.39 46.60
77899 2022-12-08 01:31:08 Terrasse 1.60 -0.02 82.80
77898 2022-12-08 01:25:28 Bahnzimmer 19.20 18.39 46.50
77897 2022-12-08 01:02:57 Terrasse 1.70 0.07 82.10
77896 2022-12-08 00:55:27 Bahnzimmer 19.30 18.50 46.50
77895 2022-12-08 00:34:45 Terrasse 1.80 0.18 82.00
77894 2022-12-08 00:25:27 Bahnzimmer 19.20 18.40 46.80
77893 2022-12-08 00:06:33 Terrasse 1.80 0.17 81.80
77892 2022-12-07 23:55:26 Bahnzimmer 19.50 18.72 46.60
77891 2022-12-07 23:38:22 Terrasse 1.80 0.17 81.60
77890 2022-12-07 23:25:25 Bahnzimmer 19.70 18.93 46.20
77889 2022-12-07 23:10:21 Terrasse 2.00 0.39 81.60
77888 2022-12-07 22:55:25 Bahnzimmer 19.70 18.93 46.20
77887 2022-12-07 22:42:07 Terrasse 2.20 0.60 81.40
77886 2022-12-07 22:25:24 Bahnzimmer 19.70 18.93 46.20
77885 2022-12-07 21:55:22 Bahnzimmer 19.70 18.93 46.10
77884 2022-12-07 21:43:41 Terrasse 2.20 0.59 81.10
77883 2022-12-07 21:25:22 Bahnzimmer 19.70 18.93 46.20
77882 2022-12-07 21:15:33 Terrasse 2.30 0.70 80.90
77881 2022-12-07 20:55:21 Bahnzimmer 19.70 18.93 46.20
77880 2022-12-07 20:47:26 Terrasse 2.30 0.70 81.00
77879 2022-12-07 20:25:21 Bahnzimmer 19.70 18.93 46.20
77878 2022-12-07 20:19:18 Terrasse 2.30 0.70 81.00
77877 2022-12-07 19:55:20 Bahnzimmer 19.60 18.83 46.40
77876 2022-12-07 19:51:06 Terrasse 2.20 0.61 81.70
77875 2022-12-07 19:23:00 Terrasse 2.20 0.60 81.30
77874 2022-12-07 18:55:14 Bahnzimmer 19.50 18.73 46.80
77873 2022-12-07 18:54:47 Terrasse 2.20 0.57 80.40
77872 2022-12-07 18:26:36 Terrasse 2.50 0.88 79.40
77871 2022-12-07 18:25:13 Bahnzimmer 19.60 18.83 46.40
77870 2022-12-07 17:58:25 Terrasse 2.80 1.22 79.70
77869 2022-12-07 17:55:12 Bahnzimmer 19.90 19.16 46.50
77868 2022-12-07 17:30:14 Terrasse 2.90 1.32 79.50
77867 2022-12-07 17:25:12 Bahnzimmer 19.70 18.93 46.20
77866 2022-12-07 17:02:03 Terrasse 3.10 1.56 80.20
77865 2022-12-07 16:55:11 Bahnzimmer 19.60 18.82 46.20
77864 2022-12-07 16:33:59 Terrasse 3.10 1.54 79.40
77863 2022-12-07 16:25:10 Bahnzimmer 19.50 18.70 45.70
77862 2022-12-07 16:05:46 Terrasse 3.40 1.83 78.00
77861 2022-12-07 15:55:10 Bahnzimmer 19.50 18.70 45.60
77860 2022-12-07 15:37:38 Terrasse 3.90 2.35 76.60
77859 2022-12-07 15:25:09 Bahnzimmer 19.60 18.81 45.70
77858 2022-12-07 15:09:29 Terrasse 4.30 2.78 76.20
77857 2022-12-07 14:55:08 Bahnzimmer 20.00 19.23 45.00
77856 2022-12-07 14:41:24 Terrasse 5.10 3.64 75.50
77855 2022-12-07 14:25:08 Bahnzimmer 20.10 19.32 44.20
77854 2022-12-07 14:13:05 Terrasse 4.70 3.19 75.40
77853 2022-12-07 13:55:07 Bahnzimmer 19.80 18.99 44.20
77852 2022-12-07 13:44:58 Terrasse 5.50 3.98 71.60
77851 2022-12-07 13:25:07 Bahnzimmer 19.90 19.11 44.70
77850 2022-12-07 13:16:49 Terrasse 5.60 4.07 70.90
77849 2022-12-07 12:55:06 Bahnzimmer 19.80 19.03 45.70
77848 2022-12-07 12:48:40 Terrasse 5.60 4.13 73.20
77847 2022-12-07 12:25:05 Bahnzimmer 19.90 19.11 44.50
77846 2022-12-07 12:20:22 Terrasse 5.00 3.51 74.80
77845 2022-12-07 11:55:05 Bahnzimmer 19.70 18.88 44.10
77844 2022-12-07 11:52:42 Terrasse 7.00 5.66 72.80
77843 2022-12-07 11:25:04 Bahnzimmer 19.50 18.64 43.60
77842 2022-12-07 11:23:50 Terrasse 3.50 2.00 80.40
77841 2022-12-07 10:55:40 Terrasse 3.30 1.81 81.40
77840 2022-12-07 10:55:03 Bahnzimmer 20.00 19.26 46.00
77839 2022-12-07 10:27:24 Terrasse 2.90 1.42 83.30
77838 2022-12-07 10:25:03 Bahnzimmer 19.70 18.92 45.80
77837 2022-12-07 09:59:10 Terrasse 2.50 0.96 82.60
77836 2022-12-07 09:55:02 Bahnzimmer 19.40 18.60 46.20
77835 2022-12-07 09:30:59 Terrasse 2.40 0.87 83.30
77834 2022-12-07 09:25:01 Bahnzimmer 19.10 18.26 45.70
77833 2022-12-07 09:02:45 Terrasse 2.40 0.88 83.60
77832 2022-12-07 08:55:01 Bahnzimmer 19.10 18.26 45.70
77831 2022-12-07 08:34:33 Terrasse 2.30 0.78 84.20
77830 2022-12-07 08:25:00 Bahnzimmer 19.20 18.34 44.70
77829 2022-12-07 08:06:20 Terrasse 2.20 0.69 84.70
77828 2022-12-07 07:54:59 Bahnzimmer 18.80 17.88 43.80
77827 2022-12-07 07:38:07 Terrasse 2.30 0.80 84.90
77826 2022-12-07 07:24:59 Bahnzimmer 19.70 18.92 45.60
77825 2022-12-07 07:09:56 Terrasse 2.10 0.58 84.90
77824 2022-12-07 06:54:58 Bahnzimmer 19.70 18.92 45.80
77823 2022-12-07 06:41:43 Terrasse 2.20 0.69 84.80
77822 2022-12-07 06:24:57 Bahnzimmer 19.70 18.92 45.80
77821 2022-12-07 06:13:31 Terrasse 2.00 0.46 84.40
77820 2022-12-07 05:54:57 Bahnzimmer 19.50 18.70 45.90
77819 2022-12-07 05:45:18 Terrasse 2.00 0.46 84.50
77818 2022-12-07 05:24:56 Bahnzimmer 19.50 18.70 45.90
77817 2022-12-07 05:17:05 Terrasse 2.10 0.56 84.00
77816 2022-12-07 04:48:52 Terrasse 1.90 0.33 83.70
77815 2022-12-07 04:24:50 Bahnzimmer 19.00 18.16 46.30
77814 2022-12-07 04:20:41 Terrasse 1.90 0.32 83.40
77813 2022-12-07 03:54:49 Bahnzimmer 19.10 18.27 46.20
77812 2022-12-07 03:52:29 Terrasse 1.80 0.19 82.60
77811 2022-12-07 03:24:48 Bahnzimmer 19.10 18.27 46.20
77810 2022-12-07 03:24:17 Terrasse 1.80 0.18 82.30
77809 2022-12-07 02:56:07 Terrasse 2.00 0.39 81.60
77808 2022-12-07 02:54:48 Bahnzimmer 19.10 18.27 46.20
77807 2022-12-07 02:27:56 Terrasse 2.00 0.34 80.00
77806 2022-12-07 02:24:47 Bahnzimmer 19.10 18.27 46.20
77805 2022-12-07 01:59:44 Terrasse 2.00 0.35 80.10
77804 2022-12-07 01:54:46 Bahnzimmer 19.20 18.38 46.10
77803 2022-12-07 01:31:32 Terrasse 2.00 0.37 80.90
77802 2022-12-07 01:24:46 Bahnzimmer 19.20 18.38 46.10
77801 2022-12-07 01:03:18 Terrasse 2.00 0.38 81.20
77800 2022-12-07 00:54:45 Bahnzimmer 19.20 18.38 46.20
77799 2022-12-07 00:35:06 Terrasse 1.90 0.27 81.40
77798 2022-12-07 00:24:44 Bahnzimmer 19.20 18.38 46.30
77797 2022-12-07 00:06:52 Terrasse 1.80 0.16 81.20
77796 2022-12-06 23:54:44 Bahnzimmer 19.40 18.60 46.20
77795 2022-12-06 23:38:40 Terrasse 1.80 0.15 81.10
77794 2022-12-06 23:24:43 Bahnzimmer 19.70 18.92 45.90
77793 2022-12-06 23:10:27 Terrasse 1.70 0.02 80.40
77792 2022-12-06 22:54:42 Bahnzimmer 19.80 19.03 45.70
77791 2022-12-06 22:42:15 Terrasse 1.70 0.02 80.30
77790 2022-12-06 22:24:42 Bahnzimmer 19.70 18.92 45.80
77789 2022-12-06 22:14:03 Terrasse 1.80 0.11 79.60
77788 2022-12-06 21:54:41 Bahnzimmer 19.70 18.92 45.90
77787 2022-12-06 21:45:53 Terrasse 2.00 0.31 78.70
77786 2022-12-06 21:24:40 Bahnzimmer 19.70 18.92 45.90
77785 2022-12-06 21:17:43 Terrasse 2.30 0.61 77.70
77784 2022-12-06 20:54:39 Bahnzimmer 19.70 18.92 45.90
77783 2022-12-06 20:49:31 Terrasse 2.50 0.88 79.60
77782 2022-12-06 20:24:38 Bahnzimmer 19.70 18.92 45.80
77781 2022-12-06 20:21:19 Terrasse 2.50 0.92 81.00
77780 2022-12-06 19:54:38 Bahnzimmer 19.70 18.92 45.70
77779 2022-12-06 19:53:07 Terrasse 2.50 0.93 81.40
77778 2022-12-06 19:24:55 Terrasse 2.60 1.03 80.80
77777 2022-12-06 19:24:37 Bahnzimmer 19.70 18.92 45.70
77776 2022-12-06 18:56:45 Terrasse 2.70 1.14 81.00
77775 2022-12-06 18:54:36 Bahnzimmer 19.70 18.92 45.60
77774 2022-12-06 18:28:34 Terrasse 2.90 1.37 81.40
77773 2022-12-06 18:24:36 Bahnzimmer 19.80 19.02 45.50
77772 2022-12-06 17:54:35 Bahnzimmer 19.80 19.02 45.40
77771 2022-12-06 17:29:24 Terrasse 2.70 1.14 80.80
77770 2022-12-06 17:24:34 Bahnzimmer 19.70 18.91 45.50
77769 2022-12-06 17:01:13 Terrasse 2.70 1.16 81.60
77768 2022-12-06 16:54:34 Bahnzimmer 19.70 18.92 45.60
77767 2022-12-06 16:33:02 Terrasse 2.80 1.26 81.50
77766 2022-12-06 16:24:33 Bahnzimmer 19.70 18.92 45.70
77765 2022-12-06 16:04:51 Terrasse 2.90 1.37 81.30
77764 2022-12-06 15:54:32 Bahnzimmer 19.70 18.92 45.60
77763 2022-12-06 15:36:40 Terrasse 3.10 1.56 80.10
77762 2022-12-06 15:24:32 Bahnzimmer 20.00 19.24 45.40
77761 2022-12-06 15:08:29 Terrasse 3.10 1.53 79.10
77760 2022-12-06 14:54:31 Bahnzimmer 19.80 18.99 44.10
77759 2022-12-06 14:40:30 Terrasse 3.50 1.98 79.60
77758 2022-12-06 14:24:30 Bahnzimmer 18.80 17.89 44.40
77757 2022-12-06 14:12:16 Terrasse 3.50 1.96 78.50
77756 2022-12-06 13:54:26 Bahnzimmer 19.60 18.80 45.40
77755 2022-12-06 13:44:05 Terrasse 3.50 1.99 80.00
77754 2022-12-06 13:24:26 Bahnzimmer 19.70 18.91 45.50
77753 2022-12-06 13:15:57 Terrasse 3.40 1.85 78.80
77752 2022-12-06 12:54:25 Bahnzimmer 19.70 18.91 45.40
77751 2022-12-06 12:47:46 Terrasse 3.40 1.86 78.90
77750 2022-12-06 12:24:24 Bahnzimmer 19.50 18.67 44.50
77749 2022-12-06 12:19:37 Terrasse 3.30 1.76 79.40
77748 2022-12-06 11:54:24 Bahnzimmer 19.30 18.43 44.00
77747 2022-12-06 11:51:27 Terrasse 3.30 1.78 80.20
77746 2022-12-06 11:24:23 Bahnzimmer 18.60 17.63 42.50
77745 2022-12-06 11:23:18 Terrasse 3.10 1.56 80.20
77744 2022-12-06 10:55:01 Terrasse 2.60 1.05 81.70
77743 2022-12-06 10:54:23 Bahnzimmer 19.60 18.82 46.00
77742 2022-12-06 10:26:47 Terrasse 2.10 0.52 82.60
77741 2022-12-06 10:24:22 Bahnzimmer 19.80 19.02 45.50
77740 2022-12-06 09:58:34 Terrasse 1.70 0.07 82.20
77739 2022-12-06 09:54:21 Bahnzimmer 19.60 18.81 45.80
77738 2022-12-06 09:30:21 Terrasse 1.70 0.09 82.90
77737 2022-12-06 09:24:21 Bahnzimmer 19.10 18.26 45.70
77736 2022-12-06 09:02:10 Terrasse 1.60 -0.03 82.60
77735 2022-12-06 08:54:20 Bahnzimmer 19.40 18.59 45.70
77734 2022-12-06 08:33:59 Terrasse 1.50 -0.14 82.50
77733 2022-12-06 08:24:19 Bahnzimmer 19.60 18.79 45.10
77732 2022-12-06 08:05:51 Terrasse 1.50 -0.14 82.70
77731 2022-12-06 07:54:19 Bahnzimmer 19.00 18.07 42.60
77730 2022-12-06 07:37:38 Terrasse 1.50 -0.14 82.60
77729 2022-12-06 07:24:18 Bahnzimmer 20.00 19.27 46.40
77728 2022-12-06 07:09:26 Terrasse 1.50 -0.15 82.00
77727 2022-12-06 06:54:17 Bahnzimmer 20.00 19.27 46.40
77726 2022-12-06 06:41:15 Terrasse 1.50 -0.16 81.70
77725 2022-12-06 06:24:17 Bahnzimmer 19.90 19.16 46.50
77724 2022-12-06 06:13:04 Terrasse 1.50 -0.17 81.40
77723 2022-12-06 05:54:16 Bahnzimmer 19.70 18.94 46.50
77722 2022-12-06 05:44:53 Terrasse 1.60 -0.05 81.60
77721 2022-12-06 05:24:15 Bahnzimmer 19.60 18.83 46.50
77720 2022-12-06 05:16:43 Terrasse 1.60 -0.06 81.50
77719 2022-12-06 04:54:15 Bahnzimmer 19.20 18.40 46.80
77718 2022-12-06 04:48:36 Terrasse 1.60 -0.06 81.50
77717 2022-12-06 04:24:14 Bahnzimmer 19.00 18.19 47.20
77716 2022-12-06 04:20:24 Terrasse 1.60 -0.06 81.30
77715 2022-12-06 03:54:13 Bahnzimmer 19.10 18.29 47.00
77714 2022-12-06 03:52:11 Terrasse 1.70 0.09 83.00
77713 2022-12-06 03:24:13 Bahnzimmer 19.20 18.40 47.00
77712 2022-12-06 03:24:00 Terrasse 1.70 0.10 83.30
77711 2022-12-06 02:55:53 Terrasse 1.80 0.22 83.50
77710 2022-12-06 02:54:12 Bahnzimmer 19.10 18.30 47.10
77709 2022-12-06 02:27:42 Terrasse 2.00 0.44 83.50
77708 2022-12-06 02:24:12 Bahnzimmer 19.20 18.41 47.10
77707 2022-12-06 01:59:32 Terrasse 2.00 0.44 83.50
77706 2022-12-06 01:54:11 Bahnzimmer 19.20 18.40 47.00
77705 2022-12-06 01:31:22 Terrasse 2.20 0.67 83.90
77704 2022-12-06 01:24:10 Bahnzimmer 19.20 18.41 47.10
77703 2022-12-06 01:03:11 Terrasse 2.20 0.66 83.80
77702 2022-12-06 00:54:10 Bahnzimmer 19.30 18.52 47.10
77701 2022-12-06 00:35:00 Terrasse 2.30 0.78 84.20
77700 2022-12-06 00:24:09 Bahnzimmer 19.40 18.62 47.00
77699 2022-12-06 00:06:49 Terrasse 2.40 0.90 84.40
77698 2022-12-05 23:54:08 Bahnzimmer 19.50 18.73 47.00
77697 2022-12-05 23:38:38 Terrasse 2.50 1.03 85.20
77696 2022-12-05 23:24:08 Bahnzimmer 19.90 19.16 46.70
77695 2022-12-05 23:10:27 Terrasse 2.50 1.04 85.50
77694 2022-12-05 22:54:07 Bahnzimmer 20.00 19.27 46.50
77693 2022-12-05 22:42:16 Terrasse 2.50 1.07 86.60
77692 2022-12-05 22:24:06 Bahnzimmer 20.00 19.27 46.50
77691 2022-12-05 22:14:06 Terrasse 2.50 1.11 88.10
77690 2022-12-05 21:54:06 Bahnzimmer 19.90 19.16 46.50
77689 2022-12-05 21:45:55 Terrasse 2.50 1.11 88.20
77688 2022-12-05 21:24:05 Bahnzimmer 19.90 19.16 46.50
77687 2022-12-05 21:17:46 Terrasse 2.50 1.10 88.00
77686 2022-12-05 20:54:04 Bahnzimmer 19.70 18.94 46.60
77685 2022-12-05 20:49:33 Terrasse 2.50 1.10 87.80
77684 2022-12-05 20:24:04 Bahnzimmer 19.80 19.05 46.50
77683 2022-12-05 20:21:22 Terrasse 2.40 0.98 87.60
77682 2022-12-05 19:54:03 Bahnzimmer 19.90 19.16 46.50
77681 2022-12-05 19:53:12 Terrasse 2.40 0.98 87.60
77680 2022-12-05 19:25:01 Terrasse 2.50 1.08 87.20
77679 2022-12-05 19:24:02 Bahnzimmer 20.00 19.27 46.40
77678 2022-12-05 18:56:49 Terrasse 2.50 1.08 87.00
77677 2022-12-05 18:54:02 Bahnzimmer 20.00 19.26 46.00
77676 2022-12-05 18:28:38 Terrasse 2.40 0.97 87.00
77675 2022-12-05 18:24:01 Bahnzimmer 19.80 19.03 45.70
77674 2022-12-05 18:00:27 Terrasse 2.30 0.85 86.90
77673 2022-12-05 17:54:00 Bahnzimmer 20.00 19.25 45.60
77672 2022-12-05 17:32:17 Terrasse 2.20 0.73 86.50
77671 2022-12-05 17:24:00 Bahnzimmer 19.80 19.02 45.50
77670 2022-12-05 17:04:06 Terrasse 2.20 0.73 86.50
77669 2022-12-05 16:53:59 Bahnzimmer 19.90 19.13 45.40
77668 2022-12-05 16:35:56 Terrasse 2.10 0.63 86.70
77667 2022-12-05 16:23:58 Bahnzimmer 19.90 19.13 45.40
77666 2022-12-05 16:07:46 Terrasse 2.10 0.63 86.80
77665 2022-12-05 15:53:58 Bahnzimmer 19.90 19.13 45.30
77664 2022-12-05 15:39:35 Terrasse 2.20 0.74 86.60
77663 2022-12-05 15:23:57 Bahnzimmer 19.70 18.90 45.00
77662 2022-12-05 15:11:24 Terrasse 2.00 0.51 86.50
77661 2022-12-05 14:53:56 Bahnzimmer 19.30 18.43 43.70
77660 2022-12-05 14:43:12 Terrasse 2.00 0.51 86.40
77659 2022-12-05 14:23:56 Bahnzimmer 17.80 16.72 41.50
77658 2022-12-05 14:15:00 Terrasse 1.90 0.40 86.30
77657 2022-12-05 13:53:55 Bahnzimmer 19.70 18.93 46.10
77656 2022-12-05 13:46:49 Terrasse 1.90 0.40 86.30
77655 2022-12-05 13:23:54 Bahnzimmer 19.70 18.93 46.30
77654 2022-12-05 13:18:39 Terrasse 1.90 0.39 86.00
77653 2022-12-05 12:53:54 Bahnzimmer 20.00 19.26 46.00
77652 2022-12-05 12:50:28 Terrasse 1.80 0.28 85.90
77651 2022-12-05 12:23:53 Bahnzimmer 19.90 19.14 45.80
77650 2022-12-05 12:22:17 Terrasse 1.70 0.18 86.20
77649 2022-12-05 11:54:05 Terrasse 1.80 0.29 86.30
77648 2022-12-05 11:53:52 Bahnzimmer 19.50 18.70 45.60
77647 2022-12-05 11:25:56 Terrasse 1.60 0.06 86.00
77646 2022-12-05 11:23:52 Bahnzimmer 18.90 18.03 45.30
77645 2022-12-05 10:57:45 Terrasse 1.70 0.17 85.80
77644 2022-12-05 10:53:51 Bahnzimmer 19.30 18.48 45.90
77643 2022-12-05 10:29:32 Terrasse 1.50 -0.06 85.60
77642 2022-12-05 10:23:50 Bahnzimmer 18.80 17.93 45.70
77641 2022-12-05 10:01:22 Terrasse 1.50 -0.05 86.00
77640 2022-12-05 09:53:50 Bahnzimmer 18.80 17.92 45.50
77639 2022-12-05 09:33:11 Terrasse 1.40 -0.15 86.20
77638 2022-12-05 09:23:49 Bahnzimmer 18.80 17.92 45.20
77637 2022-12-05 09:04:59 Terrasse 1.30 -0.27 85.90
77636 2022-12-05 08:53:48 Bahnzimmer 18.80 17.87 43.30
77635 2022-12-05 08:36:49 Terrasse 1.20 -0.39 85.60
77634 2022-12-05 08:23:48 Bahnzimmer 19.50 18.73 46.80
77633 2022-12-05 08:08:39 Terrasse 1.20 -0.38 85.80
77632 2022-12-05 07:53:47 Bahnzimmer 19.50 18.72 46.70
77631 2022-12-05 07:40:28 Terrasse 1.20 -0.38 86.00
77630 2022-12-05 07:23:46 Bahnzimmer 19.50 18.73 46.80
77629 2022-12-05 07:12:16 Terrasse 1.00 -0.60 86.00
77628 2022-12-05 06:53:46 Bahnzimmer 19.50 18.73 46.80
77627 2022-12-05 06:44:07 Terrasse 1.10 -0.50 85.50
77626 2022-12-05 06:23:45 Bahnzimmer 19.40 18.61 46.70
77625 2022-12-05 06:15:55 Terrasse 1.00 -0.61 85.40
77624 2022-12-05 05:53:44 Bahnzimmer 19.20 18.40 46.90
77623 2022-12-05 05:47:44 Terrasse 1.00 -0.62 85.10
77622 2022-12-05 05:23:44 Bahnzimmer 19.30 18.50 46.70
77621 2022-12-05 05:19:35 Terrasse 1.10 -0.52 84.90
77620 2022-12-05 04:53:43 Bahnzimmer 19.00 18.19 47.10
77619 2022-12-05 04:51:26 Terrasse 1.00 -0.63 84.80
77618 2022-12-05 04:23:43 Bahnzimmer 18.90 18.07 47.00
77617 2022-12-05 04:23:15 Terrasse 1.00 -0.63 84.70
77616 2022-12-05 03:55:05 Terrasse 1.00 -0.64 84.40
77615 2022-12-05 03:53:42 Bahnzimmer 18.90 18.08 47.10
77614 2022-12-05 03:26:55 Terrasse 1.00 -0.65 84.00
77613 2022-12-05 03:23:41 Bahnzimmer 19.00 18.18 47.00
77612 2022-12-05 02:58:45 Terrasse 1.00 -0.64 84.30
77611 2022-12-05 02:53:41 Bahnzimmer 18.90 18.07 47.00
77610 2022-12-05 02:30:34 Terrasse 1.00 -0.64 84.30
77609 2022-12-05 02:23:40 Bahnzimmer 19.00 18.18 47.00
77608 2022-12-05 02:02:23 Terrasse 0.80 -0.87 83.90
77607 2022-12-05 01:53:39 Bahnzimmer 19.00 18.18 46.90
77606 2022-12-05 01:34:13 Terrasse 0.80 -0.88 83.70
77605 2022-12-05 01:23:39 Bahnzimmer 19.00 18.18 47.00
77604 2022-12-05 01:06:03 Terrasse 0.90 -0.77 83.60
77603 2022-12-05 00:53:38 Bahnzimmer 19.10 18.29 46.90
77602 2022-12-05 00:37:51 Terrasse 1.00 -0.66 83.60
77601 2022-12-05 00:23:37 Bahnzimmer 19.00 18.18 47.00
77600 2022-12-05 00:09:43 Terrasse 1.30 -0.34 83.30
77599 2022-12-04 23:53:37 Bahnzimmer 19.20 18.40 46.80
77598 2022-12-04 23:41:37 Terrasse 1.40 -0.21 84.00
77597 2022-12-04 23:23:36 Bahnzimmer 19.30 18.50 46.70
77596 2022-12-04 23:13:34 Terrasse 1.40 -0.21 84.00
77595 2022-12-04 22:53:35 Bahnzimmer 19.30 18.50 46.60
77594 2022-12-04 22:45:29 Terrasse 1.50 -0.10 83.90
77593 2022-12-04 22:23:35 Bahnzimmer 19.30 18.50 46.70
77592 2022-12-04 22:17:17 Terrasse 1.50 -0.11 83.50
77591 2022-12-04 21:53:34 Bahnzimmer 19.30 18.50 46.60
77590 2022-12-04 21:49:15 Terrasse 1.50 -0.12 83.10
77589 2022-12-04 21:23:33 Bahnzimmer 19.30 18.50 46.40
77588 2022-12-04 21:21:09 Terrasse 1.60 -0.01 83.20
77587 2022-12-04 20:53:37 Terrasse 1.60 0.00 83.60
77586 2022-12-04 20:53:33 Bahnzimmer 19.20 18.39 46.50
77585 2022-12-04 20:25:14 Terrasse 1.80 0.18 82.20
77584 2022-12-04 20:23:32 Bahnzimmer 19.40 18.60 46.30
77583 2022-12-04 19:57:03 Terrasse 1.90 0.29 82.20
77582 2022-12-04 19:53:31 Bahnzimmer 19.70 18.93 46.00
77581 2022-12-04 19:28:52 Terrasse 1.80 0.19 82.50
77580 2022-12-04 19:23:31 Bahnzimmer 19.90 19.14 45.70
77579 2022-12-04 19:00:42 Terrasse 1.70 0.04 80.80
77578 2022-12-04 18:53:30 Bahnzimmer 19.80 19.03 45.60
77577 2022-12-04 18:32:30 Terrasse 1.70 0.01 79.80
77576 2022-12-04 18:23:29 Bahnzimmer 20.00 19.24 45.40
77575 2022-12-04 18:04:19 Terrasse 1.80 0.12 79.70
77574 2022-12-04 17:53:29 Bahnzimmer 20.30 19.55 44.70
77573 2022-12-04 17:36:09 Terrasse 1.90 0.21 79.10
77572 2022-12-04 17:23:28 Bahnzimmer 20.50 19.78 44.80
77571 2022-12-04 17:07:58 Terrasse 1.80 0.10 79.00
77570 2022-12-04 16:53:27 Bahnzimmer 20.60 19.89 45.00
77569 2022-12-04 16:39:47 Terrasse 1.70 -0.02 78.80
77568 2022-12-04 16:23:27 Bahnzimmer 20.30 19.52 43.50
77567 2022-12-04 16:12:16 Terrasse 1.60 -0.13 78.70
77566 2022-12-04 15:53:26 Bahnzimmer 18.30 17.24 40.40
77565 2022-12-04 15:44:34 Terrasse 1.70 -0.02 78.60
77564 2022-12-04 15:23:25 Bahnzimmer 20.50 19.85 47.60
77563 2022-12-04 15:16:47 Terrasse 1.80 0.10 78.90
77562 2022-12-04 14:53:25 Bahnzimmer 20.30 19.62 47.30
77561 2022-12-04 14:48:07 Terrasse 1.70 -0.01 79.00
77560 2022-12-04 14:23:24 Bahnzimmer 20.20 19.51 47.30
77559 2022-12-04 14:20:01 Terrasse 1.80 0.09 78.80
77558 2022-12-04 13:53:23 Bahnzimmer 19.90 19.18 47.30
77557 2022-12-04 13:51:50 Terrasse 1.80 0.10 79.10
77556 2022-12-04 13:23:40 Terrasse 1.80 0.10 79.00
77555 2022-12-04 13:23:23 Bahnzimmer 19.40 18.63 47.30
77554 2022-12-04 12:55:31 Terrasse 1.70 0.00 79.40
77553 2022-12-04 12:53:22 Bahnzimmer 19.00 18.18 46.90
77552 2022-12-04 12:27:20 Terrasse 1.60 -0.10 79.80
77551 2022-12-04 12:23:21 Bahnzimmer 19.10 18.29 46.80
77550 2022-12-04 11:59:08 Terrasse 1.40 -0.31 80.10
77549 2022-12-04 11:53:21 Bahnzimmer 19.30 18.50 46.70
77548 2022-12-04 11:30:57 Terrasse 1.20 -0.54 79.80
77547 2022-12-04 11:23:20 Bahnzimmer 19.40 18.62 47.00
77546 2022-12-04 11:02:45 Terrasse 1.10 -0.65 79.90
77545 2022-12-04 10:53:19 Bahnzimmer 19.60 18.83 46.70
77544 2022-12-04 10:34:34 Terrasse 1.00 -0.76 79.80
77543 2022-12-04 10:23:19 Bahnzimmer 19.70 18.93 46.30
77542 2022-12-04 10:06:24 Terrasse 1.00 -0.76 80.00
77541 2022-12-04 09:53:18 Bahnzimmer 20.00 19.23 45.10
77540 2022-12-04 09:38:13 Terrasse 0.80 -0.98 79.80
77539 2022-12-04 09:23:17 Bahnzimmer 20.40 19.69 45.60
77538 2022-12-04 09:10:02 Terrasse 0.80 -0.99 79.60
77537 2022-12-04 08:53:17 Bahnzimmer 20.40 19.71 46.70
77536 2022-12-04 08:41:51 Terrasse 0.60 -1.22 79.10
77535 2022-12-04 08:23:16 Bahnzimmer 20.40 19.71 46.70
77534 2022-12-04 08:13:40 Terrasse 0.60 -1.23 78.60
77533 2022-12-04 07:53:15 Bahnzimmer 20.20 19.50 46.90
77532 2022-12-04 07:45:30 Terrasse 0.50 -1.34 78.50
77531 2022-12-04 07:23:15 Bahnzimmer 20.00 19.28 46.90
77530 2022-12-04 07:17:20 Terrasse 0.40 -1.45 78.70
77529 2022-12-04 06:53:14 Bahnzimmer 20.00 19.28 47.00
77528 2022-12-04 06:49:11 Terrasse 0.50 -1.37 77.70
77527 2022-12-04 06:23:13 Bahnzimmer 19.60 18.85 47.10
77526 2022-12-04 06:21:01 Terrasse 0.50 -1.37 77.50
77525 2022-12-04 05:53:13 Bahnzimmer 19.50 18.74 47.30
77524 2022-12-04 05:52:51 Terrasse 0.50 -1.38 77.10
77523 2022-12-04 05:24:41 Terrasse 0.50 -1.37 77.40
77522 2022-12-04 05:23:12 Bahnzimmer 19.60 18.85 47.20
77521 2022-12-04 04:56:30 Terrasse 0.50 -1.38 77.10
77520 2022-12-04 04:53:11 Bahnzimmer 19.60 18.85 47.20
77519 2022-12-04 04:28:20 Terrasse 0.60 -1.27 77.00
77518 2022-12-04 04:23:11 Bahnzimmer 19.70 18.96 47.20
77517 2022-12-04 04:00:09 Terrasse 0.50 -1.39 76.80
77516 2022-12-04 03:53:10 Bahnzimmer 19.70 18.96 47.20
77515 2022-12-04 03:32:00 Terrasse 0.60 -1.28 76.60
77514 2022-12-04 03:23:09 Bahnzimmer 19.70 18.96 47.20
77513 2022-12-04 03:03:50 Terrasse 0.60 -1.28 76.90
77512 2022-12-04 02:53:09 Bahnzimmer 19.70 18.96 47.10
77511 2022-12-04 02:35:42 Terrasse 0.60 -1.28 76.90
77510 2022-12-04 02:23:08 Bahnzimmer 19.70 18.96 47.20
77509 2022-12-04 02:07:33 Terrasse 0.80 -1.06 76.60
77508 2022-12-04 01:53:07 Bahnzimmer 20.00 19.28 47.00
77507 2022-12-04 01:39:24 Terrasse 0.60 -1.29 76.50
77506 2022-12-04 01:23:07 Bahnzimmer 20.00 19.29 47.10
77505 2022-12-04 01:11:14 Terrasse 0.70 -1.18 76.50
77504 2022-12-04 00:53:06 Bahnzimmer 20.10 19.39 46.90
77503 2022-12-04 00:43:03 Terrasse 0.80 -1.07 76.20
77502 2022-12-04 00:23:05 Bahnzimmer 20.30 19.62 47.10
77501 2022-12-04 00:15:03 Terrasse 0.80 -1.07 76.30
77500 2022-12-03 23:53:05 Bahnzimmer 20.70 20.04 46.50
77499 2022-12-03 23:46:50 Terrasse 0.80 -1.07 76.50
77498 2022-12-03 23:23:04 Bahnzimmer 20.80 20.15 46.40
77497 2022-12-03 23:18:41 Terrasse 0.80 -1.05 77.20
77496 2022-12-03 22:53:03 Bahnzimmer 20.90 20.26 46.40
77495 2022-12-03 22:50:31 Terrasse 0.80 -1.05 77.00
77494 2022-12-03 22:23:03 Bahnzimmer 20.70 20.04 46.40
77493 2022-12-03 22:22:21 Terrasse 0.80 -1.06 76.90
77492 2022-12-03 21:54:12 Terrasse 1.00 -0.83 77.10
77491 2022-12-03 21:53:02 Bahnzimmer 20.50 19.82 46.50
77490 2022-12-03 21:26:04 Terrasse 1.00 -0.83 77.20
77489 2022-12-03 21:23:01 Bahnzimmer 20.30 19.60 46.60
77488 2022-12-03 20:57:54 Terrasse 0.90 -0.93 77.60
77487 2022-12-03 20:53:01 Bahnzimmer 20.10 19.38 46.70
77486 2022-12-03 20:29:45 Terrasse 1.00 -0.82 77.50
77485 2022-12-03 20:23:00 Bahnzimmer 19.90 19.17 46.80
77484 2022-12-03 20:01:36 Terrasse 1.00 -0.81 77.80
77483 2022-12-03 19:52:59 Bahnzimmer 19.80 19.06 46.80
77482 2022-12-03 19:33:28 Terrasse 1.10 -0.71 77.70
77481 2022-12-03 19:22:59 Bahnzimmer 19.40 18.62 46.90
77480 2022-12-03 19:05:18 Terrasse 1.00 -0.82 77.70
77479 2022-12-03 18:52:58 Bahnzimmer 19.00 18.18 46.90
77478 2022-12-03 18:37:09 Terrasse 1.00 -0.82 77.60
77477 2022-12-03 18:22:57 Bahnzimmer 18.30 17.39 46.30
77476 2022-12-03 18:09:01 Terrasse 1.00 -0.82 77.40
77475 2022-12-03 17:52:57 Bahnzimmer 18.20 17.31 47.40
77474 2022-12-03 17:40:51 Terrasse 1.10 -0.72 77.20
77473 2022-12-03 17:22:56 Bahnzimmer 18.30 17.43 47.50
77472 2022-12-03 17:12:42 Terrasse 1.10 -0.72 77.20
77471 2022-12-03 16:52:55 Bahnzimmer 18.30 17.43 47.60
77470 2022-12-03 16:44:34 Terrasse 1.40 -0.39 77.00
77469 2022-12-03 16:22:55 Bahnzimmer 18.40 17.53 47.20
77468 2022-12-03 16:16:25 Terrasse 1.20 -0.61 77.10
77467 2022-12-03 15:52:54 Bahnzimmer 18.50 17.64 47.20
77466 2022-12-03 15:48:16 Terrasse 1.30 -0.50 77.10
77465 2022-12-03 15:22:53 Bahnzimmer 18.60 17.75 47.20
77464 2022-12-03 15:20:08 Terrasse 1.40 -0.39 77.00
77463 2022-12-03 14:52:53 Bahnzimmer 18.70 17.85 47.00
77462 2022-12-03 14:51:59 Terrasse 1.40 -0.39 77.00
77461 2022-12-03 14:23:49 Terrasse 1.50 -0.29 76.80
77460 2022-12-03 14:22:52 Bahnzimmer 18.70 17.85 46.90
77459 2022-12-03 13:55:40 Terrasse 1.50 -0.29 76.70
77458 2022-12-03 13:52:51 Bahnzimmer 18.70 17.84 46.60
77457 2022-12-03 13:27:30 Terrasse 1.60 -0.17 77.00
77456 2022-12-03 13:22:51 Bahnzimmer 19.00 18.21 47.90
77455 2022-12-03 12:59:19 Terrasse 1.40 -0.38 77.40
77454 2022-12-03 12:52:50 Bahnzimmer 19.00 18.19 47.20
77453 2022-12-03 12:31:11 Terrasse 1.40 -0.40 76.80
77452 2022-12-03 12:22:49 Bahnzimmer 19.00 18.20 47.60
77451 2022-12-03 12:03:03 Terrasse 1.40 -0.41 76.40
77450 2022-12-03 11:52:49 Bahnzimmer 19.20 18.41 47.20
77449 2022-12-03 11:34:54 Terrasse 1.40 -0.41 76.50
77448 2022-12-03 11:22:48 Bahnzimmer 19.40 18.63 47.30
77447 2022-12-03 11:06:42 Terrasse 1.20 -0.61 77.30
77446 2022-12-03 10:52:47 Bahnzimmer 19.50 18.74 47.10
77445 2022-12-03 10:38:32 Terrasse 0.90 -0.94 77.00
77444 2022-12-03 10:22:47 Bahnzimmer 19.30 18.50 46.60
77443 2022-12-03 10:10:22 Terrasse 0.80 -1.05 77.10
77442 2022-12-03 09:52:46 Bahnzimmer 19.50 18.75 47.50
77441 2022-12-03 09:42:14 Terrasse 0.80 -1.07 76.20
77440 2022-12-03 09:22:45 Bahnzimmer 19.60 18.87 48.10
77439 2022-12-03 09:14:05 Terrasse 0.80 -1.06 76.70
77438 2022-12-03 08:52:45 Bahnzimmer 19.50 18.76 48.00
77437 2022-12-03 08:45:55 Terrasse 0.60 -1.29 76.50
77436 2022-12-03 08:22:44 Bahnzimmer 19.40 18.65 48.00
77435 2022-12-03 08:17:45 Terrasse 0.60 -1.29 76.30
77434 2022-12-03 07:52:43 Bahnzimmer 19.40 18.65 48.10
77433 2022-12-03 07:49:37 Terrasse 0.60 -1.29 76.20
77432 2022-12-03 07:22:43 Bahnzimmer 19.40 18.65 48.10
77431 2022-12-03 07:21:42 Terrasse 0.60 -1.29 76.30
77430 2022-12-03 06:53:30 Terrasse 0.60 -1.29 76.50
77429 2022-12-03 06:52:42 Bahnzimmer 19.40 18.65 48.10
77428 2022-12-03 06:25:21 Terrasse 0.60 -1.29 76.50
77427 2022-12-03 06:22:42 Bahnzimmer 19.10 18.32 48.10
77426 2022-12-03 05:57:12 Terrasse 0.60 -1.29 76.30
77425 2022-12-03 05:52:41 Bahnzimmer 19.00 18.22 48.30
77424 2022-12-03 05:29:02 Terrasse 0.60 -1.28 76.90
77423 2022-12-03 05:22:40 Bahnzimmer 19.00 18.22 48.30
77422 2022-12-03 05:00:54 Terrasse 0.70 -1.19 76.10
77421 2022-12-03 04:52:40 Bahnzimmer 19.10 18.32 48.20
77420 2022-12-03 04:32:46 Terrasse 0.60 -1.29 76.30
77419 2022-12-03 04:22:39 Bahnzimmer 19.10 18.33 48.30
77418 2022-12-03 04:04:38 Terrasse 0.80 -1.08 76.00
77417 2022-12-03 03:52:38 Bahnzimmer 19.10 18.33 48.30
77416 2022-12-03 03:36:30 Terrasse 0.60 -1.30 75.90
77415 2022-12-03 03:22:38 Bahnzimmer 19.10 18.33 48.30
77414 2022-12-03 03:08:22 Terrasse 0.70 -1.20 75.50
77413 2022-12-03 02:52:37 Bahnzimmer 19.10 18.33 48.30
77412 2022-12-03 02:40:13 Terrasse 0.80 -1.08 76.10
77411 2022-12-03 02:22:36 Bahnzimmer 19.10 18.33 48.30
77410 2022-12-03 02:12:04 Terrasse 0.80 -1.06 76.70
77409 2022-12-03 01:52:36 Bahnzimmer 19.10 18.32 48.20
77408 2022-12-03 01:43:55 Terrasse 0.70 -1.18 76.40
77407 2022-12-03 01:22:35 Bahnzimmer 19.10 18.32 48.20
77406 2022-12-03 01:15:45 Terrasse 0.70 -1.16 77.20
77405 2022-12-03 00:52:34 Bahnzimmer 19.20 18.43 48.00
77404 2022-12-03 00:47:37 Terrasse 0.80 -1.06 76.60
77403 2022-12-03 00:22:33 Bahnzimmer 19.40 18.65 48.20
77402 2022-12-03 00:19:28 Terrasse 0.80 -1.05 77.10
77401 2022-12-02 23:52:33 Bahnzimmer 19.50 18.76 48.00
77400 2022-12-02 23:51:19 Terrasse 0.80 -1.06 76.90
77399 2022-12-02 23:23:11 Terrasse 1.00 -0.84 76.70
77398 2022-12-02 23:22:32 Bahnzimmer 19.50 18.76 48.00
77397 2022-12-02 22:55:02 Terrasse 1.00 -0.84 76.60
77396 2022-12-02 22:52:31 Bahnzimmer 19.50 18.76 48.00
77395 2022-12-02 22:26:55 Terrasse 1.00 -0.85 76.50
77394 2022-12-02 22:22:31 Bahnzimmer 19.50 18.76 48.00
77393 2022-12-02 21:58:46 Terrasse 1.00 -0.84 76.60
77392 2022-12-02 21:52:30 Bahnzimmer 19.40 18.65 47.90
77391 2022-12-02 21:30:45 Terrasse 1.10 -0.73 76.60
77390 2022-12-02 21:22:29 Bahnzimmer 19.50 18.75 47.80
77389 2022-12-02 21:02:37 Terrasse 1.20 -0.64 76.10
77388 2022-12-02 20:52:29 Bahnzimmer 19.40 18.64 47.80
77387 2022-12-02 20:22:28 Bahnzimmer 19.50 18.75 47.60
77386 2022-12-02 20:04:15 Terrasse 1.50 -0.32 75.60
77385 2022-12-02 19:52:27 Bahnzimmer 19.40 18.64 47.50
77384 2022-12-02 19:36:08 Terrasse 1.40 -0.44 75.20
77383 2022-12-02 19:22:27 Bahnzimmer 19.30 18.52 47.20
77382 2022-12-02 19:08:01 Terrasse 1.40 -0.44 75.10
77381 2022-12-02 18:52:26 Bahnzimmer 19.20 18.40 46.80
77380 2022-12-02 18:39:54 Terrasse 1.50 -0.34 74.70
77379 2022-12-02 18:22:26 Bahnzimmer 19.00 18.15 45.90
77378 2022-12-02 18:11:46 Terrasse 1.60 -0.24 74.60
77377 2022-12-02 17:52:25 Bahnzimmer 19.40 18.65 48.00
77376 2022-12-02 17:43:38 Terrasse 1.40 -0.43 75.70
77375 2022-12-02 17:22:24 Bahnzimmer 19.20 18.42 47.60
77374 2022-12-02 17:15:32 Terrasse 1.60 -0.22 75.40
77373 2022-12-02 16:52:24 Bahnzimmer 19.20 18.39 46.70
77372 2022-12-02 16:47:28 Terrasse 2.00 0.22 75.40
77371 2022-12-02 16:22:23 Bahnzimmer 19.00 18.28 50.80
77370 2022-12-02 16:19:28 Terrasse 2.50 0.76 75.00
77369 2022-12-02 15:52:22 Bahnzimmer 18.50 17.71 50.00
77368 2022-12-02 15:51:38 Terrasse 4.20 2.46 68.20
77367 2022-12-02 15:24:51 Terrasse 19.00 18.39 54.80
77366 2022-12-02 15:24:17 Terrasse 18.70 17.98 51.80
77365 2022-12-02 15:22:22 Bahnzimmer 18.60 17.83 50.40
77364 2022-12-02 14:52:21 Bahnzimmer 18.60 17.82 50.10
77363 2022-12-02 14:22:20 Bahnzimmer 18.50 17.70 49.70
77362 2022-12-02 13:52:20 Bahnzimmer 18.50 17.71 50.00
77361 2022-12-02 13:22:19 Bahnzimmer 18.60 17.80 49.20
77360 2022-12-02 12:52:17 Bahnzimmer 18.50 17.69 49.20
77359 2022-12-02 12:22:17 Bahnzimmer 18.50 17.70 49.40
77358 2022-12-02 11:52:16 Bahnzimmer 18.50 17.69 49.30
77357 2022-12-02 11:22:15 Bahnzimmer 18.60 17.79 48.90
77356 2022-12-02 10:52:15 Bahnzimmer 18.70 17.90 48.90
77355 2022-12-02 10:22:14 Bahnzimmer 18.80 18.01 48.80
77354 2022-12-02 09:52:13 Bahnzimmer 18.80 18.01 48.70
77353 2022-12-02 09:22:13 Bahnzimmer 18.90 18.11 48.40
77352 2022-12-02 08:52:12 Bahnzimmer 19.00 18.21 48.20
77351 2022-12-02 08:22:11 Bahnzimmer 19.20 18.42 47.80
77350 2022-12-02 07:52:10 Bahnzimmer 19.40 18.63 47.10
77349 2022-12-02 07:22:10 Bahnzimmer 19.10 18.27 46.20
77348 2022-12-02 06:52:09 Bahnzimmer 19.90 19.24 49.60
77347 2022-12-02 06:22:08 Bahnzimmer 19.70 19.03 49.80
77346 2022-12-02 05:52:08 Bahnzimmer 19.60 18.92 49.90
77345 2022-12-02 05:22:07 Bahnzimmer 19.50 18.81 50.00
77344 2022-12-02 04:52:06 Bahnzimmer 19.10 18.38 50.20
77343 2022-12-02 04:22:06 Bahnzimmer 19.10 18.38 50.20
77342 2022-12-02 03:52:05 Bahnzimmer 19.10 18.38 50.20
77341 2022-12-02 03:22:04 Bahnzimmer 19.10 18.38 50.40
77340 2022-12-02 02:52:04 Bahnzimmer 19.20 18.49 50.20
77339 2022-12-02 02:22:03 Bahnzimmer 19.20 18.49 50.20
77338 2022-12-02 01:52:02 Bahnzimmer 19.20 18.49 50.20
77337 2022-12-02 01:22:02 Bahnzimmer 19.30 18.59 50.10
77336 2022-12-02 00:52:01 Bahnzimmer 19.30 18.59 50.00
77335 2022-12-02 00:22:00 Bahnzimmer 19.50 18.81 50.10
77334 2022-12-01 23:52:00 Bahnzimmer 19.60 18.92 50.10
77333 2022-12-01 23:21:59 Bahnzimmer 19.90 19.25 49.80
77332 2022-12-01 22:51:58 Bahnzimmer 19.90 19.25 49.80
77331 2022-12-01 22:21:58 Bahnzimmer 19.90 19.25 49.90
77330 2022-12-01 21:51:57 Bahnzimmer 19.90 19.26 50.20
77329 2022-12-01 21:21:56 Bahnzimmer 19.70 19.02 49.70
77328 2022-12-01 20:51:56 Bahnzimmer 19.50 18.81 49.80
77327 2022-12-01 20:21:55 Bahnzimmer 19.50 18.80 49.70
77326 2022-12-01 19:51:54 Bahnzimmer 19.20 18.47 49.70
77325 2022-12-01 19:21:54 Bahnzimmer 19.10 18.37 50.00
77324 2022-12-01 18:51:53 Bahnzimmer 19.20 18.48 49.80
77323 2022-12-01 18:21:52 Bahnzimmer 19.00 18.27 50.40
77322 2022-12-01 17:51:51 Bahnzimmer 19.00 18.27 50.30
77321 2022-12-01 17:21:51 Bahnzimmer 19.10 18.38 50.20
77320 2022-12-01 16:51:50 Bahnzimmer 19.20 18.48 49.90
77319 2022-12-01 16:21:49 Bahnzimmer 19.30 18.58 49.70
77318 2022-12-01 15:51:49 Bahnzimmer 19.40 18.68 49.30
77317 2022-12-01 15:21:48 Bahnzimmer 19.20 18.47 49.40
77316 2022-12-01 14:51:47 Bahnzimmer 19.40 18.67 48.90
77315 2022-12-01 14:21:47 Bahnzimmer 19.50 18.81 50.00
77314 2022-12-01 13:51:46 Bahnzimmer 19.20 18.49 50.20
77313 2022-12-01 13:21:45 Bahnzimmer 19.30 18.59 49.80
77312 2022-12-01 12:51:45 Bahnzimmer 19.30 18.59 49.80
77311 2022-12-01 12:21:44 Bahnzimmer 19.50 18.80 49.40
77310 2022-12-01 11:51:43 Bahnzimmer 19.70 19.00 48.80
77309 2022-12-01 11:21:43 Bahnzimmer 19.70 18.97 47.60
77308 2022-12-01 10:58:13 Terrasse 3.10 1.61 82.20
77307 2022-12-01 10:51:42 Bahnzimmer 19.60 18.75 43.40
77306 2022-12-01 10:29:41 Terrasse 3.10 1.64 83.20
77305 2022-12-01 10:21:41 Bahnzimmer 20.00 19.36 50.10
77304 2022-12-01 10:01:11 Terrasse 3.10 1.63 82.80
77303 2022-12-01 09:51:41 Bahnzimmer 20.00 19.36 49.90
77302 2022-12-01 09:32:32 Terrasse 3.20 1.77 84.10
77301 2022-12-01 09:21:40 Bahnzimmer 19.50 18.81 49.80
77300 2022-12-01 09:03:56 Terrasse 3.30 1.92 85.50
77299 2022-12-01 08:51:39 Bahnzimmer 19.10 18.38 50.40
77298 2022-12-01 08:21:39 Bahnzimmer 19.10 18.38 50.30
77297 2022-12-01 07:51:38 Bahnzimmer 19.00 18.24 49.10
77296 2022-12-01 07:33:30 Terrasse 3.10 1.72 86.40
77295 2022-12-01 07:21:37 Bahnzimmer 17.00 15.98 46.80
77294 2022-12-01 07:01:50 Terrasse 3.40 2.03 85.70
77293 2022-12-01 06:51:37 Bahnzimmer 19.40 18.75 52.00
77292 2022-12-01 06:33:20 Terrasse 3.50 2.13 85.30
77291 2022-12-01 06:21:36 Bahnzimmer 19.30 18.65 52.10
77290 2022-12-01 06:04:49 Terrasse 3.60 2.28 86.60
77289 2022-12-01 05:51:35 Bahnzimmer 19.30 18.65 52.10
77288 2022-12-01 05:36:18 Terrasse 3.60 2.26 86.00
77287 2022-12-01 05:21:35 Bahnzimmer 19.20 18.54 52.20
77286 2022-12-01 05:07:47 Terrasse 3.60 2.26 86.10
77285 2022-12-01 04:51:34 Bahnzimmer 18.80 18.11 52.70
77284 2022-12-01 04:39:16 Terrasse 3.70 2.36 85.70
77283 2022-12-01 04:21:33 Bahnzimmer 18.70 18.00 52.70
77282 2022-12-01 04:10:46 Terrasse 3.90 2.59 86.00
77281 2022-12-01 03:51:33 Bahnzimmer 18.80 18.11 52.80
77280 2022-12-01 03:42:16 Terrasse 3.90 2.56 85.00
77279 2022-12-01 03:21:32 Bahnzimmer 18.80 18.12 52.90
77278 2022-12-01 03:13:46 Terrasse 4.10 2.78 84.70
77277 2022-12-01 02:51:31 Bahnzimmer 18.90 18.22 52.80
77276 2022-12-01 02:45:17 Terrasse 4.40 3.12 85.20
77275 2022-12-01 02:21:31 Bahnzimmer 18.90 18.23 52.90
77274 2022-12-01 02:16:48 Terrasse 4.50 3.22 85.00
77273 2022-12-01 01:51:30 Bahnzimmer 18.90 18.22 52.80
77272 2022-12-01 01:48:18 Terrasse 4.80 3.57 85.70
77271 2022-12-01 01:21:29 Bahnzimmer 19.10 18.44 52.60
77270 2022-12-01 01:19:49 Terrasse 5.00 3.78 85.10
77269 2022-12-01 00:51:29 Bahnzimmer 19.20 18.55 52.50
77268 2022-12-01 00:51:21 Terrasse 5.40 4.25 86.50
77267 2022-12-01 00:22:49 Terrasse 5.40 4.26 86.90
77266 2022-12-01 00:21:28 Bahnzimmer 19.30 18.66 52.60
77265 2022-11-30 23:54:25 Terrasse 5.50 4.37 86.80
77264 2022-11-30 23:51:27 Bahnzimmer 19.50 18.87 52.40
77263 2022-11-30 23:25:55 Terrasse 5.40 4.26 86.80
77262 2022-11-30 23:21:27 Bahnzimmer 19.70 19.09 52.30
77261 2022-11-30 22:57:24 Terrasse 5.50 4.36 86.40
77260 2022-11-30 22:51:26 Bahnzimmer 19.90 19.31 52.20
77259 2022-11-30 22:28:55 Terrasse 5.50 4.36 86.40
77258 2022-11-30 22:21:25 Bahnzimmer 20.20 19.63 52.00
77257 2022-11-30 22:00:26 Terrasse 5.50 4.38 87.00
77256 2022-11-30 21:51:25 Bahnzimmer 20.00 19.42 52.10
77255 2022-11-30 21:31:58 Terrasse 5.60 4.48 86.90
77254 2022-11-30 21:21:24 Bahnzimmer 19.60 18.97 51.90
77253 2022-11-30 21:03:27 Terrasse 5.70 4.59 86.90
77252 2022-11-30 20:51:23 Bahnzimmer 19.70 19.07 51.50
77251 2022-11-30 20:34:59 Terrasse 5.60 4.50 87.30
77250 2022-11-30 20:21:23 Bahnzimmer 20.00 19.41 51.70
77249 2022-11-30 20:06:30 Terrasse 5.70 4.61 87.30
77248 2022-11-30 19:51:22 Bahnzimmer 19.90 19.31 52.10
77247 2022-11-30 19:38:00 Terrasse 5.70 4.60 87.20
77246 2022-11-30 19:21:21 Bahnzimmer 19.90 19.30 51.70
77245 2022-11-30 19:09:30 Terrasse 5.70 4.60 87.10
77244 2022-11-30 18:51:20 Bahnzimmer 19.80 19.17 51.30
77243 2022-11-30 18:41:11 Terrasse 6.00 4.93 87.10
77242 2022-11-30 18:21:20 Bahnzimmer 19.70 19.05 50.90
77241 2022-11-30 18:12:38 Terrasse 6.00 4.92 86.90
77240 2022-11-30 17:51:19 Bahnzimmer 19.50 18.82 50.50
77239 2022-11-30 17:44:09 Terrasse 6.20 5.14 86.70
77238 2022-11-30 17:21:18 Bahnzimmer 19.10 18.38 50.40
77237 2022-11-30 17:15:40 Terrasse 6.30 5.25 86.60
77236 2022-11-30 16:51:18 Bahnzimmer 17.50 16.62 50.50
77235 2022-11-30 16:47:11 Terrasse 6.50 5.48 87.20
77234 2022-11-30 16:21:17 Bahnzimmer 20.00 19.41 51.90
77233 2022-11-30 16:18:41 Terrasse 6.60 5.58 86.90
77232 2022-11-30 15:51:16 Bahnzimmer 19.90 19.29 51.50
77231 2022-11-30 15:50:14 Terrasse 6.70 5.68 86.40
77230 2022-11-30 15:21:48 Terrasse 6.90 5.88 85.70
77229 2022-11-30 15:21:16 Bahnzimmer 18.70 17.94 50.50
77228 2022-11-30 14:53:21 Terrasse 7.00 5.98 85.20
77227 2022-11-30 14:51:15 Bahnzimmer 20.00 19.41 52.00
77226 2022-11-30 14:24:53 Terrasse 7.40 6.41 85.00
77225 2022-11-30 14:21:14 Bahnzimmer 19.50 18.87 52.20
77224 2022-11-30 13:56:28 Terrasse 7.60 6.64 85.10
77223 2022-11-30 13:51:14 Bahnzimmer 19.50 18.87 52.10
77222 2022-11-30 13:27:50 Terrasse 7.00 6.01 86.30
77221 2022-11-30 13:21:13 Bahnzimmer 19.60 18.98 52.10
77220 2022-11-30 12:59:18 Terrasse 7.00 6.03 87.00
77219 2022-11-30 12:51:12 Bahnzimmer 19.80 19.20 52.10
77218 2022-11-30 12:30:47 Terrasse 7.00 6.03 87.10
77217 2022-11-30 12:21:12 Bahnzimmer 20.00 19.41 51.70
77216 2022-11-30 12:02:16 Terrasse 6.70 5.70 87.30
77215 2022-11-30 11:51:11 Bahnzimmer 19.80 19.16 50.80
77214 2022-11-30 11:33:44 Terrasse 6.60 5.60 87.40
77213 2022-11-30 11:21:10 Bahnzimmer 18.90 18.18 51.00
77212 2022-11-30 11:05:13 Terrasse 6.40 5.39 87.90
77211 2022-11-30 10:51:10 Bahnzimmer 19.70 19.07 51.60
77210 2022-11-30 10:36:42 Terrasse 6.20 5.19 88.60
77209 2022-11-30 10:21:09 Bahnzimmer 19.50 18.84 51.20
77208 2022-11-30 10:08:11 Terrasse 5.70 4.64 88.60
77207 2022-11-30 09:51:08 Bahnzimmer 19.40 18.74 51.60
77206 2022-11-30 09:39:42 Terrasse 5.70 4.64 88.50
77205 2022-11-30 09:21:08 Bahnzimmer 19.20 18.53 51.70
77204 2022-11-30 09:11:12 Terrasse 5.60 4.53 88.50
77203 2022-11-30 08:51:07 Bahnzimmer 19.30 18.65 52.10
77202 2022-11-30 08:42:42 Terrasse 5.40 4.30 88.40
77201 2022-11-30 08:21:06 Bahnzimmer 19.30 18.61 50.70
77200 2022-11-30 08:14:12 Terrasse 5.40 4.30 88.20
77199 2022-11-30 07:51:04 Bahnzimmer 19.40 18.75 51.70
77198 2022-11-30 07:45:50 Terrasse 5.30 4.19 88.20
77197 2022-11-30 07:21:03 Bahnzimmer 19.40 18.75 51.80
77196 2022-11-30 07:17:19 Terrasse 5.30 4.19 88.30
77195 2022-11-30 06:51:03 Bahnzimmer 19.30 18.64 51.90
77194 2022-11-30 06:48:49 Terrasse 5.30 4.20 88.50
77193 2022-11-30 06:21:02 Bahnzimmer 19.20 18.53 52.00
77192 2022-11-30 06:20:19 Terrasse 5.30 4.19 88.30
77191 2022-11-30 05:51:50 Terrasse 5.30 4.19 88.10
77190 2022-11-30 05:51:01 Bahnzimmer 19.10 18.42 52.00
77189 2022-11-30 05:23:22 Terrasse 5.00 3.85 87.80
77188 2022-11-30 05:21:01 Bahnzimmer 19.00 18.32 52.10
77187 2022-11-30 04:54:54 Terrasse 5.30 4.18 87.90
77186 2022-11-30 04:51:00 Bahnzimmer 18.60 17.89 52.60
77185 2022-11-30 04:26:24 Terrasse 5.30 4.17 87.50
77184 2022-11-30 04:20:59 Bahnzimmer 18.60 17.89 52.60
77183 2022-11-30 03:58:06 Terrasse 5.20 4.06 87.60
77182 2022-11-30 03:50:59 Bahnzimmer 18.60 17.89 52.60
77181 2022-11-30 03:29:08 Terrasse 5.20 4.06 87.50
77180 2022-11-30 03:20:58 Bahnzimmer 18.60 17.89 52.60
77179 2022-11-30 03:00:39 Terrasse 5.30 4.17 87.50
77178 2022-11-30 02:50:57 Bahnzimmer 18.70 18.00 52.50
77177 2022-11-30 02:32:10 Terrasse 5.10 3.95 87.40
77176 2022-11-30 02:20:57 Bahnzimmer 18.70 18.00 52.70
77175 2022-11-30 02:03:40 Terrasse 5.20 4.05 87.20
77174 2022-11-30 01:50:56 Bahnzimmer 18.70 18.00 52.60
77173 2022-11-30 01:35:11 Terrasse 5.00 3.82 86.80
77172 2022-11-30 01:20:55 Bahnzimmer 18.80 18.11 52.50
77171 2022-11-30 01:06:44 Terrasse 5.00 3.83 87.00
77170 2022-11-30 00:50:55 Bahnzimmer 18.80 18.11 52.50
77169 2022-11-30 00:38:15 Terrasse 5.00 3.82 86.70
77168 2022-11-30 00:20:54 Bahnzimmer 18.90 18.22 52.50
77167 2022-11-30 00:09:47 Terrasse 5.00 3.79 85.60
77166 2022-11-29 23:50:53 Bahnzimmer 19.10 18.43 52.40
77165 2022-11-29 23:41:18 Terrasse 5.10 3.91 86.00
77164 2022-11-29 23:20:53 Bahnzimmer 19.20 18.54 52.20
77163 2022-11-29 23:12:48 Terrasse 5.20 4.03 86.40
77162 2022-11-29 22:50:52 Bahnzimmer 19.30 18.64 52.00
77161 2022-11-29 22:44:20 Terrasse 5.20 4.04 86.90
77160 2022-11-29 22:20:51 Bahnzimmer 19.20 18.54 52.20
77159 2022-11-29 22:15:49 Terrasse 5.20 4.05 87.00
77158 2022-11-29 21:50:51 Bahnzimmer 19.30 18.64 52.00
77157 2022-11-29 21:47:18 Terrasse 5.10 3.94 87.00
77156 2022-11-29 21:20:50 Bahnzimmer 19.40 18.75 52.00
77155 2022-11-29 21:18:48 Terrasse 5.20 4.04 86.90
77154 2022-11-29 20:50:49 Bahnzimmer 19.30 18.65 52.10
77153 2022-11-29 20:50:18 Terrasse 5.30 4.14 86.40
77152 2022-11-29 20:21:49 Terrasse 5.50 4.34 85.50
77151 2022-11-29 20:20:49 Bahnzimmer 19.30 18.65 52.10
77150 2022-11-29 19:53:19 Terrasse 5.60 4.44 85.10
77149 2022-11-29 19:50:48 Bahnzimmer 19.50 18.86 51.70
77148 2022-11-29 19:24:50 Terrasse 5.70 4.53 84.60
77147 2022-11-29 19:20:47 Bahnzimmer 19.50 18.86 51.70
77146 2022-11-29 18:56:19 Terrasse 5.60 4.45 85.40
77145 2022-11-29 18:50:47 Bahnzimmer 19.40 18.75 51.70
77144 2022-11-29 18:27:50 Terrasse 5.80 4.68 86.10
77143 2022-11-29 18:20:46 Bahnzimmer 19.50 18.85 51.40
77142 2022-11-29 17:59:20 Terrasse 5.90 4.81 86.60
77141 2022-11-29 17:50:45 Bahnzimmer 19.30 18.61 50.90
77140 2022-11-29 17:30:49 Terrasse 6.00 4.91 86.30
77139 2022-11-29 17:20:45 Bahnzimmer 19.70 19.05 50.90
77138 2022-11-29 17:02:20 Terrasse 6.20 5.14 86.70
77137 2022-11-29 16:50:44 Bahnzimmer 19.70 19.04 50.50
77136 2022-11-29 16:33:53 Terrasse 6.50 5.49 87.60
77135 2022-11-29 16:20:43 Bahnzimmer 19.80 19.17 51.10
77134 2022-11-29 16:05:24 Terrasse 7.00 6.04 87.60
77133 2022-11-29 15:50:43 Bahnzimmer 19.60 18.94 50.60
77132 2022-11-29 15:36:54 Terrasse 7.00 6.05 87.80
77131 2022-11-29 15:20:42 Bahnzimmer 18.60 17.86 51.50
77130 2022-11-29 15:08:23 Terrasse 6.90 5.94 88.00
77129 2022-11-29 14:50:41 Bahnzimmer 19.70 19.08 52.00
77128 2022-11-29 14:39:52 Terrasse 7.00 6.04 87.50
77127 2022-11-29 14:20:41 Bahnzimmer 19.80 19.17 51.00
77126 2022-11-29 14:11:25 Terrasse 6.80 5.83 87.80
77125 2022-11-29 13:50:40 Bahnzimmer 19.90 19.26 50.30
77124 2022-11-29 13:42:56 Terrasse 6.80 5.83 87.80
77123 2022-11-29 13:20:39 Bahnzimmer 19.60 18.93 50.50
77122 2022-11-29 13:14:27 Terrasse 6.70 5.72 87.80
77121 2022-11-29 12:50:39 Bahnzimmer 19.30 18.62 51.30
77120 2022-11-29 12:45:59 Terrasse 6.90 5.94 87.70
77119 2022-11-29 12:20:38 Bahnzimmer 19.80 19.16 50.80
77118 2022-11-29 12:17:30 Terrasse 6.70 5.72 88.00
77117 2022-11-29 11:50:37 Bahnzimmer 19.50 18.84 51.10
77116 2022-11-29 11:48:59 Terrasse 6.30 5.30 88.60
77115 2022-11-29 11:20:37 Bahnzimmer 19.70 19.05 50.70
77114 2022-11-29 11:20:29 Terrasse 6.10 5.08 88.70
77113 2022-11-29 10:51:59 Terrasse 5.80 4.75 88.50
77112 2022-11-29 10:50:36 Bahnzimmer 19.70 19.03 49.80
77111 2022-11-29 10:23:28 Terrasse 5.60 4.53 88.70
77110 2022-11-29 10:20:35 Bahnzimmer 19.70 19.00 48.70
77109 2022-11-29 09:54:59 Terrasse 5.60 4.53 88.60
77108 2022-11-29 09:50:35 Bahnzimmer 19.70 19.02 49.40
77107 2022-11-29 09:26:30 Terrasse 5.30 4.19 88.40
77106 2022-11-29 09:20:34 Bahnzimmer 18.80 18.03 49.70
77105 2022-11-29 08:58:00 Terrasse 5.20 4.08 88.40
77104 2022-11-29 08:50:33 Bahnzimmer 19.70 19.06 51.10
77103 2022-11-29 08:29:32 Terrasse 5.10 3.97 88.30
77102 2022-11-29 08:20:33 Bahnzimmer 19.70 19.04 50.40
77101 2022-11-29 08:01:09 Terrasse 5.00 3.85 88.00
77100 2022-11-29 07:50:32 Bahnzimmer 19.50 18.82 50.20
77099 2022-11-29 07:32:39 Terrasse 5.00 3.85 87.90
77098 2022-11-29 07:20:31 Bahnzimmer 19.50 18.82 50.40
77097 2022-11-29 07:04:11 Terrasse 5.00 3.85 87.90
77096 2022-11-29 06:50:31 Bahnzimmer 19.40 18.71 50.40
77095 2022-11-29 06:35:45 Terrasse 5.00 3.85 87.80
77094 2022-11-29 06:20:30 Bahnzimmer 19.30 18.60 50.50
77093 2022-11-29 06:07:16 Terrasse 5.00 3.85 87.90
77092 2022-11-29 05:50:29 Bahnzimmer 19.30 18.60 50.40
77091 2022-11-29 05:38:48 Terrasse 5.10 3.96 88.00
77090 2022-11-29 05:20:29 Bahnzimmer 19.10 18.39 50.60
77089 2022-11-29 05:10:20 Terrasse 5.00 3.85 88.00
77088 2022-11-29 04:50:28 Bahnzimmer 18.70 17.95 50.90
77087 2022-11-29 04:41:53 Terrasse 5.00 3.85 87.90
77086 2022-11-29 04:20:27 Bahnzimmer 18.80 18.06 50.80
77085 2022-11-29 04:13:24 Terrasse 5.00 3.85 87.90
77084 2022-11-29 03:50:27 Bahnzimmer 18.70 17.95 50.90
77083 2022-11-29 03:44:56 Terrasse 5.00 3.85 87.90
77082 2022-11-29 03:20:26 Bahnzimmer 18.80 18.06 50.80
77081 2022-11-29 03:16:28 Terrasse 5.00 3.84 87.60
77080 2022-11-29 02:50:25 Bahnzimmer 18.80 18.06 50.80
77079 2022-11-29 02:47:59 Terrasse 5.00 3.85 87.70
77078 2022-11-29 02:20:25 Bahnzimmer 19.00 18.27 50.30
77077 2022-11-29 02:19:30 Terrasse 5.10 3.95 87.60
77076 2022-11-29 01:51:02 Terrasse 5.10 3.95 87.60
77075 2022-11-29 01:50:24 Bahnzimmer 19.10 18.37 50.10
77074 2022-11-29 01:22:33 Terrasse 5.10 3.95 87.50
77073 2022-11-29 01:20:23 Bahnzimmer 19.10 18.38 50.30
77072 2022-11-29 00:54:05 Terrasse 5.10 3.96 87.70
77071 2022-11-29 00:50:23 Bahnzimmer 19.30 18.60 50.40
77070 2022-11-29 00:25:37 Terrasse 5.20 4.06 87.60
77069 2022-11-29 00:20:22 Bahnzimmer 19.30 18.60 50.50
77068 2022-11-28 23:57:07 Terrasse 5.10 3.95 87.40
77067 2022-11-28 23:50:21 Bahnzimmer 19.50 18.82 50.20
77066 2022-11-28 23:28:37 Terrasse 5.10 3.94 87.20
77065 2022-11-28 23:20:21 Bahnzimmer 19.90 19.25 49.90
77064 2022-11-28 23:00:07 Terrasse 5.10 3.94 87.10
77063 2022-11-28 22:50:20 Bahnzimmer 19.80 19.14 49.80
77062 2022-11-28 22:31:37 Terrasse 5.10 3.94 87.10
77061 2022-11-28 22:20:19 Bahnzimmer 19.90 19.24 49.70
77060 2022-11-28 22:03:06 Terrasse 5.10 3.92 86.30
77059 2022-11-28 21:50:19 Bahnzimmer 19.90 19.24 49.60
77058 2022-11-28 21:34:35 Terrasse 5.00 3.82 86.70
77057 2022-11-28 21:20:18 Bahnzimmer 19.90 19.24 49.70
77056 2022-11-28 21:06:05 Terrasse 5.00 3.81 86.20
77055 2022-11-28 20:50:17 Bahnzimmer 19.90 19.24 49.60
77054 2022-11-28 20:37:35 Terrasse 5.00 3.80 85.90
77053 2022-11-28 20:20:17 Bahnzimmer 19.90 19.24 49.50
77052 2022-11-28 19:50:16 Bahnzimmer 19.90 19.24 49.60
77051 2022-11-28 19:37:56 Terrasse 4.90 3.68 85.60
77050 2022-11-28 19:20:15 Bahnzimmer 20.00 19.35 49.40
77049 2022-11-28 19:09:26 Terrasse 4.80 3.57 85.70
77048 2022-11-28 18:50:15 Bahnzimmer 19.70 19.01 49.10
77047 2022-11-28 18:40:59 Terrasse 4.70 3.48 86.30
77046 2022-11-28 18:20:14 Bahnzimmer 19.70 18.98 47.90
77045 2022-11-28 18:12:31 Terrasse 4.90 3.70 86.30
77044 2022-11-28 17:50:13 Bahnzimmer 19.70 19.00 48.70
77043 2022-11-28 17:44:02 Terrasse 4.70 3.48 86.30
77042 2022-11-28 17:20:13 Bahnzimmer 19.80 19.12 49.10
77041 2022-11-28 17:15:33 Terrasse 4.90 3.69 86.10
77040 2022-11-28 16:50:12 Bahnzimmer 19.90 19.22 48.90
77039 2022-11-28 16:47:03 Terrasse 4.70 3.47 85.90
77038 2022-11-28 16:20:11 Bahnzimmer 20.30 19.66 48.90
77037 2022-11-28 16:18:34 Terrasse 4.50 3.23 85.20
77036 2022-11-28 15:50:11 Bahnzimmer 20.20 19.53 48.10
77035 2022-11-28 15:50:07 Terrasse 4.50 3.21 84.30
77034 2022-11-28 15:21:38 Terrasse 4.50 3.19 83.70
77033 2022-11-28 15:20:10 Bahnzimmer 19.90 19.19 47.50
77032 2022-11-28 14:53:09 Terrasse 4.50 3.17 83.00
77031 2022-11-28 14:50:09 Bahnzimmer 20.00 19.32 48.50
77030 2022-11-28 14:24:39 Terrasse 4.50 3.14 81.80
77029 2022-11-28 14:20:09 Bahnzimmer 19.90 19.22 49.00
77028 2022-11-28 13:56:12 Terrasse 4.50 3.12 80.80
77027 2022-11-28 13:50:08 Bahnzimmer 20.00 19.33 48.70
77026 2022-11-28 13:27:43 Terrasse 4.60 3.24 81.20
77025 2022-11-28 13:20:07 Bahnzimmer 19.80 19.10 48.50
77024 2022-11-28 12:59:14 Terrasse 4.50 3.06 78.60
77023 2022-11-28 12:50:07 Bahnzimmer 19.90 19.22 48.80
77022 2022-11-28 12:30:46 Terrasse 4.50 2.99 76.10
77021 2022-11-28 12:20:06 Bahnzimmer 20.00 19.30 47.60
77020 2022-11-28 12:02:17 Terrasse 4.70 3.19 75.30
77019 2022-11-28 11:50:05 Bahnzimmer 19.90 19.16 46.40
77018 2022-11-28 11:33:48 Terrasse 4.40 2.86 75.40
77017 2022-11-28 11:20:05 Bahnzimmer 18.10 17.16 45.70
77016 2022-11-28 11:05:20 Terrasse 4.30 2.76 75.50
77015 2022-11-28 10:50:04 Bahnzimmer 19.80 19.15 50.50
77014 2022-11-28 10:36:49 Terrasse 3.90 2.33 76.10
77013 2022-11-28 10:20:03 Bahnzimmer 19.80 19.15 50.50
77012 2022-11-28 10:08:27 Terrasse 3.70 2.13 76.80
77011 2022-11-28 09:50:03 Bahnzimmer 19.70 19.03 50.10
77010 2022-11-28 09:39:54 Terrasse 3.50 1.96 78.60
77009 2022-11-28 09:20:02 Bahnzimmer 19.40 18.68 49.30
77008 2022-11-28 09:11:24 Terrasse 3.10 1.51 78.40
77007 2022-11-28 08:50:01 Bahnzimmer 19.40 18.72 50.70
77006 2022-11-28 08:42:55 Terrasse 3.00 1.39 78.00
77005 2022-11-28 08:20:01 Bahnzimmer 19.50 18.84 51.10
77004 2022-11-28 08:14:25 Terrasse 3.00 1.39 77.90
77003 2022-11-28 07:50:00 Bahnzimmer 19.50 18.81 50.10
77002 2022-11-28 07:45:57 Terrasse 3.00 1.39 77.80
77001 2022-11-28 07:19:59 Bahnzimmer 19.40 18.71 50.30
77000 2022-11-28 07:17:29 Terrasse 3.00 1.38 77.70
76999 2022-11-28 06:49:59 Bahnzimmer 19.30 18.60 50.40
76998 2022-11-28 06:49:00 Terrasse 3.00 1.37 77.10
76997 2022-11-28 06:20:32 Terrasse 3.20 1.59 77.20
76996 2022-11-28 06:19:58 Bahnzimmer 19.20 18.49 50.50
76995 2022-11-28 05:52:04 Terrasse 3.10 1.47 76.70
76994 2022-11-28 05:49:57 Bahnzimmer 19.00 18.28 50.80
76993 2022-11-28 05:23:36 Terrasse 3.10 1.46 76.50
76992 2022-11-28 05:19:57 Bahnzimmer 18.90 18.17 50.70
76991 2022-11-28 04:55:07 Terrasse 3.10 1.48 77.00
76990 2022-11-28 04:49:56 Bahnzimmer 18.50 17.74 51.20
76989 2022-11-28 04:26:39 Terrasse 3.30 1.69 76.60
76988 2022-11-28 04:19:55 Bahnzimmer 18.60 17.85 51.30
76987 2022-11-28 03:58:11 Terrasse 3.30 1.66 75.80
76986 2022-11-28 03:49:55 Bahnzimmer 18.50 17.75 51.40
76985 2022-11-28 03:29:42 Terrasse 3.50 1.88 75.70
76984 2022-11-28 03:19:54 Bahnzimmer 18.60 17.85 51.30
76983 2022-11-28 03:01:15 Terrasse 3.50 1.87 75.40
76982 2022-11-28 02:49:53 Bahnzimmer 18.60 17.85 51.20
76981 2022-11-28 02:32:46 Terrasse 3.40 1.77 75.80
76980 2022-11-28 02:19:53 Bahnzimmer 18.60 17.85 51.30
76979 2022-11-28 02:04:19 Terrasse 3.50 1.88 75.80
76978 2022-11-28 01:49:52 Bahnzimmer 18.60 17.86 51.50
76977 2022-11-28 01:35:52 Terrasse 3.70 2.10 75.60
76976 2022-11-28 01:19:51 Bahnzimmer 18.70 17.97 51.40
76975 2022-11-28 01:07:24 Terrasse 3.70 2.11 75.90
76974 2022-11-28 00:49:51 Bahnzimmer 18.70 17.97 51.50
76973 2022-11-28 00:38:57 Terrasse 3.90 2.31 75.30
76972 2022-11-28 00:19:50 Bahnzimmer 18.80 18.08 51.60
76971 2022-11-28 00:10:29 Terrasse 4.00 2.44 75.90
76970 2022-11-27 23:49:49 Bahnzimmer 19.00 18.30 51.50
76969 2022-11-27 23:42:01 Terrasse 4.10 2.54 75.60
76968 2022-11-27 23:19:49 Bahnzimmer 19.10 18.40 51.20
76967 2022-11-27 23:13:34 Terrasse 4.20 2.66 75.90
76966 2022-11-27 22:49:48 Bahnzimmer 19.10 18.41 51.40
76965 2022-11-27 22:45:06 Terrasse 4.30 2.76 75.70
76964 2022-11-27 22:19:47 Bahnzimmer 19.00 18.30 51.60
76963 2022-11-27 22:16:39 Terrasse 4.50 2.99 76.10
76962 2022-11-27 21:49:47 Bahnzimmer 19.10 18.41 51.40
76961 2022-11-27 21:48:11 Terrasse 4.70 3.22 76.40
76960 2022-11-27 21:19:46 Bahnzimmer 19.00 18.30 51.50
76959 2022-11-27 21:19:44 Terrasse 4.70 3.22 76.40
76958 2022-11-27 20:51:16 Terrasse 4.90 3.43 76.10
76957 2022-11-27 20:49:45 Bahnzimmer 19.00 18.30 51.50
76956 2022-11-27 20:22:48 Terrasse 5.00 3.56 76.90
76955 2022-11-27 20:19:45 Bahnzimmer 19.00 18.30 51.50
76954 2022-11-27 19:54:20 Terrasse 5.00 3.55 76.40
76953 2022-11-27 19:49:44 Bahnzimmer 19.10 18.41 51.40
76952 2022-11-27 19:25:52 Terrasse 5.20 3.77 76.40
76951 2022-11-27 19:19:43 Bahnzimmer 19.10 18.41 51.50
76950 2022-11-27 18:57:24 Terrasse 5.30 3.88 76.40
76949 2022-11-27 18:49:43 Bahnzimmer 19.10 18.41 51.40
76948 2022-11-27 18:28:56 Terrasse 5.50 4.09 75.90
76947 2022-11-27 18:19:42 Bahnzimmer 19.20 18.51 51.30
76946 2022-11-27 18:00:28 Terrasse 5.60 4.19 75.60
76945 2022-11-27 17:49:41 Bahnzimmer 19.10 18.41 51.60
76944 2022-11-27 17:32:01 Terrasse 5.70 4.29 75.30
76943 2022-11-27 17:19:41 Bahnzimmer 19.10 18.41 51.60
76942 2022-11-27 17:03:34 Terrasse 5.80 4.41 75.60
76941 2022-11-27 16:49:40 Bahnzimmer 19.20 18.52 51.50
76940 2022-11-27 16:35:06 Terrasse 6.00 4.60 74.40
76939 2022-11-27 16:19:39 Bahnzimmer 19.10 18.41 51.50
76938 2022-11-27 16:06:39 Terrasse 6.10 4.70 74.20
76937 2022-11-27 15:49:39 Bahnzimmer 19.10 18.41 51.50
76936 2022-11-27 15:38:13 Terrasse 6.50 5.09 72.20
76935 2022-11-27 15:19:38 Bahnzimmer 19.10 18.41 51.60
76934 2022-11-27 15:09:47 Terrasse 7.00 5.60 70.70
76933 2022-11-27 14:49:37 Bahnzimmer 19.10 18.42 51.80
76932 2022-11-27 14:41:20 Terrasse 7.20 5.77 68.90
76931 2022-11-27 14:19:36 Bahnzimmer 19.20 18.53 51.80
76930 2022-11-27 14:12:54 Terrasse 7.60 6.15 66.40
76929 2022-11-27 13:49:36 Bahnzimmer 19.20 18.53 52.00
76928 2022-11-27 13:44:26 Terrasse 7.60 6.20 68.20
76927 2022-11-27 13:19:35 Bahnzimmer 19.20 18.53 51.80
76926 2022-11-27 13:15:58 Terrasse 7.40 6.03 70.40
76925 2022-11-27 12:49:35 Bahnzimmer 19.30 18.64 51.80
76924 2022-11-27 12:47:27 Terrasse 7.00 5.63 71.60
76923 2022-11-27 12:19:34 Bahnzimmer 19.30 18.64 52.00
76922 2022-11-27 12:18:57 Terrasse 6.60 5.24 73.80
76921 2022-11-27 11:50:31 Terrasse 6.70 5.38 74.80
76920 2022-11-27 11:49:33 Bahnzimmer 19.40 18.76 52.10
76919 2022-11-27 11:21:58 Terrasse 6.30 5.02 77.80
76918 2022-11-27 11:19:33 Bahnzimmer 19.60 18.97 52.00
76917 2022-11-27 10:53:23 Terrasse 5.50 4.21 80.50
76916 2022-11-27 10:49:32 Bahnzimmer 19.70 19.09 52.10
76915 2022-11-27 10:24:53 Terrasse 5.20 3.89 81.00
76914 2022-11-27 10:19:31 Bahnzimmer 20.00 19.42 52.10
76913 2022-11-27 09:56:21 Terrasse 4.60 3.24 81.50
76912 2022-11-27 09:49:31 Bahnzimmer 19.80 19.19 51.80
76911 2022-11-27 09:27:51 Terrasse 4.20 2.83 82.70
76910 2022-11-27 09:19:30 Bahnzimmer 19.70 19.07 51.40
76909 2022-11-27 08:59:19 Terrasse 3.70 2.28 82.70
76908 2022-11-27 08:49:29 Bahnzimmer 19.40 18.73 51.20
76907 2022-11-27 08:30:51 Terrasse 3.60 2.17 82.50
76906 2022-11-27 08:19:28 Bahnzimmer 19.30 18.62 51.30
76905 2022-11-27 08:02:24 Terrasse 3.60 2.18 82.80
76904 2022-11-27 07:49:28 Bahnzimmer 19.10 18.41 51.50
76903 2022-11-27 07:33:56 Terrasse 3.80 2.39 82.40
76902 2022-11-27 07:19:27 Bahnzimmer 19.00 18.30 51.50
76901 2022-11-27 07:05:28 Terrasse 4.00 2.61 82.40
76900 2022-11-27 06:49:26 Bahnzimmer 18.80 18.08 51.60
76899 2022-11-27 06:37:01 Terrasse 4.20 2.82 82.10
76898 2022-11-27 06:19:26 Bahnzimmer 18.40 17.66 52.20
76897 2022-11-27 06:08:34 Terrasse 4.30 2.92 81.70
76896 2022-11-27 05:49:25 Bahnzimmer 18.50 17.77 52.20
76895 2022-11-27 05:40:08 Terrasse 4.50 3.14 81.60
76894 2022-11-27 05:19:24 Bahnzimmer 18.50 17.77 52.10
76893 2022-11-27 05:11:40 Terrasse 4.50 3.13 81.20
76892 2022-11-27 04:49:24 Bahnzimmer 18.50 17.77 52.10
76891 2022-11-27 04:43:12 Terrasse 4.70 3.34 80.80
76890 2022-11-27 04:19:23 Bahnzimmer 18.50 17.77 52.20
76889 2022-11-27 04:14:45 Terrasse 4.60 3.22 80.60
76888 2022-11-27 03:49:22 Bahnzimmer 18.60 17.88 52.20
76887 2022-11-27 03:46:17 Terrasse 4.60 3.23 81.00
76886 2022-11-27 03:19:22 Bahnzimmer 18.50 17.77 52.30
76885 2022-11-27 03:17:49 Terrasse 4.50 3.10 80.10
76884 2022-11-27 02:49:21 Terrasse 4.50 3.08 79.30
76883 2022-11-27 02:49:21 Bahnzimmer 18.60 17.88 52.20
76882 2022-11-27 02:20:52 Terrasse 4.60 3.17 78.70
76881 2022-11-27 02:19:20 Bahnzimmer 18.60 17.88 52.10
76880 2022-11-27 01:52:25 Terrasse 4.50 3.06 78.60
76879 2022-11-27 01:49:20 Bahnzimmer 18.70 17.99 52.20
76878 2022-11-27 01:23:57 Terrasse 4.70 3.28 78.50
76877 2022-11-27 01:19:19 Bahnzimmer 18.70 17.99 52.20
76876 2022-11-27 00:55:30 Terrasse 4.70 3.30 79.30
76875 2022-11-27 00:49:18 Bahnzimmer 18.80 18.10 52.20
76874 2022-11-27 00:27:03 Terrasse 4.70 3.26 78.10
76873 2022-11-27 00:19:18 Bahnzimmer 18.90 18.21 52.30
76872 2022-11-26 23:58:37 Terrasse 4.90 3.54 80.30
76871 2022-11-26 23:49:17 Bahnzimmer 19.10 18.43 52.10
76870 2022-11-26 23:30:11 Terrasse 4.90 3.56 81.00
76869 2022-11-26 23:19:16 Bahnzimmer 19.30 18.64 51.80
76868 2022-11-26 23:01:45 Terrasse 4.70 3.32 80.20
76867 2022-11-26 22:49:16 Bahnzimmer 19.30 18.64 51.90
76866 2022-11-26 22:33:19 Terrasse 4.80 3.43 80.40
76865 2022-11-26 22:19:15 Bahnzimmer 19.20 18.54 52.10
76864 2022-11-26 22:04:54 Terrasse 4.90 3.52 79.60
76863 2022-11-26 21:49:14 Bahnzimmer 19.30 18.64 51.90
76862 2022-11-26 21:36:28 Terrasse 4.90 3.52 79.50
76861 2022-11-26 21:19:14 Bahnzimmer 19.40 18.75 52.00
76860 2022-11-26 21:08:02 Terrasse 4.90 3.51 79.20
76859 2022-11-26 20:49:13 Bahnzimmer 19.40 18.76 52.10
76858 2022-11-26 20:39:37 Terrasse 4.90 3.51 79.20
76857 2022-11-26 20:19:12 Bahnzimmer 19.60 18.97 51.90
76856 2022-11-26 20:11:13 Terrasse 5.00 3.62 79.00
76855 2022-11-26 19:49:12 Bahnzimmer 19.60 18.98 52.30
76854 2022-11-26 19:42:47 Terrasse 5.00 3.62 79.10
76853 2022-11-26 19:19:11 Bahnzimmer 19.70 19.08 52.00
76852 2022-11-26 19:14:21 Terrasse 5.00 3.65 80.10
76851 2022-11-26 18:49:10 Bahnzimmer 19.50 18.86 51.90
76850 2022-11-26 18:45:57 Terrasse 5.10 3.77 80.60
76849 2022-11-26 18:19:10 Bahnzimmer 19.00 18.31 51.70
76848 2022-11-26 18:17:32 Terrasse 5.30 4.00 81.00
76847 2022-11-26 17:49:09 Bahnzimmer 18.80 18.09 51.80
76846 2022-11-26 17:49:07 Terrasse 5.30 4.00 80.80
76845 2022-11-26 17:20:42 Terrasse 5.50 4.22 80.80
76844 2022-11-26 17:19:09 Bahnzimmer 18.60 17.87 52.00
76843 2022-11-26 16:52:16 Terrasse 5.50 4.20 80.40
76842 2022-11-26 16:49:08 Bahnzimmer 18.50 17.77 52.20
76841 2022-11-26 16:23:51 Terrasse 5.50 4.23 81.30
76840 2022-11-26 16:19:07 Bahnzimmer 18.60 17.88 52.20
76839 2022-11-26 15:55:24 Terrasse 5.70 4.42 80.30
76838 2022-11-26 15:49:06 Bahnzimmer 18.50 17.77 52.30
76837 2022-11-26 15:27:00 Terrasse 5.90 4.62 79.40
76836 2022-11-26 15:19:06 Bahnzimmer 18.50 17.78 52.50
76835 2022-11-26 14:58:36 Terrasse 6.20 4.91 77.80
76834 2022-11-26 14:49:05 Bahnzimmer 18.50 17.78 52.70
76833 2022-11-26 14:30:15 Terrasse 7.20 5.92 74.50
76832 2022-11-26 14:19:04 Bahnzimmer 18.50 17.78 52.60
76831 2022-11-26 14:02:00 Terrasse 9.20 8.03 71.00
76830 2022-11-26 13:49:04 Bahnzimmer 18.50 17.78 52.70
76829 2022-11-26 13:33:33 Terrasse 9.40 8.30 72.80
76828 2022-11-26 13:19:03 Bahnzimmer 18.70 17.99 52.30
76827 2022-11-26 13:05:06 Terrasse 9.40 8.32 73.80
76826 2022-11-26 12:49:02 Bahnzimmer 18.50 17.76 51.70
76825 2022-11-26 12:36:34 Terrasse 8.80 7.73 76.30
76824 2022-11-26 12:19:02 Bahnzimmer 18.60 17.88 52.30
76823 2022-11-26 12:08:07 Terrasse 8.50 7.38 75.70
76822 2022-11-26 11:49:01 Bahnzimmer 18.60 17.87 51.90
76821 2022-11-26 11:39:37 Terrasse 8.20 7.11 77.80
76820 2022-11-26 11:19:00 Bahnzimmer 18.60 17.86 51.60
76819 2022-11-26 11:11:04 Terrasse 7.40 6.31 80.80
76818 2022-11-26 10:49:00 Bahnzimmer 18.60 17.85 51.10
76817 2022-11-26 10:42:30 Terrasse 6.40 5.30 84.30
76816 2022-11-26 10:18:59 Bahnzimmer 18.90 18.22 52.70
76815 2022-11-26 10:13:58 Terrasse 5.40 4.23 85.50
76814 2022-11-26 09:48:58 Bahnzimmer 19.10 18.44 52.80
76813 2022-11-26 09:45:29 Terrasse 5.00 3.80 86.10
76812 2022-11-26 09:18:58 Bahnzimmer 19.00 18.31 52.00
76811 2022-11-26 09:17:00 Terrasse 4.40 3.12 85.10
76810 2022-11-26 08:48:57 Bahnzimmer 18.90 18.21 52.20
76809 2022-11-26 08:48:34 Terrasse 4.40 3.16 86.60
76808 2022-11-26 08:20:07 Terrasse 4.10 2.82 86.40
76807 2022-11-26 08:18:56 Bahnzimmer 18.90 18.21 52.20
76806 2022-11-26 07:51:40 Terrasse 3.90 2.57 85.30
76805 2022-11-26 07:48:56 Bahnzimmer 18.90 18.21 52.20
76804 2022-11-26 07:23:13 Terrasse 3.60 2.18 83.00
76803 2022-11-26 07:18:55 Bahnzimmer 19.00 18.32 52.10
76802 2022-11-26 06:54:49 Terrasse 3.60 2.15 81.90
76801 2022-11-26 06:48:54 Bahnzimmer 18.90 18.21 52.10
76800 2022-11-26 06:26:24 Terrasse 3.90 2.49 82.20
76799 2022-11-26 06:18:54 Bahnzimmer 18.60 17.89 52.60
76798 2022-11-26 05:58:01 Terrasse 4.40 3.05 82.70
76797 2022-11-26 05:48:53 Bahnzimmer 18.60 17.89 52.50
76796 2022-11-26 05:29:37 Terrasse 4.90 3.63 83.80
76795 2022-11-26 05:18:52 Bahnzimmer 18.60 17.89 52.60
76794 2022-11-26 05:01:13 Terrasse 5.10 3.89 85.10
76793 2022-11-26 04:48:52 Bahnzimmer 18.60 17.89 52.70
76792 2022-11-26 04:32:48 Terrasse 5.10 3.87 84.50
76791 2022-11-26 04:18:51 Bahnzimmer 18.60 17.89 52.60
76790 2022-11-26 04:04:23 Terrasse 5.30 4.11 85.30
76789 2022-11-26 03:48:50 Bahnzimmer 18.60 17.89 52.70
76788 2022-11-26 03:35:57 Terrasse 5.30 4.13 86.00
76787 2022-11-26 03:18:50 Bahnzimmer 18.60 17.89 52.70
76786 2022-11-26 03:07:30 Terrasse 5.10 3.91 85.80
76785 2022-11-26 02:48:49 Bahnzimmer 18.60 17.89 52.60
76784 2022-11-26 02:39:04 Terrasse 5.00 3.76 84.60
76783 2022-11-26 02:18:48 Bahnzimmer 18.80 18.09 51.80
76782 2022-11-26 02:10:39 Terrasse 5.10 3.89 85.10
76781 2022-11-26 01:48:48 Bahnzimmer 18.90 18.20 52.00
76780 2022-11-26 01:42:13 Terrasse 5.20 4.01 85.50
76779 2022-11-26 01:18:47 Bahnzimmer 18.90 18.21 52.10
76778 2022-11-26 01:13:48 Terrasse 5.20 4.00 85.30
76777 2022-11-26 00:48:47 Bahnzimmer 18.80 18.11 52.80
76776 2022-11-26 00:45:24 Terrasse 5.20 4.01 85.60
76775 2022-11-26 00:18:46 Bahnzimmer 18.90 18.23 52.90
76774 2022-11-26 00:16:59 Terrasse 5.20 3.99 85.00
76773 2022-11-25 23:48:45 Bahnzimmer 19.00 18.33 52.60
76772 2022-11-25 23:48:31 Terrasse 5.20 3.99 85.00
76771 2022-11-25 23:20:05 Terrasse 5.30 4.11 85.30
76770 2022-11-25 23:18:45 Bahnzimmer 19.00 18.33 52.80
76769 2022-11-25 22:51:40 Terrasse 5.30 4.10 84.80
76768 2022-11-25 22:48:44 Bahnzimmer 19.00 18.33 52.70
76767 2022-11-25 22:23:11 Terrasse 5.50 4.32 84.70
76766 2022-11-25 22:18:43 Bahnzimmer 19.10 18.44 52.80
76765 2022-11-25 21:54:46 Terrasse 5.60 4.42 84.40
76764 2022-11-25 21:48:43 Bahnzimmer 19.10 18.44 52.70
76763 2022-11-25 21:26:20 Terrasse 5.80 4.65 84.90
76762 2022-11-25 21:18:42 Bahnzimmer 19.10 18.44 52.70
76761 2022-11-25 20:57:58 Terrasse 6.00 4.89 85.40
76760 2022-11-25 20:48:41 Bahnzimmer 19.00 18.33 52.80
76759 2022-11-25 20:29:28 Terrasse 6.10 5.00 85.60
76758 2022-11-25 20:18:41 Bahnzimmer 19.00 18.34 52.90
76757 2022-11-25 20:01:02 Terrasse 6.10 5.00 85.40
76756 2022-11-25 19:48:40 Bahnzimmer 19.00 18.33 52.80
76755 2022-11-25 19:32:34 Terrasse 6.40 5.34 86.00
76754 2022-11-25 19:18:39 Bahnzimmer 19.00 18.34 52.90
76753 2022-11-25 19:04:07 Terrasse 6.30 5.22 85.60
76752 2022-11-25 18:48:39 Bahnzimmer 19.00 18.34 52.90
76751 2022-11-25 18:35:40 Terrasse 6.30 5.19 84.40
76750 2022-11-25 18:18:38 Bahnzimmer 19.10 18.45 52.90
76749 2022-11-25 18:07:14 Terrasse 6.50 5.41 84.40
76748 2022-11-25 17:48:37 Bahnzimmer 19.10 18.44 52.80
76747 2022-11-25 17:38:48 Terrasse 6.60 5.51 84.10
76746 2022-11-25 17:18:36 Bahnzimmer 19.20 18.56 53.00
76745 2022-11-25 17:10:21 Terrasse 6.70 5.60 83.40
76744 2022-11-25 16:48:36 Bahnzimmer 19.40 18.78 52.90
76743 2022-11-25 16:41:55 Terrasse 7.00 5.92 82.80
76742 2022-11-25 16:18:35 Bahnzimmer 19.70 19.09 52.40
76741 2022-11-25 16:13:31 Terrasse 7.40 6.35 82.60
76740 2022-11-25 15:48:34 Bahnzimmer 19.60 18.98 52.10
76739 2022-11-25 15:45:05 Terrasse 7.50 6.43 81.50
76738 2022-11-25 15:18:34 Bahnzimmer 19.50 18.88 52.70
76737 2022-11-25 15:16:36 Terrasse 7.50 6.44 81.70
76736 2022-11-25 14:48:33 Bahnzimmer 19.70 19.07 51.50
76735 2022-11-25 14:48:10 Terrasse 7.50 6.43 81.50
76734 2022-11-25 14:19:42 Terrasse 7.50 6.42 80.80
76733 2022-11-25 14:18:32 Bahnzimmer 19.40 18.74 51.60
76732 2022-11-25 13:51:16 Terrasse 7.60 6.51 80.20
76731 2022-11-25 13:48:32 Bahnzimmer 19.30 18.64 52.00
76730 2022-11-25 13:22:52 Terrasse 7.90 6.84 80.30
76729 2022-11-25 13:18:31 Bahnzimmer 19.50 18.86 51.70
76728 2022-11-25 12:54:18 Terrasse 7.20 6.13 82.70
76727 2022-11-25 12:48:30 Bahnzimmer 19.30 18.64 52.00
76726 2022-11-25 12:25:50 Terrasse 6.70 5.57 82.20
76725 2022-11-25 12:18:29 Bahnzimmer 19.50 18.85 51.50
76724 2022-11-25 11:57:20 Terrasse 6.40 5.25 82.60
76723 2022-11-25 11:48:29 Bahnzimmer 19.30 18.64 51.70
76722 2022-11-25 11:28:51 Terrasse 5.90 4.71 83.00
76721 2022-11-25 11:18:28 Bahnzimmer 19.50 18.83 50.90
76720 2022-11-25 11:00:20 Terrasse 5.50 4.32 84.80
76719 2022-11-25 10:48:27 Bahnzimmer 19.50 18.84 51.10
76718 2022-11-25 10:31:52 Terrasse 5.30 4.10 85.00
76717 2022-11-25 10:18:27 Bahnzimmer 19.10 18.40 51.10
76716 2022-11-25 10:03:24 Terrasse 5.00 3.77 84.80
76715 2022-11-25 09:48:26 Bahnzimmer 18.90 18.17 50.90
76714 2022-11-25 09:34:57 Terrasse 5.00 3.75 84.20
76713 2022-11-25 09:18:25 Bahnzimmer 18.90 18.17 50.80
76712 2022-11-25 09:06:29 Terrasse 5.00 3.74 83.70
76711 2022-11-25 08:48:25 Bahnzimmer 18.90 18.17 50.80
76710 2022-11-25 08:38:02 Terrasse 4.90 3.62 83.20
76709 2022-11-25 08:18:24 Bahnzimmer 19.00 18.28 50.80
76708 2022-11-25 08:09:34 Terrasse 4.90 3.63 83.70
76707 2022-11-25 07:48:23 Bahnzimmer 19.00 18.26 50.00
76706 2022-11-25 07:41:07 Terrasse 4.90 3.62 83.20
76705 2022-11-25 07:18:23 Bahnzimmer 18.20 17.38 49.80
76704 2022-11-25 07:12:39 Terrasse 4.90 3.62 83.30
76703 2022-11-25 06:48:22 Bahnzimmer 19.00 18.30 51.60
76702 2022-11-25 06:44:12 Terrasse 4.80 3.51 83.20
76701 2022-11-25 06:18:21 Bahnzimmer 19.00 18.30 51.50
76700 2022-11-25 06:15:45 Terrasse 4.90 3.63 83.50
76699 2022-11-25 05:48:21 Bahnzimmer 19.20 18.51 51.30
76698 2022-11-25 05:47:17 Terrasse 4.70 3.43 84.40
76697 2022-11-25 05:18:50 Terrasse 4.90 3.65 84.50
76696 2022-11-25 05:18:20 Bahnzimmer 19.10 18.40 51.20
76695 2022-11-25 04:50:22 Terrasse 4.70 3.44 84.70
76694 2022-11-25 04:48:20 Bahnzimmer 18.70 17.97 51.60
76693 2022-11-25 04:21:55 Terrasse 4.70 3.42 84.10
76692 2022-11-25 04:18:19 Bahnzimmer 18.80 18.08 51.60
76691 2022-11-25 03:53:28 Terrasse 4.70 3.42 84.00
76690 2022-11-25 03:48:18 Bahnzimmer 18.80 18.08 51.60
76689 2022-11-25 03:25:00 Terrasse 4.80 3.55 85.00
76688 2022-11-25 03:18:18 Bahnzimmer 18.80 18.08 51.50
76687 2022-11-25 02:56:32 Terrasse 4.70 3.44 85.00
76686 2022-11-25 02:48:17 Bahnzimmer 18.90 18.19 51.50
76685 2022-11-25 02:28:04 Terrasse 4.70 3.44 85.00
76684 2022-11-25 02:18:16 Bahnzimmer 18.80 18.08 51.50
76683 2022-11-25 01:59:37 Terrasse 4.50 3.21 84.50
76682 2022-11-25 01:48:16 Bahnzimmer 18.90 18.19 51.40
76681 2022-11-25 01:31:08 Terrasse 4.40 3.08 83.80
76680 2022-11-25 01:18:15 Bahnzimmer 18.80 18.08 51.50
76679 2022-11-25 01:02:41 Terrasse 4.20 2.83 82.60
76678 2022-11-25 00:48:14 Bahnzimmer 19.00 18.29 51.20
76677 2022-11-25 00:34:16 Terrasse 4.40 3.03 81.90
76676 2022-11-25 00:18:14 Bahnzimmer 19.00 18.29 51.30
76675 2022-11-25 00:05:52 Terrasse 4.50 3.13 81.50
76674 2022-11-24 23:48:13 Bahnzimmer 19.10 18.41 51.40
76673 2022-11-24 23:37:27 Terrasse 4.90 3.60 82.50
76672 2022-11-24 23:18:12 Bahnzimmer 19.20 18.51 51.20
76671 2022-11-24 23:09:01 Terrasse 5.10 3.86 84.10
76670 2022-11-24 22:48:12 Bahnzimmer 19.10 18.40 51.30
76669 2022-11-24 22:40:33 Terrasse 5.00 3.75 83.90
76668 2022-11-24 22:18:11 Bahnzimmer 19.10 18.41 51.40
76667 2022-11-24 22:12:06 Terrasse 4.90 3.63 83.80
76666 2022-11-24 21:48:10 Bahnzimmer 19.20 18.51 51.20
76665 2022-11-24 21:43:38 Terrasse 4.70 3.39 82.90
76664 2022-11-24 21:18:10 Bahnzimmer 19.20 18.51 51.10
76663 2022-11-24 21:15:10 Terrasse 4.50 3.13 81.50
76662 2022-11-24 20:48:09 Bahnzimmer 19.20 18.51 51.10
76661 2022-11-24 20:46:45 Terrasse 4.70 3.35 81.30
76660 2022-11-24 20:18:19 Terrasse 4.90 3.58 81.80
76659 2022-11-24 20:18:08 Bahnzimmer 19.30 18.61 50.80
76658 2022-11-24 19:49:51 Terrasse 4.70 3.36 81.60
76657 2022-11-24 19:48:08 Bahnzimmer 19.40 18.72 50.60
76656 2022-11-24 19:21:24 Terrasse 4.60 3.19 79.60
76655 2022-11-24 19:18:07 Bahnzimmer 19.50 18.82 50.20
76654 2022-11-24 18:52:59 Terrasse 5.00 3.61 78.60
76653 2022-11-24 18:48:06 Bahnzimmer 19.50 18.78 48.70
76652 2022-11-24 18:24:34 Terrasse 5.20 3.82 78.40
76651 2022-11-24 18:18:06 Bahnzimmer 20.00 19.37 50.40
76650 2022-11-24 17:56:10 Terrasse 5.60 4.25 78.00
76649 2022-11-24 17:48:05 Bahnzimmer 20.10 19.51 51.60
76648 2022-11-24 17:27:45 Terrasse 6.10 4.77 76.80
76647 2022-11-24 17:18:04 Bahnzimmer 20.20 19.62 51.60
76646 2022-11-24 16:59:24 Terrasse 7.00 5.73 75.50
76645 2022-11-24 16:48:04 Bahnzimmer 20.30 19.74 51.70
76644 2022-11-24 16:31:03 Terrasse 8.10 6.83 71.30
76643 2022-11-24 16:18:03 Bahnzimmer 20.70 20.15 50.80
76642 2022-11-24 16:02:42 Terrasse 8.90 7.62 68.10
76641 2022-11-24 15:48:02 Bahnzimmer 20.60 20.03 50.30
76640 2022-11-24 15:34:25 Terrasse 10.20 8.98 65.40
76639 2022-11-24 15:18:01 Bahnzimmer 20.60 20.04 50.60
76638 2022-11-24 15:05:50 Terrasse 9.20 7.96 68.20
76637 2022-11-24 14:48:01 Bahnzimmer 20.40 19.80 50.10
76636 2022-11-24 14:37:23 Terrasse 8.80 7.56 70.00
76635 2022-11-24 14:18:00 Bahnzimmer 20.10 19.49 50.60
76634 2022-11-24 14:08:56 Terrasse 9.00 7.81 71.10
76633 2022-11-24 13:47:59 Bahnzimmer 20.20 19.60 50.70
76632 2022-11-24 13:40:38 Terrasse 9.30 8.14 70.90
76631 2022-11-24 13:17:59 Bahnzimmer 20.40 19.80 50.00
76630 2022-11-24 13:11:58 Terrasse 8.10 6.91 74.40
76629 2022-11-24 12:47:58 Bahnzimmer 20.30 19.67 49.30
76628 2022-11-24 12:43:34 Terrasse 8.10 7.05 79.80
76627 2022-11-24 12:17:57 Bahnzimmer 18.50 17.71 50.00
76626 2022-11-24 12:14:59 Terrasse 7.50 6.52 85.00
76625 2022-11-24 11:47:57 Bahnzimmer 20.70 20.16 51.00
76624 2022-11-24 11:46:31 Terrasse 7.00 6.00 86.00
76623 2022-11-24 11:18:03 Terrasse 6.80 5.81 87.00
76622 2022-11-24 11:17:56 Bahnzimmer 20.30 19.72 51.20
76621 2022-11-24 10:49:34 Terrasse 6.50 5.49 87.50
76620 2022-11-24 10:47:55 Bahnzimmer 20.30 19.71 50.70
76619 2022-11-24 10:21:07 Terrasse 6.30 5.28 87.70
76618 2022-11-24 10:17:55 Bahnzimmer 19.50 18.85 51.40
76617 2022-11-24 09:52:36 Terrasse 6.00 4.96 88.30
76616 2022-11-24 09:47:54 Bahnzimmer 19.60 18.94 50.80
76615 2022-11-24 09:24:09 Terrasse 5.80 4.75 88.50
76614 2022-11-24 09:17:53 Bahnzimmer 19.90 19.26 50.20
76613 2022-11-24 08:55:41 Terrasse 5.70 4.64 88.50
76612 2022-11-24 08:47:53 Bahnzimmer 19.90 19.27 50.90
76611 2022-11-24 08:27:15 Terrasse 5.60 4.52 88.40
76610 2022-11-24 08:17:52 Bahnzimmer 19.80 19.15 50.40
76609 2022-11-24 07:58:48 Terrasse 5.50 4.41 88.40
76608 2022-11-24 07:47:51 Bahnzimmer 19.50 18.80 49.60
76607 2022-11-24 07:30:21 Terrasse 5.50 4.41 88.40
76606 2022-11-24 07:17:51 Bahnzimmer 18.70 17.88 48.20
76605 2022-11-24 07:01:54 Terrasse 5.40 4.30 88.40
76604 2022-11-24 06:47:50 Bahnzimmer 19.70 19.05 50.80
76603 2022-11-24 06:33:27 Terrasse 5.50 4.42 88.50
76602 2022-11-24 06:17:49 Bahnzimmer 19.50 18.83 50.90
76601 2022-11-24 06:04:59 Terrasse 5.30 4.19 88.20
76600 2022-11-24 05:47:49 Bahnzimmer 19.50 18.83 50.90
76599 2022-11-24 05:36:32 Terrasse 5.00 3.85 87.90
76598 2022-11-24 05:17:48 Bahnzimmer 19.30 18.61 50.90
76597 2022-11-24 05:08:05 Terrasse 5.00 3.84 87.50
76596 2022-11-24 04:47:47 Bahnzimmer 19.00 18.30 51.40
76595 2022-11-24 04:39:38 Terrasse 5.00 3.85 87.70
76594 2022-11-24 04:17:47 Bahnzimmer 18.90 18.19 51.50
76593 2022-11-24 04:11:11 Terrasse 5.00 3.84 87.30
76592 2022-11-24 03:47:46 Bahnzimmer 19.00 18.29 51.20
76591 2022-11-24 03:42:45 Terrasse 5.00 3.82 86.70
76590 2022-11-24 03:17:45 Bahnzimmer 19.00 18.29 51.30
76589 2022-11-24 03:14:18 Terrasse 5.00 3.82 86.80
76588 2022-11-24 02:47:45 Bahnzimmer 19.00 18.29 51.30
76587 2022-11-24 02:45:52 Terrasse 4.90 3.71 86.80
76586 2022-11-24 02:17:44 Bahnzimmer 19.00 18.29 51.20
76585 2022-11-24 02:17:26 Terrasse 4.90 3.71 86.60
76584 2022-11-24 01:48:58 Terrasse 4.90 3.70 86.50
76583 2022-11-24 01:47:43 Bahnzimmer 19.10 18.40 51.00
76582 2022-11-24 01:20:30 Terrasse 4.80 3.59 86.20
76581 2022-11-24 01:17:43 Bahnzimmer 19.20 18.50 50.80
76580 2022-11-24 00:52:03 Terrasse 4.70 3.47 86.00
76579 2022-11-24 00:47:42 Bahnzimmer 19.30 18.61 50.80
76578 2022-11-24 00:23:37 Terrasse 4.60 3.34 85.20
76577 2022-11-24 00:17:41 Bahnzimmer 19.50 18.83 50.80
76576 2022-11-23 23:55:11 Terrasse 4.50 3.22 84.80
76575 2022-11-23 23:47:41 Bahnzimmer 19.70 19.04 50.40
76574 2022-11-23 23:26:48 Terrasse 4.50 3.21 84.50
76573 2022-11-23 23:17:40 Bahnzimmer 20.00 19.36 49.90
76572 2022-11-23 22:58:26 Terrasse 4.70 3.42 83.90
76571 2022-11-23 22:47:39 Bahnzimmer 20.00 19.36 49.80
76570 2022-11-23 22:30:01 Terrasse 5.00 3.75 84.00
76569 2022-11-23 22:17:39 Bahnzimmer 20.00 19.35 49.70
76568 2022-11-23 22:01:39 Terrasse 5.10 3.86 83.90
76567 2022-11-23 21:47:38 Bahnzimmer 20.10 19.46 49.50
76566 2022-11-23 21:33:14 Terrasse 5.10 3.85 83.50
76565 2022-11-23 21:17:38 Bahnzimmer 20.00 19.35 49.50
76564 2022-11-23 21:04:49 Terrasse 5.10 3.85 83.50
76563 2022-11-23 20:47:37 Bahnzimmer 19.90 19.24 49.40
76562 2022-11-23 20:36:24 Terrasse 5.10 3.83 82.80
76561 2022-11-23 20:17:36 Bahnzimmer 19.60 18.91 49.40
76560 2022-11-23 20:08:01 Terrasse 5.30 4.01 81.50
76559 2022-11-23 19:47:36 Bahnzimmer 19.40 18.68 49.30
76558 2022-11-23 19:39:38 Terrasse 5.40 4.09 80.20
76557 2022-11-23 19:17:35 Bahnzimmer 19.00 18.25 49.60
76556 2022-11-23 19:11:15 Terrasse 5.70 4.44 81.10
76555 2022-11-23 18:47:34 Bahnzimmer 19.00 18.22 48.50
76554 2022-11-23 18:42:52 Terrasse 6.00 4.65 76.30
76553 2022-11-23 18:17:34 Bahnzimmer 17.70 16.76 47.30
76552 2022-11-23 18:14:28 Terrasse 6.10 4.80 78.00
76551 2022-11-23 17:47:33 Bahnzimmer 19.90 19.26 50.30
76550 2022-11-23 17:46:03 Terrasse 6.10 4.76 76.40
76549 2022-11-23 17:17:39 Terrasse 6.10 4.73 75.10
76548 2022-11-23 17:17:32 Bahnzimmer 19.90 19.26 50.20
76547 2022-11-23 16:49:18 Terrasse 6.60 5.23 73.20
76546 2022-11-23 16:47:32 Bahnzimmer 20.00 19.37 50.50
76545 2022-11-23 16:20:58 Terrasse 7.50 6.16 71.10
76544 2022-11-23 16:17:31 Bahnzimmer 20.10 19.45 49.30
76543 2022-11-23 15:52:41 Terrasse 8.70 7.37 67.00
76542 2022-11-23 15:47:30 Bahnzimmer 19.80 19.11 48.80
76541 2022-11-23 15:24:20 Terrasse 9.70 8.39 63.70
76540 2022-11-23 15:17:30 Bahnzimmer 19.50 18.75 47.60
76539 2022-11-23 14:55:57 Terrasse 9.20 7.93 67.10
76538 2022-11-23 14:47:29 Bahnzimmer 19.30 18.50 46.40
76537 2022-11-23 14:27:34 Terrasse 9.40 8.15 67.20
76536 2022-11-23 14:17:28 Bahnzimmer 18.00 17.04 45.20
76535 2022-11-23 13:59:12 Terrasse 9.90 8.67 65.90
76534 2022-11-23 13:47:27 Bahnzimmer 19.70 19.08 51.70
76533 2022-11-23 13:30:31 Terrasse 8.80 7.62 72.30
76532 2022-11-23 13:17:27 Bahnzimmer 20.00 19.40 51.50
76531 2022-11-23 13:02:02 Terrasse 7.90 6.74 76.50
76530 2022-11-23 12:47:26 Bahnzimmer 20.20 19.61 51.00
76529 2022-11-23 12:33:27 Terrasse 6.70 5.53 80.50
76528 2022-11-23 12:17:25 Bahnzimmer 20.10 19.50 51.00
76527 2022-11-23 12:04:58 Terrasse 6.50 5.33 81.20
76526 2022-11-23 11:47:25 Bahnzimmer 19.70 19.06 51.10
76525 2022-11-23 11:36:31 Terrasse 5.90 4.74 84.00
76524 2022-11-23 11:17:24 Bahnzimmer 19.80 19.14 50.10
76523 2022-11-23 10:47:23 Bahnzimmer 19.70 19.00 49.00
76522 2022-11-23 10:36:54 Terrasse 5.30 4.14 86.20
76521 2022-11-23 10:17:23 Bahnzimmer 18.50 17.62 46.50
76520 2022-11-23 10:08:30 Terrasse 5.00 3.83 87.00
76519 2022-11-23 09:47:22 Bahnzimmer 20.20 19.65 52.60
76518 2022-11-23 09:40:30 Terrasse 4.90 3.72 87.20
76517 2022-11-23 09:17:21 Bahnzimmer 20.10 19.55 53.00
76516 2022-11-23 09:10:07 Terrasse 4.90 3.72 87.10
76515 2022-11-23 08:47:21 Bahnzimmer 20.00 19.42 52.40
76514 2022-11-23 08:41:42 Terrasse 4.70 3.51 87.30
76513 2022-11-23 08:17:20 Bahnzimmer 20.00 19.42 52.20
76512 2022-11-23 08:13:18 Terrasse 4.60 3.40 87.60
76511 2022-11-23 07:47:19 Bahnzimmer 20.00 19.41 51.80
76510 2022-11-23 07:44:56 Terrasse 4.50 3.29 87.50
76509 2022-11-23 07:17:19 Bahnzimmer 19.90 19.29 51.50
76508 2022-11-23 07:16:33 Terrasse 4.50 3.29 87.60
76507 2022-11-23 06:48:10 Terrasse 4.50 3.29 87.40
76506 2022-11-23 06:47:18 Bahnzimmer 19.70 19.07 51.50
76505 2022-11-23 06:19:47 Terrasse 4.60 3.39 87.20
76504 2022-11-23 06:17:17 Bahnzimmer 19.50 18.85 51.60
76503 2022-11-23 05:51:24 Terrasse 4.60 3.40 87.40
76502 2022-11-23 05:47:16 Bahnzimmer 19.50 18.85 51.60
76501 2022-11-23 05:23:01 Terrasse 4.60 3.40 87.50
76500 2022-11-23 05:17:16 Bahnzimmer 19.30 18.64 51.70
76499 2022-11-23 04:54:37 Terrasse 4.60 3.40 87.50
76498 2022-11-23 04:47:15 Bahnzimmer 18.90 18.21 52.20
76497 2022-11-23 04:26:12 Terrasse 4.70 3.51 87.40
76496 2022-11-23 04:17:14 Bahnzimmer 19.00 18.32 52.20
76495 2022-11-23 03:57:48 Terrasse 4.50 3.29 87.30
76494 2022-11-23 03:47:14 Bahnzimmer 19.00 18.32 52.10
76493 2022-11-23 03:29:25 Terrasse 4.50 3.29 87.30
76492 2022-11-23 03:17:13 Bahnzimmer 19.00 18.32 52.20
76491 2022-11-23 03:01:01 Terrasse 4.50 3.28 87.00
76490 2022-11-23 02:47:12 Bahnzimmer 19.10 18.42 52.00
76489 2022-11-23 02:32:37 Terrasse 4.50 3.27 86.70
76488 2022-11-23 02:17:12 Bahnzimmer 19.10 18.42 52.00
76487 2022-11-23 02:04:13 Terrasse 4.50 3.28 87.00
76486 2022-11-23 01:47:11 Bahnzimmer 19.10 18.43 52.10
76485 2022-11-23 01:35:50 Terrasse 4.50 3.28 87.00
76484 2022-11-23 01:17:10 Bahnzimmer 19.20 18.53 51.90
76483 2022-11-23 01:07:27 Terrasse 4.50 3.28 87.10
76482 2022-11-23 00:47:10 Bahnzimmer 19.30 18.64 51.80
76481 2022-11-23 00:39:05 Terrasse 4.50 3.28 87.20
76480 2022-11-23 00:17:09 Bahnzimmer 19.40 18.75 51.80
76479 2022-11-23 00:10:42 Terrasse 4.50 3.28 87.20
76478 2022-11-22 23:47:08 Bahnzimmer 19.60 18.97 51.80
76477 2022-11-22 23:42:16 Terrasse 4.70 3.51 87.50
76476 2022-11-22 23:17:08 Bahnzimmer 19.90 19.29 51.40
76475 2022-11-22 23:13:51 Terrasse 4.70 3.51 87.60
76474 2022-11-22 22:47:07 Bahnzimmer 20.10 19.50 51.00
76473 2022-11-22 22:45:27 Terrasse 4.90 3.74 87.70
76472 2022-11-22 22:17:06 Bahnzimmer 20.00 19.39 51.00
76471 2022-11-22 22:17:02 Terrasse 5.00 3.86 88.10
76470 2022-11-22 21:48:36 Terrasse 5.00 3.86 88.10
76469 2022-11-22 21:47:06 Bahnzimmer 19.90 19.28 51.10
76468 2022-11-22 21:20:09 Terrasse 4.90 3.75 88.20
76467 2022-11-22 21:17:05 Bahnzimmer 20.00 19.39 51.00
76466 2022-11-22 20:51:45 Terrasse 5.00 3.86 88.40
76465 2022-11-22 20:47:04 Bahnzimmer 19.90 19.27 50.90
76464 2022-11-22 20:23:20 Terrasse 4.80 3.64 88.30
76463 2022-11-22 20:17:04 Bahnzimmer 19.70 19.06 51.00
76462 2022-11-22 19:54:54 Terrasse 4.80 3.63 88.00
76461 2022-11-22 19:47:03 Bahnzimmer 19.50 18.84 51.00
76460 2022-11-22 19:26:29 Terrasse 4.80 3.63 87.70
76459 2022-11-22 19:17:02 Bahnzimmer 19.10 18.41 51.60
76458 2022-11-22 18:58:04 Terrasse 4.70 3.51 87.50
76457 2022-11-22 18:47:02 Bahnzimmer 19.50 18.84 51.00
76456 2022-11-22 18:29:39 Terrasse 4.70 3.50 87.00
76455 2022-11-22 18:17:01 Bahnzimmer 19.60 18.93 50.20
76454 2022-11-22 18:01:14 Terrasse 4.70 3.46 85.50
76453 2022-11-22 17:47:01 Bahnzimmer 18.60 17.79 48.80
76452 2022-11-22 17:32:51 Terrasse 5.00 3.75 84.00
76451 2022-11-22 17:17:00 Bahnzimmer 20.00 19.40 51.50
76450 2022-11-22 17:04:25 Terrasse 4.90 3.62 83.30
76449 2022-11-22 16:46:59 Bahnzimmer 20.00 19.40 51.50
76448 2022-11-22 16:36:26 Terrasse 5.00 3.73 83.10
76447 2022-11-22 16:16:59 Bahnzimmer 20.60 20.04 50.80
76446 2022-11-22 16:08:10 Terrasse 4.90 3.60 82.50
76445 2022-11-22 15:46:58 Bahnzimmer 20.50 19.91 50.00
76444 2022-11-22 15:39:37 Terrasse 5.00 3.69 81.60
76443 2022-11-22 15:16:52 Bahnzimmer 20.60 20.05 51.20
76442 2022-11-22 15:11:12 Terrasse 5.00 3.67 81.10
76441 2022-11-22 14:46:48 Bahnzimmer 20.50 19.95 51.50
76440 2022-11-22 14:42:47 Terrasse 5.10 3.80 81.90
76439 2022-11-22 14:16:47 Bahnzimmer 20.50 19.94 51.20
76438 2022-11-22 14:14:23 Terrasse 5.20 3.89 81.10
76437 2022-11-22 13:46:46 Bahnzimmer 20.40 19.82 50.70
76436 2022-11-22 13:45:58 Terrasse 5.30 3.97 79.70
76435 2022-11-22 13:17:34 Terrasse 5.30 3.96 79.60
76434 2022-11-22 13:16:46 Bahnzimmer 20.30 19.70 50.50
76433 2022-11-22 12:49:20 Terrasse 5.30 3.95 79.00
76432 2022-11-22 12:46:45 Bahnzimmer 20.10 19.49 50.90
76431 2022-11-22 12:20:50 Terrasse 5.30 3.94 78.80
76430 2022-11-22 12:16:44 Bahnzimmer 20.30 19.71 50.70
76429 2022-11-22 11:52:24 Terrasse 5.10 3.70 77.90
76428 2022-11-22 11:46:44 Bahnzimmer 20.20 19.60 50.80
76427 2022-11-22 11:24:04 Terrasse 5.50 4.16 78.70
76426 2022-11-22 11:16:43 Bahnzimmer 20.30 19.69 50.10
76425 2022-11-22 10:55:36 Terrasse 5.30 3.98 80.10
76424 2022-11-22 10:27:09 Terrasse 5.10 3.79 81.30
76423 2022-11-22 10:16:37 Bahnzimmer 19.50 18.78 48.70
76422 2022-11-22 09:58:44 Terrasse 4.70 3.38 82.50
76421 2022-11-22 09:46:36 Bahnzimmer 20.30 19.72 51.20
76420 2022-11-22 09:30:15 Terrasse 4.60 3.31 84.20
76419 2022-11-22 09:16:36 Bahnzimmer 20.00 19.40 51.60
76418 2022-11-22 09:01:52 Terrasse 4.40 3.13 85.40
76417 2022-11-22 08:46:35 Bahnzimmer 20.10 19.50 51.20
76416 2022-11-22 08:33:27 Terrasse 4.40 3.14 85.80
76415 2022-11-22 08:05:03 Terrasse 4.50 3.26 86.30
76414 2022-11-22 07:46:29 Bahnzimmer 19.90 19.30 51.70
76413 2022-11-22 07:36:41 Terrasse 4.50 3.29 87.50
76412 2022-11-22 07:16:28 Bahnzimmer 19.80 19.17 51.10
76411 2022-11-22 07:08:20 Terrasse 4.70 3.52 88.00
76410 2022-11-22 06:46:27 Bahnzimmer 19.60 18.95 51.10
76409 2022-11-22 06:39:56 Terrasse 4.60 3.42 88.10
76408 2022-11-22 06:16:27 Bahnzimmer 19.50 18.84 51.10
76407 2022-11-22 06:11:32 Terrasse 4.50 3.32 88.50
76406 2022-11-22 05:46:26 Bahnzimmer 19.40 18.73 51.10
76405 2022-11-22 05:43:08 Terrasse 4.50 3.32 88.50
76404 2022-11-22 05:16:25 Bahnzimmer 19.20 18.51 51.10
76403 2022-11-22 05:14:44 Terrasse 4.40 3.21 88.50
76402 2022-11-22 04:46:25 Bahnzimmer 18.80 18.08 51.60
76401 2022-11-22 04:46:21 Terrasse 4.30 3.09 88.20
76400 2022-11-22 04:17:57 Terrasse 4.30 3.08 87.90
76399 2022-11-22 04:16:24 Bahnzimmer 18.80 18.08 51.60
76398 2022-11-22 03:49:33 Terrasse 4.20 2.96 87.30
76397 2022-11-22 03:46:23 Bahnzimmer 18.80 18.08 51.50
76396 2022-11-22 03:21:12 Terrasse 4.10 2.84 87.20
76395 2022-11-22 03:16:23 Bahnzimmer 18.80 18.08 51.60
76394 2022-11-22 02:52:48 Terrasse 4.10 2.83 86.60
76393 2022-11-22 02:46:22 Bahnzimmer 18.90 18.19 51.40
76392 2022-11-22 02:24:24 Terrasse 4.10 2.82 86.30
76391 2022-11-22 02:16:21 Bahnzimmer 18.90 18.19 51.40
76390 2022-11-22 01:56:00 Terrasse 4.10 2.82 86.20
76389 2022-11-22 01:46:21 Bahnzimmer 19.00 18.28 50.80
76388 2022-11-22 01:27:36 Terrasse 4.10 2.81 85.80
76387 2022-11-22 01:16:20 Bahnzimmer 19.00 18.29 51.00
76386 2022-11-22 00:59:12 Terrasse 4.10 2.80 85.70
76385 2022-11-22 00:46:19 Bahnzimmer 19.10 18.40 51.10
76384 2022-11-22 00:30:48 Terrasse 4.00 2.68 85.10
76383 2022-11-22 00:16:19 Bahnzimmer 19.30 18.62 51.20
76382 2022-11-22 00:02:25 Terrasse 4.00 2.67 84.70
76381 2022-11-21 23:46:18 Bahnzimmer 19.50 18.83 50.80
76380 2022-11-21 23:34:00 Terrasse 4.00 2.65 83.90
76379 2022-11-21 23:16:17 Bahnzimmer 19.70 19.04 50.50
76378 2022-11-21 23:05:36 Terrasse 4.10 2.75 83.60
76377 2022-11-21 22:46:17 Bahnzimmer 19.60 18.93 50.40
76376 2022-11-21 22:37:11 Terrasse 4.10 2.71 82.20
76375 2022-11-21 22:16:16 Bahnzimmer 19.50 18.82 50.40
76374 2022-11-21 22:08:46 Terrasse 4.10 2.67 80.60
76373 2022-11-21 21:46:15 Bahnzimmer 19.50 18.82 50.30
76372 2022-11-21 21:40:20 Terrasse 4.10 2.67 80.50
76371 2022-11-21 21:16:14 Bahnzimmer 19.40 18.71 50.20
76370 2022-11-21 21:11:54 Terrasse 4.10 2.68 80.90
76369 2022-11-21 20:46:14 Bahnzimmer 19.30 18.60 50.20
76368 2022-11-21 20:43:29 Terrasse 4.10 2.68 80.90
76367 2022-11-21 20:16:13 Bahnzimmer 19.10 18.38 50.30
76366 2022-11-21 20:15:04 Terrasse 4.10 2.67 80.60
76365 2022-11-21 19:46:39 Terrasse 4.10 2.65 79.90
76364 2022-11-21 19:46:13 Bahnzimmer 19.00 18.26 50.10
76363 2022-11-21 19:18:15 Terrasse 4.30 2.86 79.50
76362 2022-11-21 19:16:12 Bahnzimmer 19.00 18.26 50.00
76361 2022-11-21 18:49:50 Terrasse 4.40 2.98 79.70
76360 2022-11-21 18:46:11 Bahnzimmer 19.10 18.35 49.30
76359 2022-11-21 18:21:26 Terrasse 4.40 2.96 79.00
76358 2022-11-21 18:16:10 Bahnzimmer 19.20 18.43 48.00
76357 2022-11-21 17:53:01 Terrasse 4.50 3.07 79.00
76356 2022-11-21 17:46:10 Bahnzimmer 19.90 19.15 46.20
76355 2022-11-21 17:24:38 Terrasse 4.50 3.07 79.00
76354 2022-11-21 17:16:09 Bahnzimmer 20.30 19.74 51.70
76353 2022-11-21 16:56:16 Terrasse 4.90 3.48 77.90
76352 2022-11-21 16:46:08 Bahnzimmer 20.50 19.94 51.30
76351 2022-11-21 16:27:54 Terrasse 5.50 4.10 76.20
76350 2022-11-21 16:16:08 Bahnzimmer 20.60 20.04 50.60
76349 2022-11-21 15:59:34 Terrasse 6.40 5.04 74.50
76348 2022-11-21 15:46:07 Bahnzimmer 20.50 19.93 50.70
76347 2022-11-21 15:31:16 Terrasse 7.40 6.03 70.20
76346 2022-11-21 15:16:06 Bahnzimmer 20.50 19.91 50.00
76345 2022-11-21 15:02:43 Terrasse 6.20 4.81 73.90
76344 2022-11-21 14:46:06 Bahnzimmer 20.40 19.79 49.70
76343 2022-11-21 14:34:18 Terrasse 6.00 4.63 75.50
76342 2022-11-21 14:16:05 Bahnzimmer 20.10 19.46 49.50
76341 2022-11-21 14:05:52 Terrasse 5.90 4.53 76.10
76340 2022-11-21 13:46:04 Bahnzimmer 20.10 19.46 49.40
76339 2022-11-21 13:37:28 Terrasse 6.10 4.77 76.80
76338 2022-11-21 13:16:03 Bahnzimmer 20.30 19.65 48.50
76337 2022-11-21 13:09:02 Terrasse 5.90 4.55 76.60
76336 2022-11-21 12:46:03 Bahnzimmer 20.20 19.51 47.10
76335 2022-11-21 12:40:38 Terrasse 6.00 4.72 79.00
76334 2022-11-21 12:16:02 Bahnzimmer 20.10 19.35 45.40
76333 2022-11-21 12:12:16 Terrasse 6.30 5.01 77.60
76332 2022-11-21 11:46:01 Bahnzimmer 20.60 20.06 51.40
76331 2022-11-21 11:43:47 Terrasse 6.10 4.89 81.40
76330 2022-11-21 11:16:01 Bahnzimmer 20.30 19.72 51.00
76329 2022-11-21 11:15:17 Terrasse 5.00 3.76 84.30
76328 2022-11-21 10:46:49 Terrasse 4.70 3.49 86.70
76327 2022-11-21 10:46:00 Bahnzimmer 20.50 19.94 51.10
76326 2022-11-21 10:18:21 Terrasse 4.20 2.92 86.10
76325 2022-11-21 10:15:59 Bahnzimmer 20.50 19.93 50.70
76324 2022-11-21 09:49:55 Terrasse 4.10 2.81 85.80
76323 2022-11-21 09:45:58 Bahnzimmer 20.20 19.61 51.30
76322 2022-11-21 09:21:31 Terrasse 4.20 2.92 86.10
76321 2022-11-21 09:15:58 Bahnzimmer 19.90 19.28 51.00
76320 2022-11-21 08:53:05 Terrasse 4.00 2.70 86.00
76319 2022-11-21 08:45:57 Bahnzimmer 19.70 19.06 51.30
76318 2022-11-21 08:24:40 Terrasse 4.00 2.68 85.30
76317 2022-11-21 08:15:56 Bahnzimmer 19.70 19.05 50.80
76316 2022-11-21 07:56:15 Terrasse 4.00 2.67 84.80
76315 2022-11-21 07:45:56 Bahnzimmer 19.40 18.69 49.70
76314 2022-11-21 07:27:51 Terrasse 4.00 2.66 84.40
76313 2022-11-21 07:15:55 Bahnzimmer 19.50 18.83 50.90
76312 2022-11-21 06:59:27 Terrasse 4.10 2.79 85.20
76311 2022-11-21 06:45:54 Bahnzimmer 19.50 18.84 51.10
76310 2022-11-21 06:31:01 Terrasse 4.10 2.76 84.00
76309 2022-11-21 06:15:54 Bahnzimmer 19.30 18.62 51.10
76308 2022-11-21 06:02:36 Terrasse 4.10 2.74 83.30
76307 2022-11-21 05:45:53 Bahnzimmer 19.20 18.51 51.30
76306 2022-11-21 05:34:11 Terrasse 4.10 2.74 83.10
76305 2022-11-21 05:15:52 Bahnzimmer 19.20 18.51 51.20
76304 2022-11-21 05:05:46 Terrasse 4.00 2.63 83.30
76303 2022-11-21 04:45:52 Bahnzimmer 18.80 18.08 51.60
76302 2022-11-21 04:37:20 Terrasse 4.00 2.62 83.00
76301 2022-11-21 04:15:51 Bahnzimmer 18.80 18.08 51.60
76300 2022-11-21 04:08:54 Terrasse 3.90 2.52 83.10
76299 2022-11-21 03:45:50 Bahnzimmer 18.90 18.19 51.40
76298 2022-11-21 03:40:31 Terrasse 4.00 2.61 82.70
76297 2022-11-21 03:15:50 Bahnzimmer 18.90 18.19 51.60
76296 2022-11-21 03:12:06 Terrasse 4.10 2.72 82.60
76295 2022-11-21 02:45:49 Bahnzimmer 18.90 18.19 51.60
76294 2022-11-21 02:43:40 Terrasse 4.00 2.63 83.20
76293 2022-11-21 02:15:48 Bahnzimmer 19.00 18.30 51.50
76292 2022-11-21 02:15:15 Terrasse 3.90 2.53 83.60
76291 2022-11-21 01:46:47 Terrasse 3.50 2.11 84.60
76290 2022-11-21 01:45:48 Bahnzimmer 19.10 18.39 50.90
76289 2022-11-21 01:18:22 Terrasse 3.50 2.12 85.00
76288 2022-11-21 01:15:47 Bahnzimmer 19.20 18.51 51.20
76287 2022-11-21 00:49:58 Terrasse 3.60 2.25 85.50
76286 2022-11-21 00:45:46 Bahnzimmer 19.30 18.64 51.70
76285 2022-11-21 00:21:33 Terrasse 3.60 2.27 86.20
76284 2022-11-21 00:15:46 Bahnzimmer 19.40 18.75 51.80
76283 2022-11-20 23:53:08 Terrasse 3.60 2.30 87.50
76282 2022-11-20 23:45:45 Bahnzimmer 19.70 19.07 51.40
76281 2022-11-20 23:24:43 Terrasse 3.60 2.30 87.50
76280 2022-11-20 23:15:44 Bahnzimmer 19.70 19.06 51.20
76279 2022-11-20 22:56:17 Terrasse 3.60 2.31 87.90
76278 2022-11-20 22:45:44 Bahnzimmer 19.70 19.07 51.40
76277 2022-11-20 22:27:52 Terrasse 3.60 2.31 87.80
76276 2022-11-20 22:15:43 Bahnzimmer 19.70 19.07 51.60
76275 2022-11-20 21:59:26 Terrasse 3.60 2.30 87.50
76274 2022-11-20 21:45:42 Bahnzimmer 20.00 19.39 51.20
76273 2022-11-20 21:31:01 Terrasse 3.50 2.19 87.30
76272 2022-11-20 21:15:42 Bahnzimmer 19.90 19.28 51.10
76271 2022-11-20 21:02:36 Terrasse 3.60 2.30 87.30
76270 2022-11-20 20:45:41 Bahnzimmer 19.90 19.29 51.40
76269 2022-11-20 20:34:12 Terrasse 3.70 2.42 87.70
76268 2022-11-20 20:15:40 Bahnzimmer 19.90 19.28 51.20
76267 2022-11-20 20:05:46 Terrasse 3.60 2.32 88.30
76266 2022-11-20 19:45:40 Bahnzimmer 20.00 19.39 51.20
76265 2022-11-20 19:37:20 Terrasse 3.50 2.20 87.80
76264 2022-11-20 19:15:39 Bahnzimmer 19.90 19.29 51.40
76263 2022-11-20 19:08:54 Terrasse 3.50 2.19 87.30
76262 2022-11-20 18:45:38 Bahnzimmer 19.80 19.18 51.50
76261 2022-11-20 18:40:28 Terrasse 3.50 2.18 87.00
76260 2022-11-20 18:15:38 Bahnzimmer 19.50 18.84 51.30
76259 2022-11-20 18:12:02 Terrasse 3.30 1.95 86.90
76258 2022-11-20 17:45:37 Bahnzimmer 19.50 18.84 51.30
76257 2022-11-20 17:43:37 Terrasse 3.10 1.73 86.60
76256 2022-11-20 17:15:36 Bahnzimmer 19.50 18.84 51.20
76255 2022-11-20 17:15:11 Terrasse 3.10 1.71 86.10
76254 2022-11-20 16:46:46 Terrasse 3.40 2.02 85.30
76253 2022-11-20 16:45:36 Bahnzimmer 19.50 18.84 51.20
76252 2022-11-20 16:18:21 Terrasse 3.50 2.12 84.80
76251 2022-11-20 16:15:35 Bahnzimmer 19.50 18.84 51.30
76250 2022-11-20 15:49:57 Terrasse 3.50 2.11 84.60
76249 2022-11-20 15:45:34 Bahnzimmer 19.50 18.84 51.30
76248 2022-11-20 15:21:32 Terrasse 3.70 2.31 83.50
76247 2022-11-20 15:15:34 Bahnzimmer 19.50 18.84 51.20
76246 2022-11-20 14:53:07 Terrasse 3.90 2.51 83.00
76245 2022-11-20 14:45:33 Bahnzimmer 19.50 18.84 51.20
76244 2022-11-20 14:24:42 Terrasse 4.10 2.73 83.00
76243 2022-11-20 14:15:32 Bahnzimmer 19.50 18.84 51.20
76242 2022-11-20 13:56:16 Terrasse 4.10 2.72 82.60
76241 2022-11-20 13:45:32 Bahnzimmer 19.50 18.84 51.30
76240 2022-11-20 13:27:53 Terrasse 4.40 3.03 81.60
76239 2022-11-20 13:15:31 Bahnzimmer 19.60 18.94 50.70
76238 2022-11-20 12:59:23 Terrasse 4.00 2.62 82.80
76237 2022-11-20 12:45:30 Bahnzimmer 19.50 18.81 50.00
76236 2022-11-20 12:30:50 Terrasse 3.20 1.77 84.00
76235 2022-11-20 12:15:30 Bahnzimmer 18.90 18.13 49.10
76234 2022-11-20 12:02:22 Terrasse 3.00 1.57 84.70
76233 2022-11-20 11:45:29 Bahnzimmer 19.70 19.10 52.70
76232 2022-11-20 11:34:06 Terrasse 2.90 1.43 83.80
76231 2022-11-20 11:15:28 Bahnzimmer 19.70 19.11 53.00
76230 2022-11-20 11:05:40 Terrasse 2.80 1.34 84.40
76229 2022-11-20 10:45:28 Bahnzimmer 19.80 19.21 52.50
76228 2022-11-20 10:39:09 Terrasse 2.40 0.91 85.00
76227 2022-11-20 10:15:27 Bahnzimmer 19.40 18.76 52.40
76226 2022-11-20 10:00:39 Terrasse 2.00 0.46 84.40
76225 2022-11-20 09:45:26 Bahnzimmer 19.50 18.87 52.20
76224 2022-11-20 09:15:26 Bahnzimmer 19.80 19.19 51.90
76223 2022-11-20 08:45:25 Bahnzimmer 20.00 19.40 51.50
76222 2022-11-20 08:43:14 Terrasse 1.00 -0.62 85.10
76221 2022-11-20 08:15:24 Bahnzimmer 20.00 19.41 51.80
76220 2022-11-20 08:14:53 Terrasse 0.90 -0.75 84.60
76219 2022-11-20 07:46:30 Terrasse 0.80 -0.84 85.00
76218 2022-11-20 07:45:24 Bahnzimmer 19.90 19.30 51.90
76217 2022-11-20 07:18:08 Terrasse 0.80 -0.86 84.60
76216 2022-11-20 07:15:23 Bahnzimmer 19.70 19.08 52.00
76215 2022-11-20 06:49:47 Terrasse 0.80 -0.86 84.60
76214 2022-11-20 06:45:22 Bahnzimmer 19.50 18.86 52.00
76213 2022-11-20 06:21:27 Terrasse 0.80 -0.89 83.30
76212 2022-11-20 06:15:22 Bahnzimmer 19.10 18.44 52.50
76211 2022-11-20 05:53:05 Terrasse 0.80 -0.90 82.90
76210 2022-11-20 05:45:21 Bahnzimmer 19.10 18.44 52.50
76209 2022-11-20 05:24:44 Terrasse 0.70 -0.99 83.70
76208 2022-11-20 05:15:20 Bahnzimmer 19.10 18.44 52.50
76207 2022-11-20 04:56:25 Terrasse 0.80 -0.91 82.50
76206 2022-11-20 04:45:20 Bahnzimmer 19.20 18.54 52.40
76205 2022-11-20 04:28:06 Terrasse 1.00 -0.70 82.10
76204 2022-11-20 04:15:19 Bahnzimmer 19.10 18.44 52.50
76203 2022-11-20 03:59:44 Terrasse 0.90 -0.81 82.30
76202 2022-11-20 03:45:18 Bahnzimmer 19.20 18.54 52.30
76201 2022-11-20 03:31:23 Terrasse 0.80 -0.92 82.10
76200 2022-11-20 03:15:18 Bahnzimmer 19.20 18.54 52.40
76199 2022-11-20 03:03:05 Terrasse 1.10 -0.62 81.00
76198 2022-11-20 02:45:17 Bahnzimmer 19.20 18.55 52.50
76197 2022-11-20 02:34:46 Terrasse 1.30 -0.41 80.50
76196 2022-11-20 02:15:16 Bahnzimmer 19.30 18.65 52.30
76195 2022-11-20 02:06:25 Terrasse 1.20 -0.55 79.60
76194 2022-11-20 01:45:16 Bahnzimmer 19.20 18.54 52.30
76193 2022-11-20 01:38:06 Terrasse 1.30 -0.44 79.50
76192 2022-11-20 01:15:15 Bahnzimmer 19.20 18.54 52.30
76191 2022-11-20 01:09:45 Terrasse 1.30 -0.45 79.00
76190 2022-11-20 00:45:15 Bahnzimmer 19.20 18.54 52.30
76189 2022-11-20 00:41:24 Terrasse 1.20 -0.56 79.20
76188 2022-11-20 00:15:14 Bahnzimmer 19.30 18.65 52.20
76187 2022-11-20 00:13:04 Terrasse 1.40 -0.34 79.20
76186 2022-11-19 23:45:13 Bahnzimmer 19.30 18.65 52.20
76185 2022-11-19 23:44:42 Terrasse 1.20 -0.57 78.70
76184 2022-11-19 23:16:20 Terrasse 1.20 -0.57 78.50
76183 2022-11-19 23:15:13 Bahnzimmer 19.30 18.65 52.10
76182 2022-11-19 22:47:58 Terrasse 1.30 -0.47 78.30
76181 2022-11-19 22:45:12 Bahnzimmer 19.40 18.76 52.10
76180 2022-11-19 22:19:37 Terrasse 1.20 -0.60 77.70
76179 2022-11-19 22:15:11 Bahnzimmer 19.50 18.86 51.90
76178 2022-11-19 21:51:16 Terrasse 1.40 -0.39 77.30
76177 2022-11-19 21:45:11 Bahnzimmer 19.60 18.97 51.70
76176 2022-11-19 21:22:55 Terrasse 1.50 -0.25 78.20
76175 2022-11-19 21:15:10 Bahnzimmer 19.70 19.07 51.50
76174 2022-11-19 20:54:33 Terrasse 1.60 -0.12 79.00
76173 2022-11-19 20:45:09 Bahnzimmer 19.70 19.07 51.50
76172 2022-11-19 20:26:12 Terrasse 1.60 -0.13 78.50
76171 2022-11-19 20:15:09 Bahnzimmer 20.00 19.39 51.00
76170 2022-11-19 19:57:50 Terrasse 1.60 -0.11 79.30
76169 2022-11-19 19:45:08 Bahnzimmer 20.20 19.59 50.30
76168 2022-11-19 19:29:27 Terrasse 1.50 -0.22 79.40
76167 2022-11-19 19:15:07 Bahnzimmer 20.10 19.47 50.00
76166 2022-11-19 19:01:06 Terrasse 1.60 -0.11 79.60
76165 2022-11-19 18:45:07 Bahnzimmer 20.00 19.35 49.60
76164 2022-11-19 18:32:44 Terrasse 1.50 -0.23 79.00
76163 2022-11-19 18:15:06 Bahnzimmer 19.90 19.22 48.70
76162 2022-11-19 18:04:22 Terrasse 1.50 -0.22 79.40
76161 2022-11-19 17:45:05 Bahnzimmer 19.60 18.85 47.10
76160 2022-11-19 17:36:01 Terrasse 1.60 -0.11 79.50
76159 2022-11-19 17:15:05 Bahnzimmer 18.40 17.38 41.70
76158 2022-11-19 17:07:40 Terrasse 1.60 -0.12 78.90
76157 2022-11-19 16:45:04 Bahnzimmer 20.20 19.65 52.70
76156 2022-11-19 16:39:19 Terrasse 1.70 0.00 79.60
76155 2022-11-19 16:15:03 Bahnzimmer 20.10 19.54 52.60
76154 2022-11-19 16:10:58 Terrasse 1.80 0.11 79.30
76153 2022-11-19 15:45:03 Bahnzimmer 20.10 19.53 52.30
76152 2022-11-19 15:42:37 Terrasse 1.80 0.10 79.10
76151 2022-11-19 15:15:02 Bahnzimmer 20.00 19.40 51.50
76150 2022-11-19 15:14:17 Terrasse 1.90 0.22 79.50
76149 2022-11-19 14:45:56 Terrasse 2.10 0.42 78.60
76148 2022-11-19 14:45:01 Bahnzimmer 20.20 19.68 53.80
76147 2022-11-19 14:17:36 Terrasse 2.20 0.53 78.80
76146 2022-11-19 14:15:01 Bahnzimmer 20.00 19.45 53.40
76145 2022-11-19 13:49:13 Terrasse 2.20 0.53 78.70
76144 2022-11-19 13:45:00 Bahnzimmer 20.70 20.29 56.00
76143 2022-11-19 13:20:52 Terrasse 2.30 0.65 79.00
76142 2022-11-19 13:14:59 Bahnzimmer 21.10 20.73 56.20
76141 2022-11-19 13:10:54 Bahnzimmer 21.20 20.85 56.40
76140 2022-11-19 12:52:32 Terrasse 2.30 0.65 79.00
76139 2022-11-19 12:24:09 Terrasse 2.50 0.86 78.80
76138 2022-11-19 11:55:48 Terrasse 2.50 0.88 79.60
76137 2022-11-19 11:52:20 Bahnzimmer 20.10 19.55 53.20
76136 2022-11-19 11:27:24 Terrasse 2.10 0.45 79.70
76135 2022-11-19 11:22:19 Bahnzimmer 20.10 19.55 53.10
76134 2022-11-19 10:59:01 Terrasse 1.90 0.24 80.10
76133 2022-11-19 10:52:19 Bahnzimmer 20.00 19.43 52.80
76132 2022-11-19 10:30:39 Terrasse 1.70 0.01 79.70
76131 2022-11-19 10:22:18 Bahnzimmer 19.70 19.10 52.50
76130 2022-11-19 10:02:18 Terrasse 1.70 0.01 79.90
76129 2022-11-19 09:52:17 Bahnzimmer 19.50 18.85 51.60
76128 2022-11-19 09:33:56 Terrasse 1.80 0.11 79.50
76127 2022-11-19 09:22:17 Bahnzimmer 19.60 18.91 49.60
76126 2022-11-19 09:05:35 Terrasse 1.90 0.23 79.70
76125 2022-11-19 08:52:16 Bahnzimmer 20.30 19.80 54.20
76124 2022-11-19 08:37:15 Terrasse 2.00 0.35 80.20
76123 2022-11-19 08:22:15 Bahnzimmer 20.00 19.48 54.40
76122 2022-11-19 08:08:54 Terrasse 2.10 0.45 79.90
76121 2022-11-19 07:52:15 Bahnzimmer 19.90 19.37 54.60
76120 2022-11-19 07:40:33 Terrasse 2.10 0.43 79.20
76119 2022-11-19 07:22:14 Bahnzimmer 19.70 19.16 54.80
76118 2022-11-19 07:12:14 Terrasse 2.40 0.75 78.70
76117 2022-11-19 06:52:13 Bahnzimmer 19.50 18.95 55.20
76116 2022-11-19 06:43:55 Terrasse 2.70 1.07 78.40
76115 2022-11-19 06:22:13 Bahnzimmer 19.20 18.62 55.50
76114 2022-11-19 06:15:35 Terrasse 3.10 1.52 78.70
76113 2022-11-19 05:52:12 Bahnzimmer 19.00 18.40 55.50
76112 2022-11-19 05:47:18 Terrasse 3.50 1.96 78.80
76111 2022-11-19 05:22:11 Bahnzimmer 19.00 18.40 55.50
76110 2022-11-19 05:18:59 Terrasse 3.70 2.20 79.30
76109 2022-11-19 04:52:11 Bahnzimmer 19.00 18.41 55.70
76108 2022-11-19 04:50:41 Terrasse 4.10 2.63 79.10
76107 2022-11-19 04:22:23 Terrasse 4.40 2.99 80.10
76106 2022-11-19 04:22:10 Bahnzimmer 19.10 18.52 55.70
76105 2022-11-19 03:54:06 Terrasse 4.50 3.10 80.20
76104 2022-11-19 03:52:09 Bahnzimmer 19.00 18.41 55.80
76103 2022-11-19 03:25:47 Terrasse 4.90 3.56 80.80
76102 2022-11-19 03:22:09 Bahnzimmer 19.00 18.41 55.80
76101 2022-11-19 02:57:29 Terrasse 5.20 3.88 80.70
76100 2022-11-19 02:52:08 Bahnzimmer 19.10 18.52 55.70
76099 2022-11-19 02:29:12 Terrasse 5.50 4.20 80.30
76098 2022-11-19 02:22:07 Bahnzimmer 19.20 18.63 55.60
76097 2022-11-19 02:00:52 Terrasse 5.80 4.53 80.40
76096 2022-11-19 01:52:07 Bahnzimmer 19.20 18.63 55.70
76095 2022-11-19 01:32:33 Terrasse 6.10 4.89 81.20
76094 2022-11-19 01:22:06 Bahnzimmer 19.30 18.74 55.70
76093 2022-11-19 01:04:15 Terrasse 6.30 5.14 82.70
76092 2022-11-19 00:52:05 Bahnzimmer 19.40 18.84 55.50
76091 2022-11-19 00:35:54 Terrasse 6.40 5.26 82.90
76090 2022-11-19 00:22:05 Bahnzimmer 19.50 18.95 55.40
76089 2022-11-19 00:07:35 Terrasse 6.40 5.25 82.70
76088 2022-11-18 23:52:04 Bahnzimmer 19.70 19.16 55.10
76087 2022-11-18 23:39:13 Terrasse 6.30 5.10 81.00
76086 2022-11-18 23:22:03 Bahnzimmer 19.70 19.17 55.20
76085 2022-11-18 23:10:50 Terrasse 6.40 5.20 80.50
76084 2022-11-18 22:52:03 Bahnzimmer 19.70 19.16 55.00
76083 2022-11-18 22:42:28 Terrasse 6.40 5.22 81.50
76082 2022-11-18 22:22:02 Bahnzimmer 19.70 19.17 55.20
76081 2022-11-18 22:14:06 Terrasse 6.70 5.56 81.70
76080 2022-11-18 21:52:01 Bahnzimmer 19.90 19.38 55.00
76079 2022-11-18 21:45:45 Terrasse 6.70 5.56 81.60
76078 2022-11-18 21:22:01 Bahnzimmer 19.90 19.38 55.00
76077 2022-11-18 21:17:23 Terrasse 6.80 5.66 81.20
76076 2022-11-18 20:52:00 Bahnzimmer 19.90 19.38 54.90
76075 2022-11-18 20:49:01 Terrasse 6.90 5.75 80.60
76074 2022-11-18 20:21:59 Bahnzimmer 19.80 19.26 54.70
76073 2022-11-18 20:20:39 Terrasse 6.80 5.64 80.70
76072 2022-11-18 19:52:16 Terrasse 6.90 5.75 80.60
76071 2022-11-18 19:51:59 Bahnzimmer 19.70 19.16 54.80
76070 2022-11-18 19:23:54 Terrasse 7.00 5.84 79.80
76069 2022-11-18 19:21:58 Bahnzimmer 19.90 19.37 54.70
76068 2022-11-18 18:55:33 Terrasse 7.20 6.04 78.90
76067 2022-11-18 18:51:57 Bahnzimmer 19.70 19.15 54.70
76066 2022-11-18 18:27:10 Terrasse 7.20 6.06 79.70
76065 2022-11-18 18:21:57 Bahnzimmer 19.90 19.35 53.90
76064 2022-11-18 17:58:48 Terrasse 7.20 6.03 78.50
76063 2022-11-18 17:51:56 Bahnzimmer 20.00 19.45 53.50
76062 2022-11-18 17:30:26 Terrasse 7.40 6.23 77.80
76061 2022-11-18 17:21:55 Bahnzimmer 19.70 19.11 52.90
76060 2022-11-18 17:02:05 Terrasse 7.80 6.65 77.30
76059 2022-11-18 16:51:55 Bahnzimmer 19.30 18.63 51.50
76058 2022-11-18 16:33:46 Terrasse 8.30 7.18 76.50
76057 2022-11-18 16:21:54 Bahnzimmer 18.70 17.93 50.10
76056 2022-11-18 16:05:29 Terrasse 9.00 7.89 74.20
76055 2022-11-18 15:51:53 Bahnzimmer 20.60 20.24 58.30
76054 2022-11-18 15:37:11 Terrasse 10.00 8.94 72.10
76053 2022-11-18 15:21:53 Bahnzimmer 20.50 20.13 58.30
76052 2022-11-18 15:08:44 Terrasse 9.40 8.36 75.10
76051 2022-11-18 14:51:52 Bahnzimmer 20.30 19.90 58.00
76050 2022-11-18 14:40:21 Terrasse 9.40 8.37 75.80
76049 2022-11-18 14:21:51 Bahnzimmer 20.10 19.67 57.80
76048 2022-11-18 14:11:58 Terrasse 9.30 8.28 76.40
76047 2022-11-18 13:51:51 Bahnzimmer 19.90 19.46 57.90
76046 2022-11-18 13:43:38 Terrasse 10.00 9.04 75.90
76045 2022-11-18 13:21:50 Bahnzimmer 20.00 19.56 57.50
76044 2022-11-18 13:15:13 Terrasse 10.20 9.31 78.10
76043 2022-11-18 12:51:49 Bahnzimmer 20.00 19.56 57.80
76042 2022-11-18 12:46:49 Terrasse 10.00 9.11 78.50
76041 2022-11-18 12:21:49 Bahnzimmer 19.50 18.98 56.50
76040 2022-11-18 12:18:26 Terrasse 9.70 8.80 79.30
76039 2022-11-18 11:52:13 Terrasse 9.60 8.74 81.20
76038 2022-11-18 11:51:48 Bahnzimmer 20.20 19.81 58.80
76037 2022-11-18 11:21:47 Bahnzimmer 20.10 19.69 58.50
76036 2022-11-18 10:55:18 Terrasse 8.40 7.48 83.50
76035 2022-11-18 10:51:47 Bahnzimmer 19.90 19.47 58.50
76034 2022-11-18 10:24:31 Terrasse 8.40 7.48 83.70
76033 2022-11-18 10:21:46 Bahnzimmer 19.70 19.25 58.40
76032 2022-11-18 09:58:18 Terrasse 8.30 7.38 83.90
76031 2022-11-18 09:51:45 Bahnzimmer 19.70 19.22 57.30
76030 2022-11-18 09:21:45 Bahnzimmer 19.80 19.35 58.10
76029 2022-11-18 08:51:44 Bahnzimmer 19.80 19.36 58.50
76028 2022-11-18 08:21:43 Bahnzimmer 20.10 19.67 57.80
76027 2022-11-18 07:51:55 Terrasse 7.70 6.76 85.40
76026 2022-11-18 07:51:43 Bahnzimmer 20.00 19.56 57.80
76025 2022-11-18 07:25:50 Terrasse 8.00 7.07 85.00
76024 2022-11-18 07:21:42 Bahnzimmer 19.80 19.33 57.10
76023 2022-11-18 06:51:41 Bahnzimmer 19.70 19.21 57.00
76022 2022-11-18 06:21:41 Bahnzimmer 19.70 19.22 57.10
76021 2022-11-18 06:13:49 Terrasse 7.60 6.68 86.80
76020 2022-11-18 05:51:40 Bahnzimmer 19.50 19.00 57.40
76019 2022-11-18 05:45:38 Terrasse 7.60 6.69 87.00
76018 2022-11-18 05:21:39 Bahnzimmer 19.30 18.79 57.70
76017 2022-11-18 05:19:02 Terrasse 7.60 6.69 87.10
76016 2022-11-18 04:51:39 Bahnzimmer 19.00 18.46 57.80
76015 2022-11-18 04:47:34 Terrasse 7.80 6.91 87.00
76014 2022-11-18 04:21:38 Bahnzimmer 19.00 18.46 57.80
76013 2022-11-18 04:20:53 Terrasse 7.80 6.90 86.70
76012 2022-11-18 03:51:37 Bahnzimmer 19.10 18.58 57.90
76011 2022-11-18 03:21:37 Bahnzimmer 19.00 18.47 58.10
76010 2022-11-18 03:12:32 Terrasse 7.70 6.80 87.00
76009 2022-11-18 02:51:35 Bahnzimmer 19.10 18.58 58.00
76008 2022-11-18 02:40:25 Terrasse 7.60 6.70 87.40
76007 2022-11-18 02:21:34 Bahnzimmer 19.20 18.69 57.90
76006 2022-11-18 02:12:14 Terrasse 7.50 6.59 87.40
76005 2022-11-18 01:51:34 Bahnzimmer 19.30 18.79 57.70
76004 2022-11-18 01:44:19 Terrasse 7.50 6.58 87.10
76003 2022-11-18 01:21:33 Bahnzimmer 19.40 18.90 57.60
76002 2022-11-18 01:17:31 Terrasse 7.50 6.59 87.50
76001 2022-11-18 00:51:32 Bahnzimmer 19.60 19.11 57.40
76000 2022-11-18 00:46:48 Terrasse 7.50 6.59 87.50
75999 2022-11-18 00:21:32 Bahnzimmer 19.80 19.33 57.20
75998 2022-11-18 00:18:27 Terrasse 7.30 6.36 87.10
75997 2022-11-17 23:51:31 Bahnzimmer 20.00 19.54 56.90
75996 2022-11-17 23:50:06 Terrasse 7.20 6.25 87.10
75995 2022-11-17 23:21:45 Terrasse 7.00 6.02 86.70
75994 2022-11-17 23:21:30 Bahnzimmer 20.30 19.86 56.60
75993 2022-11-17 22:53:25 Terrasse 6.80 5.78 86.00
75992 2022-11-17 22:51:30 Bahnzimmer 20.30 19.86 56.60
75991 2022-11-17 22:25:05 Terrasse 6.60 5.53 84.90
75990 2022-11-17 22:21:29 Bahnzimmer 20.30 19.86 56.60
75989 2022-11-17 21:57:56 Terrasse 6.40 5.25 82.70
75988 2022-11-17 21:51:28 Bahnzimmer 20.30 19.87 56.70
75987 2022-11-17 21:27:00 Terrasse 6.70 5.60 83.30
75986 2022-11-17 21:21:28 Bahnzimmer 20.30 19.87 56.80
75985 2022-11-17 20:59:40 Terrasse 6.90 5.84 84.00
75984 2022-11-17 20:51:27 Bahnzimmer 20.20 19.76 56.80
75983 2022-11-17 20:30:08 Terrasse 6.90 5.81 83.00
75982 2022-11-17 20:21:26 Bahnzimmer 20.10 19.66 57.10
75981 2022-11-17 20:01:50 Terrasse 7.20 6.14 82.90
75980 2022-11-17 19:51:26 Bahnzimmer 20.20 19.77 57.10
75979 2022-11-17 19:33:32 Terrasse 7.40 6.38 83.70
75978 2022-11-17 19:21:25 Bahnzimmer 20.20 19.77 57.40
75977 2022-11-17 19:05:13 Terrasse 7.50 6.46 82.40
75976 2022-11-17 18:51:24 Bahnzimmer 20.20 19.76 56.90
75975 2022-11-17 18:36:54 Terrasse 7.80 6.78 82.20
75974 2022-11-17 18:21:24 Bahnzimmer 20.00 19.54 57.00
75973 2022-11-17 18:08:37 Terrasse 8.20 7.22 82.10
75972 2022-11-17 17:51:23 Bahnzimmer 20.00 19.54 57.00
75971 2022-11-17 17:40:19 Terrasse 8.50 7.56 82.50
75970 2022-11-17 17:21:22 Bahnzimmer 20.00 19.54 57.00
75969 2022-11-17 17:12:01 Terrasse 8.90 7.99 82.30
75968 2022-11-17 16:51:22 Bahnzimmer 20.10 19.64 56.60
75967 2022-11-17 16:43:44 Terrasse 9.00 8.12 82.80
75966 2022-11-17 16:21:21 Bahnzimmer 19.70 19.19 56.00
75965 2022-11-17 15:51:20 Bahnzimmer 20.30 19.91 58.20
75964 2022-11-17 15:44:54 Terrasse 9.40 8.55 82.40
75963 2022-11-17 15:21:20 Bahnzimmer 20.30 19.91 58.20
75962 2022-11-17 15:16:39 Terrasse 9.60 8.75 81.90
75961 2022-11-17 14:51:19 Bahnzimmer 20.10 19.69 58.20
75960 2022-11-17 14:48:21 Terrasse 9.70 8.85 81.40
75959 2022-11-17 14:21:18 Bahnzimmer 19.90 19.46 58.10
75958 2022-11-17 14:20:18 Terrasse 9.80 8.95 80.80
75957 2022-11-17 13:52:11 Terrasse 10.30 9.48 80.30
75956 2022-11-17 13:51:18 Bahnzimmer 20.00 19.56 57.80
75955 2022-11-17 13:24:23 Terrasse 10.20 9.38 80.70
75954 2022-11-17 13:21:17 Bahnzimmer 20.10 19.67 57.80
75953 2022-11-17 12:55:51 Terrasse 10.20 9.44 82.90
75952 2022-11-17 12:51:16 Bahnzimmer 20.10 19.67 57.70
75951 2022-11-17 12:27:30 Terrasse 9.80 9.05 84.70
75950 2022-11-17 12:21:16 Bahnzimmer 20.00 19.56 57.60
75949 2022-11-17 11:59:08 Terrasse 9.40 8.61 85.00
75948 2022-11-17 11:51:15 Bahnzimmer 20.00 19.55 57.20
75947 2022-11-17 11:30:49 Terrasse 9.50 8.73 85.10
75946 2022-11-17 11:21:14 Bahnzimmer 19.70 19.23 57.50
75945 2022-11-17 11:02:24 Terrasse 8.90 8.12 87.00
75944 2022-11-17 10:51:14 Bahnzimmer 19.50 19.03 58.40
75943 2022-11-17 10:34:04 Terrasse 8.60 7.77 86.40
75942 2022-11-17 10:21:13 Bahnzimmer 19.70 19.25 58.20
75941 2022-11-17 10:05:43 Terrasse 8.40 7.56 86.60
75940 2022-11-17 09:51:12 Bahnzimmer 19.50 19.03 58.20
75939 2022-11-17 09:37:23 Terrasse 8.40 7.54 85.90
75938 2022-11-17 09:21:11 Bahnzimmer 19.60 19.13 57.90
75937 2022-11-17 09:09:34 Terrasse 8.50 7.64 85.60
75936 2022-11-17 08:51:11 Bahnzimmer 19.50 19.01 57.50
75935 2022-11-17 08:41:41 Terrasse 8.30 7.43 86.00
75934 2022-11-17 08:21:10 Bahnzimmer 19.30 18.77 57.00
75933 2022-11-17 08:13:32 Terrasse 8.00 7.10 86.00
75932 2022-11-17 07:51:09 Bahnzimmer 19.30 18.76 56.50
75931 2022-11-17 07:21:09 Bahnzimmer 19.10 18.53 56.00
75930 2022-11-17 07:14:12 Terrasse 8.00 7.09 85.40
75929 2022-11-17 06:51:08 Bahnzimmer 19.50 19.00 57.10
75928 2022-11-17 06:45:58 Terrasse 7.90 6.95 84.50
75927 2022-11-17 06:21:07 Bahnzimmer 19.40 18.89 57.30
75926 2022-11-17 06:17:39 Terrasse 7.90 6.94 83.90
75925 2022-11-17 05:51:07 Bahnzimmer 19.20 18.68 57.50
75924 2022-11-17 05:49:41 Terrasse 7.90 6.96 84.80
75923 2022-11-17 05:21:25 Terrasse 7.80 6.85 84.80
75922 2022-11-17 05:21:06 Bahnzimmer 19.00 18.46 57.80
75921 2022-11-17 04:53:14 Terrasse 7.90 6.95 84.60
75920 2022-11-17 04:51:05 Bahnzimmer 18.70 18.14 58.00
75919 2022-11-17 04:24:53 Terrasse 8.00 7.06 84.60
75918 2022-11-17 04:21:05 Bahnzimmer 18.70 18.14 58.00
75917 2022-11-17 03:56:35 Terrasse 8.00 7.04 83.80
75916 2022-11-17 03:51:03 Bahnzimmer 18.80 18.25 58.00
75915 2022-11-17 03:28:16 Terrasse 8.00 7.04 83.50
75914 2022-11-17 03:21:02 Bahnzimmer 18.80 18.25 58.00
75913 2022-11-17 02:59:58 Terrasse 8.10 7.15 83.50
75912 2022-11-17 02:51:02 Bahnzimmer 18.70 18.15 58.20
75911 2022-11-17 02:31:38 Terrasse 8.20 7.24 83.00
75910 2022-11-17 02:21:01 Bahnzimmer 18.80 18.25 58.10
75909 2022-11-17 02:03:20 Terrasse 8.20 7.25 83.30
75908 2022-11-17 01:51:00 Bahnzimmer 18.90 18.36 58.00
75907 2022-11-17 01:35:01 Terrasse 8.40 7.47 83.30
75906 2022-11-17 01:21:00 Bahnzimmer 19.00 18.47 58.10
75905 2022-11-17 01:06:43 Terrasse 8.30 7.35 82.80
75904 2022-11-17 00:50:59 Bahnzimmer 19.10 18.57 57.80
75903 2022-11-17 00:38:24 Terrasse 8.40 7.47 83.10
75902 2022-11-17 00:20:58 Bahnzimmer 19.30 18.79 57.80
75901 2022-11-17 00:10:05 Terrasse 8.40 7.46 83.00
75900 2022-11-16 23:50:58 Bahnzimmer 19.50 19.00 57.40
75899 2022-11-16 23:41:48 Terrasse 8.40 7.46 82.90
75898 2022-11-16 23:20:57 Bahnzimmer 19.70 19.22 57.20
75897 2022-11-16 23:13:31 Terrasse 8.40 7.46 83.00
75896 2022-11-16 22:50:56 Bahnzimmer 19.70 19.22 57.30
75895 2022-11-16 22:45:14 Terrasse 8.50 7.57 82.80
75894 2022-11-16 22:20:56 Bahnzimmer 19.70 19.22 57.40
75893 2022-11-16 22:16:57 Terrasse 8.70 7.79 83.00
75892 2022-11-16 21:50:55 Bahnzimmer 19.50 19.01 57.70
75891 2022-11-16 21:48:41 Terrasse 8.80 7.91 83.30
75890 2022-11-16 21:20:54 Bahnzimmer 19.60 19.12 57.80
75889 2022-11-16 21:20:30 Terrasse 8.90 8.04 83.90
75888 2022-11-16 20:52:11 Terrasse 9.00 8.14 83.60
75887 2022-11-16 20:50:54 Bahnzimmer 19.40 18.89 57.20
75886 2022-11-16 20:23:56 Terrasse 9.00 8.16 84.30
75885 2022-11-16 20:20:53 Bahnzimmer 19.40 18.89 57.30
75884 2022-11-16 19:55:38 Terrasse 9.00 8.14 83.80
75883 2022-11-16 19:50:52 Bahnzimmer 19.30 18.78 57.30
75882 2022-11-16 19:27:21 Terrasse 8.90 8.03 83.70
75881 2022-11-16 19:20:52 Bahnzimmer 19.20 18.68 57.50
75880 2022-11-16 18:59:05 Terrasse 9.00 8.12 83.00
75879 2022-11-16 18:50:51 Bahnzimmer 19.20 18.67 57.30
75878 2022-11-16 18:30:48 Terrasse 9.20 8.35 83.40
75877 2022-11-16 18:20:50 Bahnzimmer 19.00 18.46 57.50
75876 2022-11-16 18:02:32 Terrasse 9.20 8.36 83.70
75875 2022-11-16 17:50:50 Bahnzimmer 18.30 17.67 56.90
75874 2022-11-16 17:34:16 Terrasse 9.20 8.34 82.80
75873 2022-11-16 17:20:49 Bahnzimmer 19.50 19.03 58.20
75872 2022-11-16 17:06:00 Terrasse 9.60 8.76 82.00
75871 2022-11-16 16:50:48 Bahnzimmer 19.30 18.81 58.40
75870 2022-11-16 16:37:45 Terrasse 9.90 9.02 79.30
75869 2022-11-16 16:20:48 Bahnzimmer 19.50 19.04 58.80
75868 2022-11-16 16:09:28 Terrasse 10.10 9.25 79.70
75867 2022-11-16 15:50:47 Bahnzimmer 19.70 19.25 58.40
75866 2022-11-16 15:41:13 Terrasse 10.30 9.43 78.30
75865 2022-11-16 15:20:46 Bahnzimmer 19.50 19.03 58.30
75864 2022-11-16 15:12:58 Terrasse 10.60 9.73 77.20
75863 2022-11-16 14:50:44 Bahnzimmer 19.50 19.01 57.70
75862 2022-11-16 14:44:43 Terrasse 11.20 10.32 74.60
75861 2022-11-16 14:20:44 Bahnzimmer 19.40 18.91 57.90
75860 2022-11-16 14:16:23 Terrasse 11.30 10.47 75.90
75859 2022-11-16 13:50:43 Bahnzimmer 19.30 18.79 57.50
75858 2022-11-16 13:48:08 Terrasse 11.00 10.11 74.80
75857 2022-11-16 13:20:43 Bahnzimmer 19.30 18.78 57.40
75856 2022-11-16 13:19:51 Terrasse 11.00 10.17 77.30
75855 2022-11-16 12:51:28 Terrasse 10.10 9.17 76.90
75854 2022-11-16 12:50:42 Bahnzimmer 19.40 18.89 57.30
75853 2022-11-16 12:23:07 Terrasse 10.10 9.18 77.20
75852 2022-11-16 12:20:41 Bahnzimmer 19.20 18.65 56.40
75851 2022-11-16 11:54:52 Terrasse 10.30 9.40 77.20
75850 2022-11-16 11:50:41 Bahnzimmer 19.50 18.96 55.80
75849 2022-11-16 11:26:31 Terrasse 10.00 9.11 78.70
75848 2022-11-16 11:20:40 Bahnzimmer 19.10 18.60 58.70
75847 2022-11-16 10:58:12 Terrasse 9.80 8.95 80.90
75846 2022-11-16 10:50:39 Bahnzimmer 19.50 19.03 58.50
75845 2022-11-16 10:29:55 Terrasse 9.50 8.67 82.80
75844 2022-11-16 10:20:38 Bahnzimmer 19.40 18.92 58.40
75843 2022-11-16 10:01:38 Terrasse 9.60 8.79 83.20
75842 2022-11-16 09:50:38 Bahnzimmer 19.50 19.03 58.30
75841 2022-11-16 09:20:37 Bahnzimmer 19.20 18.69 58.10
75840 2022-11-16 09:03:09 Terrasse 9.20 8.44 86.90
75839 2022-11-16 08:50:36 Bahnzimmer 19.10 18.60 58.70
75838 2022-11-16 08:34:38 Terrasse 9.00 8.23 87.20
75837 2022-11-16 08:20:36 Bahnzimmer 19.10 18.59 58.30
75836 2022-11-16 08:06:20 Terrasse 9.00 8.24 87.40
75835 2022-11-16 07:50:35 Bahnzimmer 19.00 18.46 57.50
75834 2022-11-16 07:38:03 Terrasse 9.00 8.23 87.30
75833 2022-11-16 07:20:34 Bahnzimmer 18.00 17.39 58.70
75832 2022-11-16 07:09:47 Terrasse 9.00 8.22 86.90
75831 2022-11-16 06:50:34 Bahnzimmer 19.00 18.46 57.70
75830 2022-11-16 06:41:48 Terrasse 9.00 8.24 87.40
75829 2022-11-16 06:20:33 Bahnzimmer 18.90 18.36 57.90
75828 2022-11-16 06:13:25 Terrasse 9.00 8.23 87.20
75827 2022-11-16 05:50:32 Bahnzimmer 18.80 18.25 57.90
75826 2022-11-16 05:45:08 Terrasse 9.00 8.22 86.80
75825 2022-11-16 05:20:32 Bahnzimmer 18.40 17.82 58.30
75824 2022-11-16 05:16:50 Terrasse 9.00 8.22 86.60
75823 2022-11-16 04:50:31 Bahnzimmer 18.10 17.50 58.90
75822 2022-11-16 04:48:33 Terrasse 9.00 8.20 86.10
75821 2022-11-16 04:20:30 Bahnzimmer 18.20 17.61 58.90
75820 2022-11-16 04:20:17 Terrasse 9.20 8.42 85.90
75819 2022-11-16 03:52:00 Terrasse 9.10 8.30 85.60
75818 2022-11-16 03:50:30 Bahnzimmer 18.20 17.61 58.70
75817 2022-11-16 03:23:45 Terrasse 9.20 8.40 85.10
75816 2022-11-16 03:20:29 Bahnzimmer 18.30 17.72 58.60
75815 2022-11-16 02:55:30 Terrasse 9.20 8.38 84.60
75814 2022-11-16 02:50:28 Bahnzimmer 18.30 17.72 58.70
75813 2022-11-16 02:27:13 Terrasse 9.30 8.49 84.50
75812 2022-11-16 02:20:28 Bahnzimmer 18.40 17.82 58.50
75811 2022-11-16 01:58:55 Terrasse 9.40 8.59 84.00
75810 2022-11-16 01:50:27 Bahnzimmer 18.40 17.82 58.50
75809 2022-11-16 01:30:40 Terrasse 9.40 8.59 84.00
75808 2022-11-16 01:20:26 Bahnzimmer 18.60 18.04 58.40
75807 2022-11-16 01:02:23 Terrasse 9.40 8.59 84.00
75806 2022-11-16 00:50:26 Bahnzimmer 18.70 18.15 58.20
75805 2022-11-16 00:34:06 Terrasse 9.50 8.69 83.50
75804 2022-11-16 00:20:25 Bahnzimmer 18.80 18.26 58.30
75803 2022-11-16 00:05:48 Terrasse 9.50 8.66 82.70
75802 2022-11-15 23:50:24 Bahnzimmer 18.90 18.37 58.20
75801 2022-11-15 23:37:30 Terrasse 9.60 8.74 81.40
75800 2022-11-15 23:20:24 Bahnzimmer 19.10 18.58 58.00
75799 2022-11-15 23:09:12 Terrasse 9.60 8.73 81.00
75798 2022-11-15 22:50:23 Bahnzimmer 19.10 18.58 57.90
75797 2022-11-15 22:40:53 Terrasse 9.80 8.94 80.50
75796 2022-11-15 22:20:22 Bahnzimmer 19.10 18.57 57.80
75795 2022-11-15 22:12:35 Terrasse 9.80 8.94 80.70
75794 2022-11-15 21:50:22 Bahnzimmer 19.10 18.58 58.00
75793 2022-11-15 21:44:16 Terrasse 9.90 9.04 80.30
75792 2022-11-15 21:20:21 Bahnzimmer 19.00 18.47 58.10
75791 2022-11-15 21:15:58 Terrasse 10.00 9.10 78.40
75790 2022-11-15 20:50:20 Bahnzimmer 19.10 18.58 57.90
75789 2022-11-15 20:47:41 Terrasse 10.00 9.09 78.00
75788 2022-11-15 20:20:20 Bahnzimmer 19.00 18.47 58.10
75787 2022-11-15 20:19:23 Terrasse 10.10 9.20 78.00
75786 2022-11-15 19:51:03 Terrasse 10.10 9.20 78.00
75785 2022-11-15 19:50:19 Bahnzimmer 19.00 18.47 58.10
75784 2022-11-15 19:22:43 Terrasse 10.00 9.10 78.20
75783 2022-11-15 19:20:18 Bahnzimmer 19.00 18.47 58.00
75782 2022-11-15 18:54:25 Terrasse 10.00 9.13 79.30
75781 2022-11-15 18:50:18 Bahnzimmer 19.10 18.58 58.00
75780 2022-11-15 18:26:04 Terrasse 10.10 9.24 79.50
75779 2022-11-15 18:20:17 Bahnzimmer 19.30 18.80 58.00
75778 2022-11-15 17:57:46 Terrasse 10.20 9.37 80.20
75777 2022-11-15 17:50:16 Bahnzimmer 19.30 18.80 58.00
75776 2022-11-15 17:29:48 Terrasse 10.20 9.37 80.30
75775 2022-11-15 17:20:16 Bahnzimmer 19.40 18.91 57.90
75774 2022-11-15 17:01:23 Terrasse 10.40 9.58 79.90
75773 2022-11-15 16:50:15 Bahnzimmer 19.50 19.02 57.90
75772 2022-11-15 16:33:07 Terrasse 10.60 9.79 79.50
75771 2022-11-15 16:20:14 Bahnzimmer 19.60 19.12 57.80
75770 2022-11-15 16:04:50 Terrasse 10.80 10.00 79.20
75769 2022-11-15 15:50:14 Bahnzimmer 19.50 19.02 58.00
75768 2022-11-15 15:37:08 Terrasse 11.00 10.22 79.00
75767 2022-11-15 15:20:13 Bahnzimmer 19.50 19.00 57.40
75766 2022-11-15 15:08:34 Terrasse 11.20 10.43 78.70
75765 2022-11-15 14:50:12 Bahnzimmer 19.40 18.88 57.00
75764 2022-11-15 14:40:19 Terrasse 11.20 10.41 78.00
75763 2022-11-15 14:20:12 Bahnzimmer 19.30 18.78 57.10
75762 2022-11-15 14:12:03 Terrasse 11.50 10.72 77.10
75761 2022-11-15 13:50:11 Bahnzimmer 19.20 18.67 57.40
75760 2022-11-15 13:43:47 Terrasse 11.70 10.94 77.20
75759 2022-11-15 13:20:10 Bahnzimmer 19.30 18.77 57.00
75758 2022-11-15 13:16:05 Terrasse 11.00 10.20 78.30
75757 2022-11-15 12:50:09 Bahnzimmer 19.10 18.54 56.50
75756 2022-11-15 12:47:26 Terrasse 11.30 10.51 77.40
75755 2022-11-15 12:20:09 Bahnzimmer 19.30 18.78 57.30
75754 2022-11-15 12:19:36 Terrasse 11.00 10.24 79.80
75753 2022-11-15 11:50:59 Terrasse 10.60 9.81 80.40
75752 2022-11-15 11:50:08 Bahnzimmer 19.50 18.99 56.80
75751 2022-11-15 11:22:40 Terrasse 10.40 9.60 80.70
75750 2022-11-15 11:20:07 Bahnzimmer 19.30 18.76 56.60
75749 2022-11-15 10:54:19 Terrasse 10.00 9.18 81.50
75748 2022-11-15 10:50:07 Bahnzimmer 19.20 18.66 56.70
75747 2022-11-15 10:25:58 Terrasse 9.50 8.66 82.40
75746 2022-11-15 10:20:06 Bahnzimmer 19.40 18.88 56.90
75745 2022-11-15 09:57:37 Terrasse 9.30 8.43 82.20
75744 2022-11-15 09:50:05 Bahnzimmer 19.30 18.77 56.80
75743 2022-11-15 09:29:17 Terrasse 9.10 8.21 82.10
75742 2022-11-15 09:20:05 Bahnzimmer 19.20 18.66 56.70
75741 2022-11-15 09:01:08 Terrasse 8.70 7.78 82.50
75740 2022-11-15 08:50:04 Bahnzimmer 19.20 18.67 57.20
75739 2022-11-15 08:32:46 Terrasse 8.50 7.55 82.10
75738 2022-11-15 08:20:03 Bahnzimmer 19.20 18.67 57.10
75737 2022-11-15 08:04:27 Terrasse 8.40 7.43 81.90
75736 2022-11-15 07:50:03 Bahnzimmer 19.10 18.54 56.60
75735 2022-11-15 07:36:10 Terrasse 8.50 7.49 79.70
75734 2022-11-15 07:20:02 Bahnzimmer 18.90 18.31 56.00
75733 2022-11-15 07:07:52 Terrasse 8.50 7.49 79.70
75732 2022-11-15 06:50:01 Bahnzimmer 18.80 18.20 56.00
75731 2022-11-15 06:39:35 Terrasse 8.40 7.41 80.90
75730 2022-11-15 06:20:00 Bahnzimmer 18.70 18.09 56.20
75729 2022-11-15 06:11:16 Terrasse 8.30 7.30 80.90
75728 2022-11-15 05:50:00 Bahnzimmer 18.60 17.98 56.20
75727 2022-11-15 05:42:57 Terrasse 8.40 7.38 80.00
75726 2022-11-15 05:19:59 Bahnzimmer 18.30 17.66 56.50
75725 2022-11-15 05:14:39 Terrasse 8.20 7.15 79.60
75724 2022-11-15 04:49:58 Bahnzimmer 18.00 17.34 56.90
75723 2022-11-15 04:46:19 Terrasse 8.20 7.18 80.50
75722 2022-11-15 04:19:58 Bahnzimmer 18.00 17.34 56.80
75721 2022-11-15 04:18:00 Terrasse 8.10 7.09 81.20
75720 2022-11-15 03:49:57 Bahnzimmer 18.00 17.34 56.80
75719 2022-11-15 03:49:43 Terrasse 8.00 6.98 81.20
75718 2022-11-15 03:21:23 Terrasse 8.00 6.97 81.10
75717 2022-11-15 03:19:56 Bahnzimmer 18.10 17.45 56.70
75716 2022-11-15 02:53:04 Terrasse 7.80 6.76 81.50
75715 2022-11-15 02:49:56 Bahnzimmer 18.10 17.45 56.70
75714 2022-11-15 02:24:44 Terrasse 7.80 6.77 81.60
75713 2022-11-15 02:19:55 Bahnzimmer 18.20 17.56 56.70
75712 2022-11-15 01:56:27 Terrasse 7.80 6.78 82.00
75711 2022-11-15 01:49:54 Bahnzimmer 18.30 17.66 56.50
75710 2022-11-15 01:28:08 Terrasse 7.80 6.77 81.80
75709 2022-11-15 01:19:54 Bahnzimmer 18.40 17.77 56.30
75708 2022-11-15 00:59:49 Terrasse 7.70 6.66 81.60
75707 2022-11-15 00:49:53 Bahnzimmer 18.60 17.98 56.10
75706 2022-11-15 00:31:30 Terrasse 7.70 6.65 81.50
75705 2022-11-15 00:19:52 Bahnzimmer 18.70 18.09 56.20
75704 2022-11-15 00:03:10 Terrasse 7.50 6.44 81.80
75703 2022-11-14 23:49:52 Bahnzimmer 18.80 18.20 56.10
75702 2022-11-14 23:34:54 Terrasse 7.40 6.32 81.50
75701 2022-11-14 23:19:51 Bahnzimmer 19.00 18.41 55.80
75700 2022-11-14 23:06:36 Terrasse 7.40 6.32 81.30
75699 2022-11-14 22:49:50 Bahnzimmer 19.00 18.41 55.80
75698 2022-11-14 22:38:20 Terrasse 7.40 6.31 80.80
75697 2022-11-14 22:19:49 Bahnzimmer 18.80 18.20 56.00
75696 2022-11-14 22:10:06 Terrasse 7.40 6.29 80.20
75695 2022-11-14 21:49:49 Bahnzimmer 18.90 18.30 55.80
75694 2022-11-14 21:41:51 Terrasse 7.60 6.50 80.00
75693 2022-11-14 21:19:48 Bahnzimmer 18.70 18.09 56.00
75692 2022-11-14 21:13:35 Terrasse 7.90 6.84 80.30
75691 2022-11-14 20:49:47 Bahnzimmer 18.90 18.30 55.80
75690 2022-11-14 20:45:19 Terrasse 7.70 6.61 79.70
75689 2022-11-14 20:19:47 Bahnzimmer 19.00 18.41 55.60
75688 2022-11-14 20:17:05 Terrasse 7.80 6.72 79.90
75687 2022-11-14 19:49:46 Bahnzimmer 19.00 18.41 55.60
75686 2022-11-14 19:48:48 Terrasse 7.60 6.49 79.50
75685 2022-11-14 19:20:33 Terrasse 7.60 6.49 79.40
75684 2022-11-14 19:19:45 Bahnzimmer 19.00 18.40 55.40
75683 2022-11-14 18:52:17 Terrasse 7.60 6.48 78.90
75682 2022-11-14 18:49:45 Bahnzimmer 19.00 18.41 55.70
75681 2022-11-14 18:24:01 Terrasse 7.60 6.48 79.10
75680 2022-11-14 18:19:44 Bahnzimmer 18.90 18.29 55.20
75679 2022-11-14 17:55:46 Terrasse 7.60 6.47 78.80
75678 2022-11-14 17:49:43 Bahnzimmer 18.80 18.19 55.80
75677 2022-11-14 17:27:32 Terrasse 7.80 6.70 79.10
75676 2022-11-14 17:19:43 Bahnzimmer 19.00 18.40 55.30
75675 2022-11-14 16:59:15 Terrasse 7.80 6.71 79.60
75674 2022-11-14 16:49:42 Bahnzimmer 19.10 18.51 55.20
75673 2022-11-14 16:31:00 Terrasse 7.80 6.71 79.30
75672 2022-11-14 16:19:41 Bahnzimmer 19.00 18.40 55.20
75671 2022-11-14 16:02:45 Terrasse 7.80 6.69 78.70
75670 2022-11-14 15:49:41 Bahnzimmer 19.10 18.51 55.20
75669 2022-11-14 15:34:28 Terrasse 7.60 6.44 77.70
75668 2022-11-14 15:19:40 Bahnzimmer 18.90 18.28 55.00
75667 2022-11-14 15:06:27 Terrasse 7.70 6.53 76.70
75666 2022-11-14 14:49:39 Bahnzimmer 18.90 18.27 54.50
75665 2022-11-14 14:38:08 Terrasse 7.80 6.62 75.90
75664 2022-11-14 14:19:38 Bahnzimmer 18.80 18.15 54.00
75663 2022-11-14 14:09:53 Terrasse 8.10 6.86 72.40
75662 2022-11-14 13:49:38 Bahnzimmer 18.90 18.26 54.30
75661 2022-11-14 13:42:01 Terrasse 8.40 7.15 70.90
75660 2022-11-14 13:19:37 Bahnzimmer 19.00 18.35 53.50
75659 2022-11-14 12:49:37 Bahnzimmer 19.30 18.75 56.00
75658 2022-11-14 12:41:58 Terrasse 8.00 6.73 71.90
75657 2022-11-14 12:19:36 Bahnzimmer 19.20 18.64 56.10
75656 2022-11-14 12:13:32 Terrasse 6.60 5.27 75.00
75655 2022-11-14 11:49:35 Bahnzimmer 19.30 18.74 55.70
75654 2022-11-14 11:45:12 Terrasse 5.80 4.42 76.10
75653 2022-11-14 11:19:35 Bahnzimmer 19.10 18.52 55.70
75652 2022-11-14 11:16:57 Terrasse 5.60 4.21 76.20
75651 2022-11-14 10:49:34 Bahnzimmer 19.30 18.75 56.20
75650 2022-11-14 10:48:40 Terrasse 5.30 3.89 76.70
75649 2022-11-14 10:20:23 Terrasse 5.30 3.87 76.10
75648 2022-11-14 10:19:33 Bahnzimmer 19.20 18.63 55.80
75647 2022-11-14 09:52:08 Terrasse 5.30 3.86 75.50
75646 2022-11-14 09:49:33 Bahnzimmer 19.30 18.74 55.70
75645 2022-11-14 09:23:51 Terrasse 5.20 3.74 75.10
75644 2022-11-14 09:19:32 Bahnzimmer 19.00 18.40 55.20
75643 2022-11-14 08:55:35 Terrasse 5.20 3.72 74.50
75642 2022-11-14 08:49:31 Bahnzimmer 19.10 18.51 55.20
75641 2022-11-14 08:27:20 Terrasse 5.20 3.73 74.80
75640 2022-11-14 08:19:31 Bahnzimmer 18.90 18.31 56.10
75639 2022-11-14 07:59:03 Terrasse 5.10 3.61 74.40
75638 2022-11-14 07:49:30 Bahnzimmer 18.90 18.29 55.50
75637 2022-11-14 07:30:50 Terrasse 5.30 3.80 73.50
75636 2022-11-14 07:19:29 Bahnzimmer 18.90 18.26 54.30
75635 2022-11-14 07:02:36 Terrasse 5.30 3.78 72.40
75634 2022-11-14 06:49:29 Bahnzimmer 18.80 18.16 54.70
75633 2022-11-14 06:19:28 Bahnzimmer 18.70 18.06 54.80
75632 2022-11-14 06:02:33 Terrasse 5.50 4.00 72.40
75631 2022-11-14 05:49:27 Bahnzimmer 18.60 17.95 55.10
75630 2022-11-14 05:34:19 Terrasse 5.40 3.89 72.40
75629 2022-11-14 05:19:26 Bahnzimmer 18.40 17.73 55.00
75628 2022-11-14 05:06:03 Terrasse 5.30 3.76 71.80
75627 2022-11-14 04:49:26 Bahnzimmer 18.10 17.40 54.80
75626 2022-11-14 04:37:49 Terrasse 5.50 3.98 71.60
75625 2022-11-14 04:19:25 Bahnzimmer 18.00 17.29 55.10
75624 2022-11-14 04:09:34 Terrasse 5.60 4.07 71.20
75623 2022-11-14 03:49:24 Bahnzimmer 18.10 17.40 55.10
75622 2022-11-14 03:41:21 Terrasse 5.70 4.18 70.90
75621 2022-11-14 03:19:24 Bahnzimmer 18.10 17.41 55.20
75620 2022-11-14 03:13:07 Terrasse 6.10 4.60 70.10
75619 2022-11-14 02:49:23 Bahnzimmer 18.00 17.30 55.30
75618 2022-11-14 02:44:53 Terrasse 6.50 5.01 69.00
75617 2022-11-14 02:19:22 Bahnzimmer 18.10 17.40 55.10
75616 2022-11-14 02:16:40 Terrasse 7.00 5.53 68.00
75615 2022-11-14 01:49:22 Bahnzimmer 18.10 17.41 55.20
75614 2022-11-14 01:48:27 Terrasse 7.10 5.63 67.50
75613 2022-11-14 01:20:11 Terrasse 7.40 5.94 66.80
75612 2022-11-14 01:19:21 Bahnzimmer 18.20 17.51 55.10
75611 2022-11-14 00:51:58 Terrasse 7.40 5.93 66.50
75610 2022-11-14 00:49:20 Bahnzimmer 18.20 17.52 55.20
75609 2022-11-14 00:23:42 Terrasse 7.60 6.15 66.50
75608 2022-11-14 00:19:20 Bahnzimmer 18.30 17.62 55.10
75607 2022-11-13 23:55:25 Terrasse 7.70 6.26 66.50
75606 2022-11-13 23:49:19 Bahnzimmer 18.40 17.74 55.40
75605 2022-11-13 23:27:08 Terrasse 7.80 6.36 66.20
75604 2022-11-13 23:19:18 Bahnzimmer 18.50 17.85 55.40
75603 2022-11-13 22:58:51 Terrasse 7.90 6.47 66.10
75602 2022-11-13 22:49:18 Bahnzimmer 18.40 17.74 55.50
75601 2022-11-13 22:30:34 Terrasse 8.00 6.57 65.50
75600 2022-11-13 22:19:17 Bahnzimmer 18.40 17.74 55.20
75599 2022-11-13 22:02:17 Terrasse 8.00 6.53 64.30
75598 2022-11-13 21:49:16 Bahnzimmer 18.40 17.74 55.40
75597 2022-11-13 21:34:01 Terrasse 8.00 6.53 64.30
75596 2022-11-13 21:19:16 Bahnzimmer 18.30 17.63 55.50
75595 2022-11-13 21:05:44 Terrasse 8.10 6.64 64.10
75594 2022-11-13 20:49:15 Bahnzimmer 18.40 17.74 55.40
75593 2022-11-13 20:37:28 Terrasse 8.50 7.05 62.80
75592 2022-11-13 20:19:14 Bahnzimmer 18.20 17.52 55.50
75591 2022-11-13 20:09:13 Terrasse 9.00 7.55 60.90
75590 2022-11-13 19:49:14 Bahnzimmer 18.30 17.62 54.80
75589 2022-11-13 19:40:57 Terrasse 9.10 7.60 58.70
75588 2022-11-13 19:19:13 Bahnzimmer 18.40 17.72 54.70
75587 2022-11-13 19:12:39 Terrasse 9.30 7.82 58.70
75586 2022-11-13 18:49:12 Bahnzimmer 18.50 17.84 55.10
75585 2022-11-13 18:44:24 Terrasse 9.50 8.03 58.30
75584 2022-11-13 18:19:12 Bahnzimmer 18.40 17.73 55.00
75583 2022-11-13 18:16:09 Terrasse 10.00 8.55 57.40
75582 2022-11-13 17:49:11 Bahnzimmer 18.20 17.49 54.30
75581 2022-11-13 17:47:53 Terrasse 10.40 8.94 55.40
75580 2022-11-13 17:19:41 Terrasse 11.10 9.68 54.00
75579 2022-11-13 17:19:10 Bahnzimmer 18.20 17.52 55.50
75578 2022-11-13 16:51:32 Terrasse 12.50 11.14 51.00
75577 2022-11-13 16:49:10 Bahnzimmer 18.10 17.42 55.70
75576 2022-11-13 16:23:21 Terrasse 13.70 12.39 48.50
75575 2022-11-13 16:19:09 Bahnzimmer 18.10 17.42 55.80
75574 2022-11-13 15:55:17 Terrasse 15.50 14.32 46.70
75573 2022-11-13 15:49:08 Bahnzimmer 18.10 17.42 55.80
75572 2022-11-13 15:27:01 Terrasse 17.60 16.68 48.40
75571 2022-11-13 15:19:08 Bahnzimmer 18.20 17.53 55.60
75570 2022-11-13 14:58:32 Terrasse 15.00 13.94 53.10
75569 2022-11-13 14:49:07 Bahnzimmer 18.30 17.63 55.30
75568 2022-11-13 14:30:15 Terrasse 15.20 14.27 57.30
75567 2022-11-13 14:19:06 Bahnzimmer 18.40 17.74 55.20
75566 2022-11-13 14:01:56 Terrasse 15.40 14.39 53.40
75565 2022-11-13 13:49:06 Bahnzimmer 18.40 17.73 55.10
75564 2022-11-13 13:33:43 Terrasse 15.80 14.73 49.60
75563 2022-11-13 13:19:05 Bahnzimmer 18.40 17.73 54.80
75562 2022-11-13 13:05:22 Terrasse 15.60 14.41 45.70
75561 2022-11-13 12:49:04 Bahnzimmer 18.60 17.93 54.30
75560 2022-11-13 12:37:07 Terrasse 15.20 14.05 48.70
75559 2022-11-13 12:19:04 Bahnzimmer 18.60 17.93 54.20
75558 2022-11-13 12:08:53 Terrasse 14.90 13.80 51.90
75557 2022-11-13 11:49:03 Bahnzimmer 18.70 18.03 53.80
75556 2022-11-13 11:40:24 Terrasse 13.10 11.99 58.20
75555 2022-11-13 11:19:02 Bahnzimmer 18.80 18.12 53.10
75554 2022-11-13 11:11:46 Terrasse 11.60 10.37 59.70
75553 2022-11-13 10:49:02 Bahnzimmer 18.90 18.24 53.60
75552 2022-11-13 10:44:14 Terrasse 10.20 8.91 62.60
75551 2022-11-13 10:19:01 Bahnzimmer 19.20 18.51 51.30
75550 2022-11-13 10:15:38 Terrasse 8.60 7.25 66.30
75549 2022-11-13 09:49:00 Bahnzimmer 17.90 16.92 45.10
75548 2022-11-13 09:46:51 Terrasse 6.90 5.48 70.10
75547 2022-11-13 09:19:00 Bahnzimmer 19.70 19.18 55.70
75546 2022-11-13 09:18:27 Terrasse 5.70 4.17 70.60
75545 2022-11-13 08:50:03 Terrasse 5.00 3.48 73.70
75544 2022-11-13 08:48:59 Bahnzimmer 19.60 19.07 55.80
75543 2022-11-13 08:21:45 Terrasse 4.80 3.27 73.90
75542 2022-11-13 08:18:58 Bahnzimmer 19.50 18.97 56.00
75541 2022-11-13 07:53:27 Terrasse 4.90 3.36 73.20
75540 2022-11-13 07:48:58 Bahnzimmer 19.30 18.75 56.20
75539 2022-11-13 07:25:10 Terrasse 4.90 3.35 73.00
75538 2022-11-13 07:18:57 Bahnzimmer 19.20 18.65 56.40
75537 2022-11-13 06:56:53 Terrasse 5.10 3.59 73.70
75536 2022-11-13 06:48:56 Bahnzimmer 19.00 18.43 56.40
75535 2022-11-13 06:28:36 Terrasse 5.10 3.57 73.10
75534 2022-11-13 06:18:56 Bahnzimmer 18.60 18.00 57.00
75533 2022-11-13 06:00:21 Terrasse 5.30 3.79 73.00
75532 2022-11-13 05:48:55 Bahnzimmer 18.60 17.99 56.50
75531 2022-11-13 05:32:06 Terrasse 5.40 3.91 73.20
75530 2022-11-13 05:18:54 Bahnzimmer 18.60 18.00 56.70
75529 2022-11-13 05:03:52 Terrasse 5.50 4.03 73.60
75528 2022-11-13 04:48:54 Bahnzimmer 18.60 17.99 56.60
75527 2022-11-13 04:35:37 Terrasse 5.80 4.36 73.80
75526 2022-11-13 04:18:53 Bahnzimmer 18.60 18.00 56.80
75525 2022-11-13 04:07:22 Terrasse 6.10 4.68 73.50
75524 2022-11-13 03:48:52 Bahnzimmer 18.60 18.00 56.70
75523 2022-11-13 03:39:09 Terrasse 6.40 5.02 73.60
75522 2022-11-13 03:18:52 Bahnzimmer 18.50 17.89 57.00
75521 2022-11-13 03:10:54 Terrasse 6.50 5.09 72.20
75520 2022-11-13 02:48:51 Bahnzimmer 18.60 18.00 56.90
75519 2022-11-13 02:42:39 Terrasse 6.60 5.23 73.50
75518 2022-11-13 02:18:50 Bahnzimmer 18.60 18.01 57.10
75517 2022-11-13 02:14:23 Terrasse 6.80 5.45 73.40
75516 2022-11-13 01:48:50 Bahnzimmer 18.60 18.01 57.20
75515 2022-11-13 01:46:08 Terrasse 7.10 5.74 71.90
75514 2022-11-13 01:18:49 Bahnzimmer 18.70 18.12 57.20
75513 2022-11-13 01:17:51 Terrasse 7.00 5.60 70.50
75512 2022-11-13 00:49:34 Terrasse 6.70 5.26 70.30
75511 2022-11-13 00:48:48 Bahnzimmer 18.80 18.22 56.80
75510 2022-11-13 00:21:15 Terrasse 6.40 4.94 70.70
75509 2022-11-13 00:18:48 Bahnzimmer 19.00 18.43 56.50
75508 2022-11-12 23:52:54 Terrasse 6.00 4.50 70.60
75507 2022-11-12 23:48:47 Bahnzimmer 19.10 18.56 57.10
75506 2022-11-12 23:24:35 Terrasse 5.90 4.45 73.00
75505 2022-11-12 23:18:46 Bahnzimmer 19.20 18.66 57.00
75504 2022-11-12 22:56:17 Terrasse 5.90 4.48 74.00
75503 2022-11-12 22:48:46 Bahnzimmer 19.20 18.67 57.10
75502 2022-11-12 22:27:58 Terrasse 5.90 4.54 76.20
75501 2022-11-12 22:18:45 Bahnzimmer 19.20 18.66 57.00
75500 2022-11-12 21:59:41 Terrasse 6.10 4.78 77.30
75499 2022-11-12 21:48:44 Bahnzimmer 19.20 18.67 57.10
75498 2022-11-12 21:31:22 Terrasse 6.20 4.91 77.90
75497 2022-11-12 21:18:44 Bahnzimmer 19.20 18.67 57.10
75496 2022-11-12 21:03:04 Terrasse 6.30 5.04 78.80
75495 2022-11-12 20:48:43 Bahnzimmer 19.30 18.78 57.10
75494 2022-11-12 20:34:47 Terrasse 6.40 5.17 79.60
75493 2022-11-12 20:18:42 Bahnzimmer 19.20 18.67 57.20
75492 2022-11-12 20:06:29 Terrasse 6.30 5.06 79.40
75491 2022-11-12 19:48:42 Bahnzimmer 19.20 18.68 57.70
75490 2022-11-12 19:38:25 Terrasse 6.40 5.19 80.40
75489 2022-11-12 19:18:41 Bahnzimmer 19.40 18.89 57.20
75488 2022-11-12 19:10:05 Terrasse 6.70 5.55 81.20
75487 2022-11-12 18:48:40 Bahnzimmer 19.00 18.45 57.10
75486 2022-11-12 18:41:47 Terrasse 6.80 5.65 81.10
75485 2022-11-12 18:18:40 Bahnzimmer 18.50 17.90 57.30
75484 2022-11-12 18:13:29 Terrasse 7.00 5.89 81.70
75483 2022-11-12 17:48:39 Bahnzimmer 18.50 17.91 57.50
75482 2022-11-12 17:45:14 Terrasse 7.00 5.88 81.40
75481 2022-11-12 17:18:38 Bahnzimmer 18.60 18.01 57.40
75480 2022-11-12 17:17:00 Terrasse 7.50 6.43 81.50
75479 2022-11-12 16:48:44 Terrasse 8.00 6.98 81.50
75478 2022-11-12 16:48:38 Bahnzimmer 18.70 18.12 57.20
75477 2022-11-12 16:20:28 Terrasse 8.50 7.54 81.60
75476 2022-11-12 16:18:37 Bahnzimmer 18.70 18.11 56.90
75475 2022-11-12 15:52:14 Terrasse 8.90 7.96 81.00
75474 2022-11-12 15:48:37 Bahnzimmer 18.80 18.22 56.70
75473 2022-11-12 15:25:43 Terrasse 9.00 8.06 80.60
75472 2022-11-12 15:18:36 Bahnzimmer 18.80 18.18 55.30
75471 2022-11-12 14:53:55 Terrasse 9.00 8.08 81.40
75470 2022-11-12 14:48:35 Bahnzimmer 19.10 18.56 57.10
75469 2022-11-12 14:25:32 Terrasse 8.80 7.87 81.60
75468 2022-11-12 14:18:34 Bahnzimmer 19.30 18.77 56.80
75467 2022-11-12 13:57:15 Terrasse 8.90 7.98 81.60
75466 2022-11-12 13:48:34 Bahnzimmer 19.40 18.88 56.80
75465 2022-11-12 13:28:58 Terrasse 9.00 8.06 80.60
75464 2022-11-12 13:18:33 Bahnzimmer 19.40 18.88 57.00
75463 2022-11-12 13:00:39 Terrasse 8.60 7.63 81.10
75462 2022-11-12 12:48:32 Bahnzimmer 19.50 18.99 56.70
75461 2022-11-12 12:32:16 Terrasse 8.00 7.02 82.90
75460 2022-11-12 12:18:32 Bahnzimmer 19.50 18.99 56.70
75459 2022-11-12 12:03:56 Terrasse 7.50 6.48 83.10
75458 2022-11-12 11:48:31 Bahnzimmer 19.50 18.99 57.00
75457 2022-11-12 11:35:33 Terrasse 6.90 5.85 84.30
75456 2022-11-12 11:18:30 Bahnzimmer 19.70 19.21 56.70
75455 2022-11-12 11:07:14 Terrasse 6.50 5.41 84.50
75454 2022-11-12 10:48:30 Bahnzimmer 19.70 19.21 56.70
75453 2022-11-12 10:38:57 Terrasse 6.60 5.50 83.70
75452 2022-11-12 10:18:29 Bahnzimmer 19.90 19.43 56.70
75451 2022-11-12 10:10:34 Terrasse 6.10 4.98 84.80
75450 2022-11-12 09:48:28 Bahnzimmer 20.00 19.54 56.90
75449 2022-11-12 09:42:10 Terrasse 5.30 4.13 85.90
75448 2022-11-12 09:18:28 Bahnzimmer 20.00 19.53 56.40
75447 2022-11-12 09:13:45 Terrasse 4.30 2.96 83.20
75446 2022-11-12 08:48:27 Bahnzimmer 19.90 19.41 56.00
75445 2022-11-12 08:45:28 Terrasse 4.00 2.68 85.20
75444 2022-11-12 08:18:27 Bahnzimmer 19.70 19.19 56.10
75443 2022-11-12 08:17:08 Terrasse 3.50 2.06 82.40
75442 2022-11-12 07:48:49 Terrasse 3.10 1.60 81.90
75441 2022-11-12 07:48:26 Bahnzimmer 19.60 19.09 56.30
75440 2022-11-12 07:20:32 Terrasse 3.10 1.60 81.70
75439 2022-11-12 07:18:25 Bahnzimmer 19.50 18.98 56.40
75438 2022-11-12 06:52:17 Terrasse 3.30 1.83 82.30
75437 2022-11-12 06:48:24 Bahnzimmer 19.30 18.76 56.50
75436 2022-11-12 06:24:01 Terrasse 3.50 2.09 83.60
75435 2022-11-12 06:18:24 Bahnzimmer 18.80 18.23 57.30
75434 2022-11-12 05:55:44 Terrasse 3.50 2.06 82.70
75433 2022-11-12 05:48:23 Bahnzimmer 18.80 18.23 57.30
75432 2022-11-12 05:27:29 Terrasse 3.50 2.02 81.00
75431 2022-11-12 05:18:22 Bahnzimmer 18.80 18.23 57.40
75430 2022-11-12 04:59:24 Terrasse 3.90 2.51 83.00
75429 2022-11-12 04:48:22 Bahnzimmer 18.90 18.34 57.30
75428 2022-11-12 04:31:06 Terrasse 4.00 2.57 80.90
75427 2022-11-12 04:18:21 Bahnzimmer 18.80 18.23 57.40
75426 2022-11-12 04:02:53 Terrasse 4.40 3.02 81.40
75425 2022-11-12 03:48:21 Bahnzimmer 18.90 18.34 57.20
75424 2022-11-12 03:34:36 Terrasse 4.40 3.00 80.70
75423 2022-11-12 03:18:20 Bahnzimmer 18.90 18.34 57.30
75422 2022-11-12 03:06:21 Terrasse 4.50 3.14 81.80
75421 2022-11-12 02:48:19 Bahnzimmer 18.80 18.24 57.50
75420 2022-11-12 02:38:05 Terrasse 4.20 2.78 80.50
75419 2022-11-12 02:18:19 Bahnzimmer 18.90 18.34 57.40
75418 2022-11-12 02:09:50 Terrasse 4.20 2.74 79.00
75417 2022-11-12 01:48:18 Bahnzimmer 18.90 18.34 57.40
75416 2022-11-12 01:41:34 Terrasse 4.40 3.00 80.50
75415 2022-11-12 01:18:17 Bahnzimmer 19.00 18.45 57.40
75414 2022-11-12 01:13:18 Terrasse 4.30 2.84 78.50
75413 2022-11-12 00:48:17 Bahnzimmer 19.10 18.56 57.40
75412 2022-11-12 00:45:04 Terrasse 4.50 3.06 78.80
75411 2022-11-12 00:18:16 Bahnzimmer 19.30 18.78 57.20
75410 2022-11-12 00:16:52 Terrasse 4.90 3.51 79.20
75409 2022-11-11 23:48:36 Terrasse 5.00 3.66 80.60
75408 2022-11-11 23:48:15 Bahnzimmer 19.50 18.99 56.70
75407 2022-11-11 23:20:19 Terrasse 5.10 3.76 80.20
75406 2022-11-11 23:18:15 Bahnzimmer 19.60 19.09 56.60
75405 2022-11-11 22:52:01 Terrasse 5.10 3.73 79.10
75404 2022-11-11 22:48:14 Bahnzimmer 19.60 19.09 56.60
75403 2022-11-11 22:23:46 Terrasse 5.20 3.81 78.10
75402 2022-11-11 22:18:13 Bahnzimmer 19.60 19.09 56.60
75401 2022-11-11 21:56:58 Terrasse 5.60 4.31 80.10
75400 2022-11-11 21:48:13 Bahnzimmer 19.50 18.98 56.60
75399 2022-11-11 21:26:36 Terrasse 5.50 4.18 79.60
75398 2022-11-11 21:18:12 Bahnzimmer 19.40 18.88 56.70
75397 2022-11-11 20:58:21 Terrasse 5.60 4.25 77.90
75396 2022-11-11 20:48:11 Bahnzimmer 19.40 18.88 56.70
75395 2022-11-11 20:30:06 Terrasse 6.00 4.69 77.80
75394 2022-11-11 20:18:11 Bahnzimmer 19.40 18.87 56.50
75393 2022-11-11 20:01:49 Terrasse 6.50 5.26 78.70
75392 2022-11-11 19:48:10 Bahnzimmer 19.30 18.76 56.60
75391 2022-11-11 19:33:32 Terrasse 6.50 5.27 78.90
75390 2022-11-11 19:18:09 Bahnzimmer 19.30 18.76 56.40
75389 2022-11-11 19:05:14 Terrasse 6.30 5.04 78.70
75388 2022-11-11 18:48:09 Bahnzimmer 19.20 18.64 56.10
75387 2022-11-11 18:36:59 Terrasse 6.60 5.40 79.70
75386 2022-11-11 18:18:08 Bahnzimmer 19.10 18.52 55.90
75385 2022-11-11 18:08:46 Terrasse 6.90 5.71 79.10
75384 2022-11-11 17:48:07 Bahnzimmer 19.00 18.38 54.70
75383 2022-11-11 17:40:30 Terrasse 7.50 6.36 78.60
75382 2022-11-11 17:18:07 Bahnzimmer 19.60 19.15 58.80
75381 2022-11-11 17:12:17 Terrasse 8.20 7.08 76.80
75380 2022-11-11 16:48:06 Bahnzimmer 19.40 18.91 57.90
75379 2022-11-11 16:44:05 Terrasse 8.90 7.85 76.70
75378 2022-11-11 16:18:06 Bahnzimmer 19.20 18.71 58.90
75377 2022-11-11 16:16:08 Terrasse 10.20 9.23 74.80
75376 2022-11-11 15:48:08 Terrasse 11.10 10.18 73.20
75375 2022-11-11 15:48:05 Bahnzimmer 19.10 18.58 57.90
75374 2022-11-11 15:19:40 Terrasse 10.50 9.56 74.90
75373 2022-11-11 15:18:00 Bahnzimmer 18.70 18.12 57.40
75372 2022-11-11 14:51:27 Terrasse 10.30 9.32 73.90
75371 2022-11-11 14:48:00 Bahnzimmer 18.50 17.91 57.80
75370 2022-11-11 14:23:17 Terrasse 11.70 10.78 71.00
75369 2022-11-11 14:17:59 Bahnzimmer 18.50 17.88 56.60
75368 2022-11-11 13:55:00 Terrasse 12.00 11.09 70.40
75367 2022-11-11 13:47:58 Bahnzimmer 19.10 18.59 58.30
75366 2022-11-11 13:26:48 Terrasse 12.80 11.93 68.70
75365 2022-11-11 13:17:58 Bahnzimmer 19.20 18.69 58.10
75364 2022-11-11 12:58:43 Terrasse 12.90 12.10 70.90
75363 2022-11-11 12:47:57 Bahnzimmer 19.30 18.78 57.40
75362 2022-11-11 12:30:45 Terrasse 12.90 12.12 71.90
75361 2022-11-11 12:17:56 Bahnzimmer 19.10 18.55 56.90
75360 2022-11-11 12:02:53 Terrasse 12.80 12.00 71.50
75359 2022-11-11 11:47:56 Bahnzimmer 18.00 17.31 55.60
75358 2022-11-11 11:34:37 Terrasse 11.50 10.67 75.10
75357 2022-11-11 11:17:55 Bahnzimmer 19.30 18.84 59.60
75356 2022-11-11 11:06:16 Terrasse 9.60 8.68 78.90
75355 2022-11-11 10:47:54 Bahnzimmer 19.40 18.93 58.90
75354 2022-11-11 10:37:41 Terrasse 8.90 7.96 80.90
75353 2022-11-11 10:17:53 Bahnzimmer 19.40 18.91 58.10
75352 2022-11-11 10:09:17 Terrasse 8.00 7.03 83.40
75351 2022-11-11 09:47:53 Bahnzimmer 19.50 19.03 58.30
75350 2022-11-11 09:40:57 Terrasse 7.30 6.32 85.50
75349 2022-11-11 09:17:52 Bahnzimmer 19.50 19.00 57.10
75348 2022-11-11 09:12:34 Terrasse 6.10 5.00 85.40
75347 2022-11-11 08:47:52 Bahnzimmer 19.50 19.03 58.40
75346 2022-11-11 08:44:15 Terrasse 5.50 4.27 83.00
75345 2022-11-11 08:17:51 Bahnzimmer 19.60 19.16 59.00
75344 2022-11-11 08:15:58 Terrasse 5.10 3.78 81.00
75343 2022-11-11 07:47:50 Bahnzimmer 19.70 19.25 58.20
75342 2022-11-11 07:47:43 Terrasse 4.90 3.54 80.40
75341 2022-11-11 07:19:28 Terrasse 5.00 3.64 80.00
75340 2022-11-11 07:17:50 Bahnzimmer 19.50 19.02 58.10
75339 2022-11-11 06:51:13 Terrasse 5.00 3.64 79.70
75338 2022-11-11 06:47:49 Bahnzimmer 19.50 19.02 57.90
75337 2022-11-11 06:22:58 Terrasse 5.00 3.63 79.50
75336 2022-11-11 06:17:48 Bahnzimmer 19.40 18.91 58.10
75335 2022-11-11 05:54:43 Terrasse 5.10 3.75 79.70
75334 2022-11-11 05:47:48 Bahnzimmer 19.30 18.81 58.20
75333 2022-11-11 05:26:28 Terrasse 5.20 3.85 79.40
75332 2022-11-11 05:17:47 Bahnzimmer 19.00 18.48 58.50
75331 2022-11-11 04:58:14 Terrasse 5.30 3.97 79.70
75330 2022-11-11 04:47:46 Bahnzimmer 18.50 17.96 59.40
75329 2022-11-11 04:30:02 Terrasse 5.40 4.09 80.10
75328 2022-11-11 04:17:46 Bahnzimmer 18.60 18.06 59.30
75327 2022-11-11 04:01:48 Terrasse 5.50 4.20 80.40
75326 2022-11-11 03:47:45 Bahnzimmer 18.60 18.07 59.40
75325 2022-11-11 03:33:34 Terrasse 5.50 4.21 80.70
75324 2022-11-11 03:17:44 Bahnzimmer 18.60 18.07 59.50
75323 2022-11-11 03:05:18 Terrasse 5.40 4.10 80.50
75322 2022-11-11 02:47:44 Bahnzimmer 18.60 18.07 59.50
75321 2022-11-11 02:37:04 Terrasse 5.50 4.22 80.80
75320 2022-11-11 02:17:43 Bahnzimmer 18.70 18.18 59.50
75319 2022-11-11 02:08:49 Terrasse 5.50 4.20 80.30
75318 2022-11-11 01:47:42 Bahnzimmer 18.60 18.07 59.70
75317 2022-11-11 01:40:34 Terrasse 5.50 4.19 79.70
75316 2022-11-11 01:17:42 Bahnzimmer 18.70 18.18 59.60
75315 2022-11-11 01:12:19 Terrasse 5.50 4.17 78.90
75314 2022-11-11 00:47:41 Bahnzimmer 18.60 18.08 59.80
75313 2022-11-11 00:44:05 Terrasse 5.80 4.50 79.10
75312 2022-11-11 00:17:40 Bahnzimmer 18.80 18.30 59.80
75311 2022-11-11 00:15:52 Terrasse 5.90 4.62 79.50
75310 2022-11-10 23:47:40 Bahnzimmer 18.90 18.40 59.60
75309 2022-11-10 23:47:37 Terrasse 6.20 4.94 78.90
75308 2022-11-10 23:19:22 Terrasse 6.20 4.94 79.00
75307 2022-11-10 23:17:39 Bahnzimmer 19.10 18.61 59.30
75306 2022-11-10 22:51:08 Terrasse 6.60 5.39 79.30
75305 2022-11-10 22:47:38 Bahnzimmer 19.10 18.62 59.50
75304 2022-11-10 22:22:54 Terrasse 6.80 5.60 79.00
75303 2022-11-10 22:17:38 Bahnzimmer 19.00 18.51 59.70
75302 2022-11-10 21:54:41 Terrasse 7.00 5.83 79.50
75301 2022-11-10 21:47:37 Bahnzimmer 19.00 18.51 59.60
75300 2022-11-10 21:26:27 Terrasse 7.10 5.92 78.70
75299 2022-11-10 21:17:36 Bahnzimmer 19.00 18.51 59.60
75298 2022-11-10 20:58:13 Terrasse 7.40 6.25 78.70
75297 2022-11-10 20:47:36 Bahnzimmer 18.90 18.41 60.00
75296 2022-11-10 20:29:59 Terrasse 7.70 6.59 78.90
75295 2022-11-10 20:17:35 Bahnzimmer 19.10 18.63 59.80
75294 2022-11-10 20:01:45 Terrasse 7.80 6.67 78.00
75293 2022-11-10 19:47:34 Bahnzimmer 19.00 18.52 60.10
75292 2022-11-10 19:33:33 Terrasse 8.20 7.11 77.80
75291 2022-11-10 19:17:34 Bahnzimmer 19.30 18.84 59.60
75290 2022-11-10 19:05:19 Terrasse 8.60 7.55 77.90
75289 2022-11-10 18:47:33 Bahnzimmer 18.90 18.40 59.70
75288 2022-11-10 18:37:06 Terrasse 8.80 7.75 77.30
75287 2022-11-10 18:17:32 Bahnzimmer 18.90 18.41 60.00
75286 2022-11-10 18:08:53 Terrasse 9.30 8.30 77.20
75285 2022-11-10 17:47:32 Bahnzimmer 19.00 18.52 60.10
75284 2022-11-10 17:40:40 Terrasse 9.80 8.82 76.00
75283 2022-11-10 17:17:31 Bahnzimmer 19.10 18.63 60.10
75282 2022-11-10 17:12:29 Terrasse 10.50 9.55 74.50
75281 2022-11-10 16:47:30 Bahnzimmer 19.20 18.75 60.20
75280 2022-11-10 16:44:16 Terrasse 11.40 10.48 72.00
75279 2022-11-10 16:17:30 Bahnzimmer 19.00 18.51 59.70
75278 2022-11-10 16:16:06 Terrasse 12.30 11.41 69.90
75277 2022-11-10 15:47:58 Terrasse 13.50 12.66 67.10
75276 2022-11-10 15:47:29 Bahnzimmer 19.10 18.61 59.10
75275 2022-11-10 15:19:35 Terrasse 13.70 12.89 67.70
75274 2022-11-10 15:17:28 Bahnzimmer 19.10 18.60 58.90
75273 2022-11-10 14:51:15 Terrasse 13.10 12.27 69.00
75272 2022-11-10 14:47:28 Bahnzimmer 19.20 18.71 58.60
75271 2022-11-10 14:22:55 Terrasse 12.80 11.97 70.20
75270 2022-11-10 14:17:27 Bahnzimmer 19.20 18.69 58.10
75269 2022-11-10 13:54:36 Terrasse 12.20 11.38 73.10
75268 2022-11-10 13:47:26 Bahnzimmer 19.20 18.69 58.10
75267 2022-11-10 13:26:10 Terrasse 10.70 9.84 77.20
75266 2022-11-10 13:17:26 Bahnzimmer 19.10 18.57 57.50
75265 2022-11-10 12:57:53 Terrasse 10.50 9.64 77.80
75264 2022-11-10 12:47:25 Bahnzimmer 19.40 18.93 58.90
75263 2022-11-10 12:29:31 Terrasse 9.70 8.82 80.30
75262 2022-11-10 12:17:25 Bahnzimmer 19.40 18.94 59.00
75261 2022-11-10 12:01:10 Terrasse 9.00 8.09 81.60
75260 2022-11-10 11:47:24 Bahnzimmer 19.40 18.92 58.40
75259 2022-11-10 11:32:51 Terrasse 8.80 7.87 81.80
75258 2022-11-10 11:17:23 Bahnzimmer 19.30 18.80 58.00
75257 2022-11-10 11:04:32 Terrasse 8.40 7.45 82.60
75256 2022-11-10 10:47:23 Bahnzimmer 19.50 18.99 56.70
75255 2022-11-10 10:36:15 Terrasse 7.90 6.93 83.60
75254 2022-11-10 10:17:22 Bahnzimmer 18.60 17.96 55.30
75253 2022-11-10 10:07:56 Terrasse 7.60 6.60 83.70
75252 2022-11-10 09:47:21 Bahnzimmer 19.70 19.26 58.60
75251 2022-11-10 09:39:42 Terrasse 7.20 6.17 83.90
75250 2022-11-10 09:17:21 Bahnzimmer 19.40 18.92 58.20
75249 2022-11-10 09:11:23 Terrasse 6.90 5.85 84.60
75248 2022-11-10 08:47:20 Bahnzimmer 19.30 18.82 58.60
75247 2022-11-10 08:43:04 Terrasse 6.30 5.16 83.20
75246 2022-11-10 08:17:19 Bahnzimmer 19.20 18.68 57.70
75245 2022-11-10 08:14:50 Terrasse 6.00 4.79 81.80
75244 2022-11-10 07:47:19 Bahnzimmer 19.00 18.42 56.20
75243 2022-11-10 07:46:35 Terrasse 6.10 4.87 80.70
75242 2022-11-10 07:18:20 Terrasse 6.20 5.00 81.20
75241 2022-11-10 07:17:18 Bahnzimmer 18.70 18.04 54.10
75240 2022-11-10 06:50:04 Terrasse 6.30 5.11 81.50
75239 2022-11-10 06:47:17 Bahnzimmer 19.10 18.63 60.00
75238 2022-11-10 06:21:48 Terrasse 6.40 5.21 80.90
75237 2022-11-10 06:17:17 Bahnzimmer 19.00 18.53 60.20
75236 2022-11-10 05:53:37 Terrasse 6.70 5.54 80.80
75235 2022-11-10 05:47:16 Bahnzimmer 18.90 18.42 60.30
75234 2022-11-10 05:25:22 Terrasse 6.80 5.65 80.90
75233 2022-11-10 05:17:15 Bahnzimmer 18.70 18.21 60.50
75232 2022-11-10 04:57:07 Terrasse 7.00 5.87 81.00
75231 2022-11-10 04:47:15 Bahnzimmer 18.40 17.89 61.10
75230 2022-11-10 04:28:53 Terrasse 7.20 6.09 81.10
75229 2022-11-10 04:17:14 Bahnzimmer 18.40 17.88 60.60
75228 2022-11-10 04:00:39 Terrasse 7.50 6.45 82.10
75227 2022-11-10 03:47:13 Bahnzimmer 18.40 17.89 61.00
75226 2022-11-10 03:32:26 Terrasse 7.50 6.45 82.30
75225 2022-11-10 03:17:13 Bahnzimmer 18.40 17.89 61.10
75224 2022-11-10 03:04:10 Terrasse 7.20 6.12 82.30
75223 2022-11-10 02:47:12 Bahnzimmer 18.40 17.89 60.90
75222 2022-11-10 02:35:52 Terrasse 7.00 5.89 81.60
75221 2022-11-10 02:17:11 Bahnzimmer 18.50 18.00 60.90
75220 2022-11-10 02:07:38 Terrasse 7.20 6.07 80.40
75219 2022-11-10 01:47:10 Bahnzimmer 18.50 18.00 60.90
75218 2022-11-10 01:39:24 Terrasse 7.50 6.38 79.30
75217 2022-11-10 01:17:10 Bahnzimmer 18.70 18.22 60.90
75216 2022-11-10 01:11:11 Terrasse 7.80 6.72 79.70
75215 2022-11-10 00:47:09 Bahnzimmer 18.70 18.23 61.40
75214 2022-11-10 00:42:58 Terrasse 8.20 7.15 79.30
75213 2022-11-10 00:17:08 Bahnzimmer 18.70 18.23 61.40
75212 2022-11-10 00:14:45 Terrasse 8.60 7.57 78.70
75211 2022-11-09 23:47:39 Terrasse 9.10 8.11 78.40
75210 2022-11-09 23:47:08 Bahnzimmer 18.90 18.45 61.30
75209 2022-11-09 23:19:41 Terrasse 9.40 8.43 78.10
75208 2022-11-09 23:17:07 Bahnzimmer 19.10 18.66 61.00
75207 2022-11-09 22:51:10 Terrasse 9.70 8.74 77.20
75206 2022-11-09 22:47:06 Bahnzimmer 19.30 18.87 60.70
75205 2022-11-09 22:17:06 Bahnzimmer 19.40 18.98 60.50
75204 2022-11-09 21:47:05 Bahnzimmer 19.20 18.76 60.70
75203 2022-11-09 21:17:04 Bahnzimmer 19.10 18.66 60.90
75202 2022-11-09 20:47:04 Bahnzimmer 18.90 18.45 61.30
75201 2022-11-09 20:17:03 Bahnzimmer 18.90 18.45 61.40
75200 2022-11-09 19:47:02 Bahnzimmer 18.80 18.34 61.50
75199 2022-11-09 19:17:02 Bahnzimmer 18.90 18.45 61.30
75198 2022-11-09 18:47:01 Bahnzimmer 18.90 18.45 61.40
75197 2022-11-09 18:24:35 Terrasse 10.80 10.09 82.50
75196 2022-11-09 18:17:00 Bahnzimmer 18.80 18.34 61.50
75195 2022-11-09 17:56:06 Terrasse 11.10 10.41 82.20
75194 2022-11-09 17:47:00 Bahnzimmer 19.00 18.55 61.20
75193 2022-11-09 17:27:29 Terrasse 11.20 10.53 82.40
75192 2022-11-09 17:16:59 Bahnzimmer 19.00 18.55 60.90
75191 2022-11-09 16:59:13 Terrasse 11.30 10.61 81.50
75190 2022-11-09 16:46:58 Bahnzimmer 18.50 17.97 60.10
75189 2022-11-09 16:30:53 Terrasse 11.70 11.02 80.40
75188 2022-11-09 16:16:58 Bahnzimmer 19.10 18.70 62.50
75187 2022-11-09 15:57:51 Terrasse 11.90 11.22 79.60
75186 2022-11-09 15:46:57 Bahnzimmer 19.00 18.58 62.10
75185 2022-11-09 15:30:41 Terrasse 12.00 11.31 78.60
75184 2022-11-09 15:16:56 Bahnzimmer 19.00 18.59 62.50
75183 2022-11-09 15:01:27 Terrasse 12.20 11.51 77.80
75182 2022-11-09 14:46:56 Bahnzimmer 18.70 18.25 62.30
75181 2022-11-09 14:33:11 Terrasse 12.40 11.75 78.70
75180 2022-11-09 14:16:55 Bahnzimmer 18.80 18.35 61.80
75179 2022-11-09 14:04:54 Terrasse 12.50 11.84 77.90
75178 2022-11-09 13:46:54 Bahnzimmer 18.80 18.36 62.10
75177 2022-11-09 13:36:44 Terrasse 13.00 12.39 78.10
75176 2022-11-09 13:16:54 Bahnzimmer 19.00 18.57 62.00
75175 2022-11-09 13:08:28 Terrasse 12.80 12.25 80.90
75174 2022-11-09 12:46:53 Bahnzimmer 19.00 18.56 61.60
75173 2022-11-09 12:16:52 Bahnzimmer 18.60 18.15 62.50
75172 2022-11-09 12:11:56 Terrasse 11.70 11.13 84.30
75171 2022-11-09 11:46:52 Bahnzimmer 18.90 18.45 61.60
75170 2022-11-09 11:44:39 Terrasse 11.30 10.75 86.90
75169 2022-11-09 11:16:51 Bahnzimmer 19.20 18.78 61.30
75168 2022-11-09 11:15:28 Terrasse 10.90 10.33 87.50
75167 2022-11-09 10:47:11 Terrasse 10.80 10.23 87.90
75166 2022-11-09 10:46:50 Bahnzimmer 19.30 18.88 61.10
75165 2022-11-09 10:18:56 Terrasse 10.70 10.13 88.40
75164 2022-11-09 10:16:50 Bahnzimmer 19.20 18.77 61.00
75163 2022-11-09 09:51:33 Terrasse 10.40 9.81 88.60
75162 2022-11-09 09:46:49 Bahnzimmer 19.10 18.65 60.80
75161 2022-11-09 09:22:38 Terrasse 10.40 9.81 88.80
75160 2022-11-09 09:16:48 Bahnzimmer 18.90 18.44 61.00
75159 2022-11-09 08:54:20 Terrasse 10.40 9.81 88.70
75158 2022-11-09 08:46:48 Bahnzimmer 18.90 18.44 60.90
75157 2022-11-09 08:26:04 Terrasse 10.40 9.81 88.70
75156 2022-11-09 08:16:47 Bahnzimmer 19.00 18.54 60.80
75155 2022-11-09 07:59:35 Terrasse 10.30 9.71 89.00
75154 2022-11-09 07:46:46 Bahnzimmer 18.90 18.44 61.10
75153 2022-11-09 07:27:58 Terrasse 10.40 9.81 88.60
75152 2022-11-09 07:16:46 Bahnzimmer 18.90 18.41 60.10
75151 2022-11-09 06:59:40 Terrasse 10.50 9.91 88.40
75150 2022-11-09 06:46:45 Bahnzimmer 18.70 18.19 60.00
75149 2022-11-09 06:31:24 Terrasse 10.50 9.91 88.20
75148 2022-11-09 06:16:44 Bahnzimmer 18.50 17.97 60.10
75147 2022-11-09 06:04:48 Terrasse 10.50 9.91 88.20
75146 2022-11-09 05:46:44 Bahnzimmer 18.50 17.98 60.20
75145 2022-11-09 05:35:24 Terrasse 10.40 9.79 88.00
75144 2022-11-09 05:16:43 Bahnzimmer 18.20 17.66 60.50
75143 2022-11-09 05:05:33 Terrasse 10.40 9.79 87.80
75142 2022-11-09 04:46:42 Bahnzimmer 18.20 17.66 60.50
75141 2022-11-09 04:16:42 Bahnzimmer 18.20 17.66 60.50
75140 2022-11-09 03:46:41 Bahnzimmer 18.20 17.65 60.40
75139 2022-11-09 03:37:10 Terrasse 10.30 9.65 86.70
75138 2022-11-09 03:16:40 Bahnzimmer 18.30 17.76 60.40
75137 2022-11-09 03:07:45 Terrasse 10.30 9.65 86.60
75136 2022-11-09 02:46:40 Bahnzimmer 18.30 17.76 60.20
75135 2022-11-09 02:16:39 Bahnzimmer 18.30 17.76 60.20
75134 2022-11-09 02:06:49 Terrasse 10.00 9.25 84.20
75133 2022-11-09 01:46:38 Bahnzimmer 18.40 17.86 60.10
75132 2022-11-09 01:16:38 Bahnzimmer 18.50 17.97 60.00
75131 2022-11-09 01:09:12 Terrasse 9.90 9.10 82.50
75130 2022-11-09 00:46:37 Bahnzimmer 18.50 17.97 59.80
75129 2022-11-09 00:38:13 Terrasse 10.00 9.19 81.70
75128 2022-11-09 00:16:36 Bahnzimmer 18.60 18.08 60.00
75127 2022-11-08 23:46:36 Bahnzimmer 18.60 18.08 60.00
75126 2022-11-08 23:40:49 Terrasse 9.90 9.03 79.80
75125 2022-11-08 23:16:35 Bahnzimmer 18.70 18.19 59.90
75124 2022-11-08 23:12:31 Terrasse 9.80 8.90 79.00
75123 2022-11-08 22:46:34 Bahnzimmer 18.80 18.29 59.70
75122 2022-11-08 22:44:14 Terrasse 9.80 8.90 78.90
75121 2022-11-08 22:16:34 Bahnzimmer 18.70 18.19 59.90
75120 2022-11-08 22:15:59 Terrasse 9.80 8.88 78.30
75119 2022-11-08 21:47:42 Terrasse 10.00 9.09 78.00
75118 2022-11-08 21:46:33 Bahnzimmer 18.80 18.29 59.70
75117 2022-11-08 21:19:26 Terrasse 9.80 8.85 77.30
75116 2022-11-08 21:16:32 Bahnzimmer 18.90 18.40 59.50
75115 2022-11-08 20:51:32 Terrasse 9.80 8.86 77.40
75114 2022-11-08 20:46:32 Bahnzimmer 18.90 18.40 59.60
75113 2022-11-08 20:23:08 Terrasse 10.00 9.07 77.00
75112 2022-11-08 20:16:31 Bahnzimmer 18.90 18.40 59.50
75111 2022-11-08 19:54:53 Terrasse 10.00 9.05 76.20
75110 2022-11-08 19:46:30 Bahnzimmer 18.90 18.40 59.40
75109 2022-11-08 19:26:36 Terrasse 10.10 9.16 76.20
75108 2022-11-08 19:16:30 Bahnzimmer 18.90 18.40 59.40
75107 2022-11-08 18:58:21 Terrasse 10.20 9.27 76.50
75106 2022-11-08 18:46:29 Bahnzimmer 19.00 18.50 59.10
75105 2022-11-08 18:30:06 Terrasse 10.20 9.28 76.80
75104 2022-11-08 18:16:28 Bahnzimmer 18.90 18.39 59.00
75103 2022-11-08 18:01:50 Terrasse 10.40 9.48 76.00
75102 2022-11-08 17:46:28 Bahnzimmer 19.00 18.51 59.50
75101 2022-11-08 17:33:35 Terrasse 10.60 9.69 75.50
75100 2022-11-08 17:16:27 Bahnzimmer 19.00 18.51 59.40
75099 2022-11-08 17:05:21 Terrasse 11.00 10.11 74.70
75098 2022-11-08 16:46:26 Bahnzimmer 19.40 18.97 60.20
75097 2022-11-08 16:37:06 Terrasse 11.40 10.46 71.50
75096 2022-11-08 16:16:26 Bahnzimmer 19.30 18.85 59.90
75095 2022-11-08 16:08:52 Terrasse 11.70 10.80 71.80
75094 2022-11-08 15:46:25 Bahnzimmer 19.30 18.84 59.40
75093 2022-11-08 15:40:39 Terrasse 12.30 11.46 71.80
75092 2022-11-08 15:16:24 Bahnzimmer 19.10 18.60 58.80
75091 2022-11-08 15:12:25 Terrasse 12.50 11.62 69.60
75090 2022-11-08 14:46:24 Bahnzimmer 19.20 18.70 58.20
75089 2022-11-08 14:44:07 Terrasse 12.40 11.55 71.20
75088 2022-11-08 14:16:23 Bahnzimmer 19.30 18.81 58.20
75087 2022-11-08 14:15:48 Terrasse 12.00 11.13 71.70
75086 2022-11-08 13:47:31 Terrasse 11.90 11.00 71.00
75085 2022-11-08 13:46:22 Bahnzimmer 19.30 18.81 58.30
75084 2022-11-08 13:19:14 Terrasse 11.70 10.79 71.40
75083 2022-11-08 13:16:21 Bahnzimmer 19.50 19.03 58.20
75082 2022-11-08 12:51:00 Terrasse 12.00 11.09 70.30
75081 2022-11-08 12:46:21 Bahnzimmer 19.50 19.02 58.00
75080 2022-11-08 12:22:48 Terrasse 12.50 11.61 69.20
75079 2022-11-08 12:16:20 Bahnzimmer 19.50 19.02 57.90
75078 2022-11-08 11:54:46 Terrasse 13.30 12.45 67.70
75077 2022-11-08 11:46:19 Bahnzimmer 19.20 18.70 58.30
75076 2022-11-08 11:26:23 Terrasse 12.70 11.86 70.20
75075 2022-11-08 11:16:19 Bahnzimmer 19.30 18.80 57.90
75074 2022-11-08 10:57:48 Terrasse 9.70 8.72 76.40
75073 2022-11-08 10:46:18 Bahnzimmer 19.30 18.75 56.20
75072 2022-11-08 10:29:26 Terrasse 9.20 8.26 80.00
75071 2022-11-08 10:16:17 Bahnzimmer 18.50 17.83 54.70
75070 2022-11-08 10:01:05 Terrasse 8.40 7.43 81.90
75069 2022-11-08 09:46:17 Bahnzimmer 19.60 19.15 58.60
75068 2022-11-08 09:32:45 Terrasse 8.20 7.23 82.40
75067 2022-11-08 09:16:16 Bahnzimmer 19.30 18.82 58.60
75066 2022-11-08 09:04:27 Terrasse 7.50 6.49 83.70
75065 2022-11-08 08:46:15 Bahnzimmer 19.50 19.04 58.70
75064 2022-11-08 08:36:08 Terrasse 7.20 6.16 83.50
75063 2022-11-08 08:16:15 Bahnzimmer 19.40 18.91 58.00
75062 2022-11-08 08:07:51 Terrasse 6.90 5.82 83.30
75061 2022-11-08 07:46:14 Bahnzimmer 19.20 18.68 57.50
75060 2022-11-08 07:39:37 Terrasse 6.80 5.69 82.40
75059 2022-11-08 07:16:13 Bahnzimmer 18.40 17.72 54.60
75058 2022-11-08 07:11:20 Terrasse 6.80 5.67 81.90
75057 2022-11-08 06:46:13 Bahnzimmer 19.20 18.72 59.20
75056 2022-11-08 06:43:05 Terrasse 6.80 5.68 82.30
75055 2022-11-08 06:16:12 Bahnzimmer 19.10 18.62 59.40
75054 2022-11-08 06:14:51 Terrasse 6.90 5.78 81.60
75053 2022-11-08 05:46:35 Terrasse 7.00 5.88 81.20
75052 2022-11-08 05:46:11 Bahnzimmer 19.00 18.51 59.50
75051 2022-11-08 05:18:20 Terrasse 7.20 6.10 81.50
75050 2022-11-08 05:16:11 Bahnzimmer 18.70 18.19 59.80
75049 2022-11-08 04:50:05 Terrasse 7.30 6.21 81.40
75048 2022-11-08 04:46:10 Bahnzimmer 18.40 17.87 60.30
75047 2022-11-08 04:21:50 Terrasse 7.40 6.32 81.50
75046 2022-11-08 04:16:09 Bahnzimmer 18.40 17.87 60.30
75045 2022-11-08 03:53:34 Terrasse 7.50 6.46 82.40
75044 2022-11-08 03:46:09 Bahnzimmer 18.40 17.87 60.40
75043 2022-11-08 03:25:20 Terrasse 7.70 6.66 81.80
75042 2022-11-08 03:16:08 Bahnzimmer 18.40 17.87 60.30
75041 2022-11-08 02:57:03 Terrasse 7.80 6.77 81.80
75040 2022-11-08 02:46:07 Bahnzimmer 18.40 17.86 60.10
75039 2022-11-08 02:28:48 Terrasse 7.90 6.87 81.50
75038 2022-11-08 02:16:07 Bahnzimmer 18.50 17.97 60.10
75037 2022-11-08 02:00:33 Terrasse 8.00 6.98 81.50
75036 2022-11-08 01:46:06 Bahnzimmer 18.60 18.08 60.00
75035 2022-11-08 01:32:18 Terrasse 8.20 7.19 80.80
75034 2022-11-08 01:16:05 Bahnzimmer 18.70 18.19 60.00
75033 2022-11-08 01:04:05 Terrasse 8.50 7.52 80.90
75032 2022-11-08 00:46:05 Bahnzimmer 18.70 18.20 60.30
75031 2022-11-08 00:35:50 Terrasse 8.70 7.74 81.10
75030 2022-11-08 00:16:04 Bahnzimmer 18.80 18.31 60.40
75029 2022-11-08 00:07:36 Terrasse 9.00 8.08 81.40
75028 2022-11-07 23:46:03 Bahnzimmer 18.90 18.42 60.30
75027 2022-11-07 23:39:23 Terrasse 9.50 8.63 81.40
75026 2022-11-07 23:16:03 Bahnzimmer 19.00 18.52 60.10
75025 2022-11-07 23:11:12 Terrasse 10.00 9.22 82.80
75024 2022-11-07 22:46:02 Bahnzimmer 19.10 18.63 59.80
75023 2022-11-07 22:42:58 Terrasse 10.10 9.32 82.40
75022 2022-11-07 22:16:01 Bahnzimmer 19.10 18.63 60.00
75021 2022-11-07 22:14:44 Terrasse 10.20 9.41 81.90
75020 2022-11-07 21:46:30 Terrasse 10.30 9.52 81.80
75019 2022-11-07 21:46:01 Bahnzimmer 19.10 18.63 59.80
75018 2022-11-07 21:18:31 Terrasse 10.30 9.52 81.60
75017 2022-11-07 21:16:00 Bahnzimmer 19.10 18.63 59.80
75016 2022-11-07 20:50:11 Terrasse 10.40 9.62 81.50
75015 2022-11-07 20:45:59 Bahnzimmer 19.10 18.63 59.80
75014 2022-11-07 20:21:55 Terrasse 10.40 9.63 81.60
75013 2022-11-07 20:15:59 Bahnzimmer 19.20 18.73 59.70
75012 2022-11-07 19:53:51 Terrasse 10.40 9.62 81.50
75011 2022-11-07 19:45:58 Bahnzimmer 19.20 18.73 59.70
75010 2022-11-07 19:25:34 Terrasse 10.50 9.72 81.00
75009 2022-11-07 19:15:57 Bahnzimmer 19.20 18.73 59.70
75008 2022-11-07 18:57:18 Terrasse 10.70 9.94 81.00
75007 2022-11-07 18:45:57 Bahnzimmer 19.20 18.73 59.70
75006 2022-11-07 18:29:02 Terrasse 10.50 9.71 80.70
75005 2022-11-07 18:15:56 Bahnzimmer 19.20 18.74 59.90
75004 2022-11-07 18:00:49 Terrasse 10.50 9.70 80.20
75003 2022-11-07 17:45:55 Bahnzimmer 19.30 18.84 59.70
75002 2022-11-07 17:32:33 Terrasse 10.50 9.70 80.10
75001 2022-11-07 17:15:55 Bahnzimmer 19.40 18.96 60.10
75000 2022-11-07 17:04:19 Terrasse 10.50 9.69 79.90
74999 2022-11-07 16:45:54 Bahnzimmer 19.50 19.05 59.20
74998 2022-11-07 16:36:05 Terrasse 10.60 9.80 79.90
74997 2022-11-07 16:15:53 Bahnzimmer 19.30 18.82 58.90
74996 2022-11-07 16:07:51 Terrasse 10.60 9.81 80.40
74995 2022-11-07 15:45:53 Bahnzimmer 18.90 18.38 58.70
74994 2022-11-07 15:39:35 Terrasse 10.70 9.90 79.60
74993 2022-11-07 15:15:52 Bahnzimmer 19.20 18.73 59.40
74992 2022-11-07 15:11:20 Terrasse 10.80 9.96 77.70
74991 2022-11-07 14:45:52 Bahnzimmer 19.40 18.93 58.90
74990 2022-11-07 14:43:04 Terrasse 10.80 9.97 78.00
74989 2022-11-07 14:15:51 Bahnzimmer 19.60 19.14 58.20
74988 2022-11-07 14:14:50 Terrasse 10.80 9.99 78.50
74987 2022-11-07 13:46:33 Terrasse 10.60 9.79 79.60
74986 2022-11-07 13:45:50 Bahnzimmer 19.70 19.24 57.90
74985 2022-11-07 13:18:16 Terrasse 10.40 9.61 80.80
74984 2022-11-07 13:15:50 Bahnzimmer 19.40 18.90 57.70
74983 2022-11-07 12:49:59 Terrasse 10.30 9.53 82.00
74982 2022-11-07 12:45:49 Bahnzimmer 19.50 19.02 58.00
74981 2022-11-07 12:21:42 Terrasse 9.90 9.11 82.80
74980 2022-11-07 12:15:48 Bahnzimmer 19.50 19.04 58.70
74979 2022-11-07 11:53:28 Terrasse 10.00 9.17 81.10
74978 2022-11-07 11:45:48 Bahnzimmer 19.40 18.95 59.60
74977 2022-11-07 11:25:13 Terrasse 9.80 8.93 80.20
74976 2022-11-07 11:15:47 Bahnzimmer 19.40 18.91 58.10
74975 2022-11-07 10:56:58 Terrasse 9.50 8.61 80.50
74974 2022-11-07 10:45:46 Bahnzimmer 19.70 19.28 59.70
74973 2022-11-07 10:28:45 Terrasse 9.40 8.51 81.00
74972 2022-11-07 10:15:46 Bahnzimmer 19.50 19.07 59.80
74971 2022-11-07 10:00:28 Terrasse 9.20 8.30 81.50
74970 2022-11-07 09:45:45 Bahnzimmer 19.50 19.04 58.90
74969 2022-11-07 09:32:13 Terrasse 9.00 8.10 82.30
74968 2022-11-07 09:15:44 Bahnzimmer 19.50 19.02 58.00
74967 2022-11-07 09:03:58 Terrasse 8.80 7.91 83.30
74966 2022-11-07 08:45:43 Bahnzimmer 19.30 18.83 59.10
74965 2022-11-07 08:35:44 Terrasse 8.60 7.70 83.50
74964 2022-11-07 08:15:43 Bahnzimmer 19.40 18.95 59.60
74963 2022-11-07 08:07:37 Terrasse 8.50 7.60 84.00
74962 2022-11-07 07:45:39 Bahnzimmer 19.30 18.83 59.10
74961 2022-11-07 07:39:20 Terrasse 8.30 7.39 84.30
74960 2022-11-07 07:15:38 Bahnzimmer 19.00 18.49 58.70
74959 2022-11-07 07:11:06 Terrasse 8.20 7.28 84.40
74958 2022-11-07 06:45:38 Bahnzimmer 19.00 18.48 58.40
74957 2022-11-07 06:42:51 Terrasse 8.20 7.28 84.60
74956 2022-11-07 06:15:37 Bahnzimmer 18.90 18.37 58.50
74955 2022-11-07 06:14:38 Terrasse 8.00 7.07 84.70
74954 2022-11-07 05:46:22 Terrasse 8.00 7.07 84.70
74953 2022-11-07 05:45:36 Bahnzimmer 18.70 18.16 58.70
74952 2022-11-07 05:18:08 Terrasse 7.80 6.84 84.40
74951 2022-11-07 05:15:36 Bahnzimmer 18.50 17.94 58.80
74950 2022-11-07 04:49:53 Terrasse 7.80 6.83 84.20
74949 2022-11-07 04:45:35 Bahnzimmer 18.40 17.83 58.60
74948 2022-11-07 04:21:38 Terrasse 7.60 6.61 84.20
74947 2022-11-07 04:15:34 Bahnzimmer 18.50 17.93 58.40
74946 2022-11-07 03:53:23 Terrasse 7.50 6.47 82.90
74945 2022-11-07 03:45:34 Bahnzimmer 18.40 17.84 59.00
74944 2022-11-07 03:25:09 Terrasse 7.40 6.35 82.60
74943 2022-11-07 03:15:33 Bahnzimmer 18.40 17.83 58.60
74942 2022-11-07 02:56:54 Terrasse 7.30 6.23 82.20
74941 2022-11-07 02:45:32 Bahnzimmer 18.50 17.93 58.50
74940 2022-11-07 02:28:41 Terrasse 7.20 6.10 81.40
74939 2022-11-07 02:15:32 Bahnzimmer 18.60 18.04 58.40
74938 2022-11-07 02:00:28 Terrasse 7.20 6.07 80.30
74937 2022-11-07 01:45:31 Bahnzimmer 18.70 18.15 58.30
74936 2022-11-07 01:32:14 Terrasse 7.30 6.17 79.70
74935 2022-11-07 01:15:30 Bahnzimmer 18.80 18.26 58.20
74934 2022-11-07 01:03:59 Terrasse 7.20 6.04 78.90
74933 2022-11-07 00:45:30 Bahnzimmer 18.90 18.38 58.80
74932 2022-11-07 00:35:45 Terrasse 7.20 6.00 77.50
74931 2022-11-07 00:15:29 Bahnzimmer 19.00 18.49 58.60
74930 2022-11-07 00:07:30 Terrasse 7.10 5.86 76.20
74929 2022-11-06 23:45:28 Bahnzimmer 19.10 18.59 58.40
74928 2022-11-06 23:39:15 Terrasse 7.20 5.93 74.80
74927 2022-11-06 23:15:28 Bahnzimmer 19.10 18.59 58.50
74926 2022-11-06 23:10:58 Terrasse 7.30 6.01 73.60
74925 2022-11-06 22:45:27 Bahnzimmer 19.10 18.60 58.60
74924 2022-11-06 22:42:42 Terrasse 7.20 5.89 73.30
74923 2022-11-06 22:15:27 Bahnzimmer 19.00 18.49 58.70
74922 2022-11-06 22:14:25 Terrasse 7.20 5.90 73.80
74921 2022-11-06 21:46:09 Terrasse 7.20 5.92 74.40
74920 2022-11-06 21:45:26 Bahnzimmer 19.00 18.49 58.70
74919 2022-11-06 21:17:54 Terrasse 7.40 6.15 75.00
74918 2022-11-06 21:15:25 Bahnzimmer 19.00 18.49 58.60
74917 2022-11-06 20:49:38 Terrasse 7.50 6.31 76.90
74916 2022-11-06 20:45:25 Bahnzimmer 19.00 18.49 58.70
74915 2022-11-06 20:21:22 Terrasse 7.70 6.53 76.90
74914 2022-11-06 20:15:24 Bahnzimmer 18.90 18.38 58.80
74913 2022-11-06 19:53:07 Terrasse 7.80 6.64 76.70
74912 2022-11-06 19:45:23 Bahnzimmer 19.00 18.49 58.70
74911 2022-11-06 19:24:51 Terrasse 7.80 6.63 76.20
74910 2022-11-06 19:15:23 Bahnzimmer 19.00 18.49 58.60
74909 2022-11-06 18:56:35 Terrasse 8.00 6.89 78.00
74908 2022-11-06 18:45:22 Bahnzimmer 18.90 18.38 58.70
74907 2022-11-06 18:29:17 Terrasse 8.10 6.93 75.20
74906 2022-11-06 18:15:21 Bahnzimmer 18.90 18.38 58.70
74905 2022-11-06 18:02:35 Terrasse 8.30 7.10 73.40
74904 2022-11-06 17:45:21 Bahnzimmer 18.90 18.38 58.70
74903 2022-11-06 17:25:24 Terrasse 8.40 7.17 71.70
74902 2022-11-06 17:15:20 Bahnzimmer 18.90 18.38 58.80
74901 2022-11-06 16:57:41 Terrasse 8.60 7.37 70.90
74900 2022-11-06 16:45:19 Bahnzimmer 18.80 18.28 59.00
74899 2022-11-06 16:29:21 Terrasse 8.90 7.72 71.60
74898 2022-11-06 16:15:19 Bahnzimmer 18.90 18.38 58.80
74897 2022-11-06 16:01:32 Terrasse 9.20 8.00 69.90
74896 2022-11-06 15:45:18 Bahnzimmer 18.90 18.38 58.90
74895 2022-11-06 15:33:49 Terrasse 9.60 8.40 68.50
74894 2022-11-06 15:15:17 Bahnzimmer 18.90 18.38 58.70
74893 2022-11-06 15:05:46 Terrasse 10.00 8.81 67.20
74892 2022-11-06 14:45:17 Bahnzimmer 18.90 18.38 58.80
74891 2022-11-06 14:38:01 Terrasse 10.00 8.84 68.20
74890 2022-11-06 14:15:16 Bahnzimmer 18.90 18.38 58.80
74889 2022-11-06 14:09:46 Terrasse 10.20 9.00 65.90
74888 2022-11-06 13:45:15 Bahnzimmer 18.90 18.38 58.70
74887 2022-11-06 13:41:56 Terrasse 10.20 9.02 66.80
74886 2022-11-06 13:15:15 Bahnzimmer 18.90 18.38 58.90
74885 2022-11-06 12:46:11 Terrasse 10.40 9.17 64.20
74884 2022-11-06 12:45:14 Bahnzimmer 19.00 18.49 58.70
74883 2022-11-06 12:15:13 Bahnzimmer 19.00 18.49 58.80
74882 2022-11-06 11:50:10 Terrasse 10.70 9.54 65.70
74881 2022-11-06 11:45:13 Bahnzimmer 19.30 18.80 58.10
74880 2022-11-06 11:21:23 Terrasse 10.70 9.58 67.30
74879 2022-11-06 11:15:12 Bahnzimmer 19.10 18.59 58.50
74878 2022-11-06 10:52:45 Terrasse 7.20 5.94 75.30
74877 2022-11-06 10:45:11 Bahnzimmer 19.20 18.70 58.30
74876 2022-11-06 10:24:23 Terrasse 6.20 4.94 79.10
74875 2022-11-06 10:15:11 Bahnzimmer 19.20 18.70 58.30
74874 2022-11-06 09:56:03 Terrasse 5.60 4.30 79.80
74873 2022-11-06 09:45:10 Bahnzimmer 19.20 18.70 58.20
74872 2022-11-06 09:27:46 Terrasse 5.30 3.99 80.70
74871 2022-11-06 09:15:09 Bahnzimmer 19.20 18.70 58.20
74870 2022-11-06 08:59:29 Terrasse 5.00 3.67 81.00
74869 2022-11-06 08:45:09 Bahnzimmer 19.20 18.69 58.00
74868 2022-11-06 08:31:13 Terrasse 5.00 3.65 80.40
74867 2022-11-06 08:15:08 Bahnzimmer 19.30 18.81 58.40
74866 2022-11-06 08:02:58 Terrasse 5.00 3.65 80.10
74865 2022-11-06 07:45:07 Bahnzimmer 19.10 18.60 58.70
74864 2022-11-06 07:34:44 Terrasse 5.00 3.62 79.00
74863 2022-11-06 07:15:07 Bahnzimmer 19.00 18.49 58.70
74862 2022-11-06 07:06:30 Terrasse 5.50 4.15 78.30
74861 2022-11-06 06:45:06 Bahnzimmer 18.80 18.27 58.90
74860 2022-11-06 06:38:14 Terrasse 5.60 4.27 78.70
74859 2022-11-06 06:15:05 Bahnzimmer 18.60 18.05 58.80
74858 2022-11-06 06:09:59 Terrasse 5.60 4.27 78.50
74857 2022-11-06 05:45:05 Bahnzimmer 18.60 18.06 59.30
74856 2022-11-06 05:41:47 Terrasse 5.70 4.36 77.90
74855 2022-11-06 05:15:04 Bahnzimmer 18.60 18.05 58.80
74854 2022-11-06 05:13:34 Terrasse 5.90 4.59 78.30
74853 2022-11-06 04:45:21 Terrasse 5.90 4.62 79.30
74852 2022-11-06 04:45:04 Bahnzimmer 18.60 18.06 59.20
74851 2022-11-06 04:17:06 Terrasse 5.90 4.62 79.30
74850 2022-11-06 04:15:03 Bahnzimmer 18.60 18.05 58.70
74849 2022-11-06 03:48:52 Terrasse 5.90 4.60 78.80
74848 2022-11-06 03:45:02 Bahnzimmer 18.70 18.16 58.90
74847 2022-11-06 03:20:39 Terrasse 6.10 4.83 79.00
74846 2022-11-06 03:15:01 Bahnzimmer 18.50 17.95 59.20
74845 2022-11-06 02:52:24 Terrasse 6.00 4.71 78.50
74844 2022-11-06 02:45:01 Bahnzimmer 18.60 18.06 59.10
74843 2022-11-06 02:24:11 Terrasse 6.10 4.81 78.20
74842 2022-11-06 02:15:00 Bahnzimmer 18.70 18.17 59.00
74841 2022-11-06 01:55:58 Terrasse 6.00 4.71 78.70
74840 2022-11-06 01:44:59 Bahnzimmer 18.80 18.27 58.90
74839 2022-11-06 01:27:46 Terrasse 6.10 4.81 78.20
74838 2022-11-06 01:14:59 Bahnzimmer 18.90 18.38 58.80
74837 2022-11-06 00:59:34 Terrasse 6.00 4.71 78.50
74836 2022-11-06 00:44:58 Bahnzimmer 18.90 18.40 59.40
74835 2022-11-06 00:31:20 Terrasse 6.00 4.69 78.10
74834 2022-11-06 00:14:57 Bahnzimmer 19.10 18.61 59.20
74833 2022-11-06 00:03:07 Terrasse 6.10 4.80 78.10
74832 2022-11-05 23:44:57 Bahnzimmer 19.20 18.72 59.00
74831 2022-11-05 23:34:52 Terrasse 6.30 5.01 77.50
74830 2022-11-05 23:14:56 Bahnzimmer 19.10 18.61 59.10
74829 2022-11-05 23:06:37 Terrasse 6.40 5.12 77.60
74828 2022-11-05 22:44:55 Bahnzimmer 19.20 18.72 59.00
74827 2022-11-05 22:38:20 Terrasse 6.40 5.10 76.90
74826 2022-11-05 22:14:55 Bahnzimmer 19.20 18.72 59.10
74825 2022-11-05 22:10:07 Terrasse 6.50 5.21 76.90
74824 2022-11-05 21:44:54 Bahnzimmer 19.10 18.61 59.20
74823 2022-11-05 21:41:54 Terrasse 6.40 5.10 76.90
74822 2022-11-05 21:14:53 Bahnzimmer 19.10 18.61 59.30
74821 2022-11-05 21:13:38 Terrasse 6.50 5.20 76.20
74820 2022-11-05 20:45:24 Terrasse 6.70 5.40 75.70
74819 2022-11-05 20:44:53 Bahnzimmer 19.20 18.71 58.90
74818 2022-11-05 20:17:11 Terrasse 6.80 5.53 76.40
74817 2022-11-05 20:14:52 Bahnzimmer 19.00 18.50 59.10
74816 2022-11-05 19:48:56 Terrasse 6.90 5.64 76.20
74815 2022-11-05 19:44:52 Bahnzimmer 19.10 18.61 59.00
74814 2022-11-05 19:20:41 Terrasse 6.90 5.62 75.70
74813 2022-11-05 19:14:51 Bahnzimmer 19.10 18.61 59.00
74812 2022-11-05 18:52:27 Terrasse 7.00 5.68 73.80
74811 2022-11-05 18:44:50 Bahnzimmer 19.00 18.50 59.00
74810 2022-11-05 18:24:14 Terrasse 7.40 6.10 72.90
74809 2022-11-05 18:14:50 Bahnzimmer 19.00 18.50 59.10
74808 2022-11-05 17:56:01 Terrasse 7.80 6.53 72.60
74807 2022-11-05 17:44:49 Bahnzimmer 19.00 18.50 59.00
74806 2022-11-05 17:27:47 Terrasse 8.30 7.08 72.70
74805 2022-11-05 17:14:48 Bahnzimmer 18.90 18.39 59.00
74804 2022-11-05 16:59:34 Terrasse 8.90 7.68 70.30
74803 2022-11-05 16:44:48 Bahnzimmer 18.90 18.39 59.00
74802 2022-11-05 16:31:20 Terrasse 9.20 7.97 68.70
74801 2022-11-05 16:14:47 Bahnzimmer 18.80 18.27 58.90
74800 2022-11-05 16:03:04 Terrasse 9.60 8.40 68.30
74799 2022-11-05 15:44:46 Bahnzimmer 18.70 18.15 58.20
74798 2022-11-05 15:34:50 Terrasse 9.90 8.69 66.90
74797 2022-11-05 15:14:46 Bahnzimmer 18.60 18.03 58.00
74796 2022-11-05 15:06:36 Terrasse 10.20 9.03 67.10
74795 2022-11-05 14:44:45 Bahnzimmer 18.70 18.18 59.70
74794 2022-11-05 14:38:23 Terrasse 10.60 9.47 67.10
74793 2022-11-05 14:14:44 Bahnzimmer 18.80 18.29 59.50
74792 2022-11-05 14:11:24 Terrasse 10.40 9.27 67.90
74791 2022-11-05 13:44:44 Bahnzimmer 18.90 18.40 59.60
74790 2022-11-05 13:41:45 Terrasse 10.70 9.52 65.00
74789 2022-11-05 13:14:43 Bahnzimmer 18.90 18.41 59.90
74788 2022-11-05 13:13:34 Terrasse 11.40 10.24 62.90
74787 2022-11-05 12:45:18 Terrasse 12.00 10.93 64.20
74786 2022-11-05 12:44:42 Bahnzimmer 19.00 18.49 58.70
74785 2022-11-05 12:17:02 Terrasse 11.70 10.69 67.60
74784 2022-11-05 12:14:42 Bahnzimmer 19.10 18.60 58.90
74783 2022-11-05 11:48:49 Terrasse 12.00 11.00 66.70
74782 2022-11-05 11:44:41 Bahnzimmer 19.30 18.85 60.00
74781 2022-11-05 11:20:06 Terrasse 10.70 9.64 69.50
74780 2022-11-05 11:14:40 Bahnzimmer 19.50 19.07 59.80
74779 2022-11-05 10:51:48 Terrasse 10.20 9.15 71.60
74778 2022-11-05 10:44:40 Bahnzimmer 19.70 19.28 59.50
74777 2022-11-05 10:23:25 Terrasse 9.20 8.14 75.30
74776 2022-11-05 10:14:39 Bahnzimmer 19.60 19.17 59.70
74775 2022-11-05 09:55:25 Terrasse 8.20 7.07 76.20
74774 2022-11-05 09:44:38 Bahnzimmer 19.90 19.51 60.10
74773 2022-11-05 09:26:58 Terrasse 7.80 6.65 77.00
74772 2022-11-05 09:14:38 Bahnzimmer 19.90 19.49 59.20
74771 2022-11-05 08:58:42 Terrasse 7.50 6.36 78.70
74770 2022-11-05 08:44:37 Bahnzimmer 19.70 19.26 58.80
74769 2022-11-05 08:30:25 Terrasse 7.10 5.95 79.90
74768 2022-11-05 08:14:36 Bahnzimmer 19.40 18.94 59.00
74767 2022-11-05 08:02:08 Terrasse 7.00 5.86 80.50
74766 2022-11-05 07:44:35 Bahnzimmer 19.30 18.83 59.20
74765 2022-11-05 07:33:52 Terrasse 7.00 5.86 80.50
74764 2022-11-05 07:14:35 Bahnzimmer 19.10 18.61 59.20
74763 2022-11-05 07:05:37 Terrasse 7.00 5.87 81.10
74762 2022-11-05 06:44:34 Bahnzimmer 18.80 18.29 59.50
74761 2022-11-05 06:37:21 Terrasse 7.10 5.96 80.30
74760 2022-11-05 06:14:33 Bahnzimmer 18.60 18.07 59.60
74759 2022-11-05 06:09:08 Terrasse 7.30 6.17 79.70
74758 2022-11-05 05:44:33 Bahnzimmer 18.50 17.95 59.30
74757 2022-11-05 05:40:57 Terrasse 7.50 6.40 80.20
74756 2022-11-05 05:14:32 Bahnzimmer 18.50 17.96 59.60
74755 2022-11-05 05:12:44 Terrasse 7.60 6.51 80.20
74754 2022-11-05 04:44:32 Bahnzimmer 18.50 17.96 59.70
74753 2022-11-05 04:44:31 Terrasse 7.70 6.65 81.50
74752 2022-11-05 04:16:17 Terrasse 7.80 6.78 82.30
74751 2022-11-05 04:14:31 Bahnzimmer 18.50 17.97 59.80
74750 2022-11-05 03:48:02 Terrasse 7.80 6.76 81.50
74749 2022-11-05 03:44:30 Bahnzimmer 18.60 18.08 59.90
74748 2022-11-05 03:19:50 Terrasse 7.80 6.78 82.30
74747 2022-11-05 03:14:30 Bahnzimmer 18.60 18.08 60.10
74746 2022-11-05 02:51:36 Terrasse 7.80 6.79 82.60
74745 2022-11-05 02:44:29 Bahnzimmer 18.60 18.08 60.00
74744 2022-11-05 02:23:21 Terrasse 7.80 6.80 82.80
74743 2022-11-05 02:14:28 Bahnzimmer 18.70 18.19 60.10
74742 2022-11-05 01:55:07 Terrasse 7.80 6.81 83.10
74741 2022-11-05 01:44:27 Bahnzimmer 18.70 18.20 60.30
74740 2022-11-05 01:26:55 Terrasse 7.80 6.81 83.20
74739 2022-11-05 01:14:27 Bahnzimmer 18.80 18.31 60.30
74738 2022-11-05 00:58:48 Terrasse 7.60 6.57 82.40
74737 2022-11-05 00:44:26 Bahnzimmer 18.90 18.41 60.10
74736 2022-11-05 00:30:39 Terrasse 7.70 6.66 81.90
74735 2022-11-05 00:14:25 Bahnzimmer 19.00 18.53 60.30
74734 2022-11-05 00:02:24 Terrasse 7.90 6.86 81.00
74733 2022-11-04 23:44:25 Bahnzimmer 19.20 18.74 60.10
74732 2022-11-04 23:34:10 Terrasse 8.00 6.95 80.40
74731 2022-11-04 23:14:24 Bahnzimmer 19.40 18.96 60.00
74730 2022-11-04 23:05:56 Terrasse 8.10 7.06 80.30
74729 2022-11-04 22:44:23 Bahnzimmer 19.70 19.28 59.70
74728 2022-11-04 22:37:42 Terrasse 8.30 7.28 80.40
74727 2022-11-04 22:14:23 Bahnzimmer 20.30 19.95 59.90
74726 2022-11-04 22:09:26 Terrasse 8.30 7.29 80.60
74725 2022-11-04 21:44:22 Bahnzimmer 20.10 19.73 60.00
74724 2022-11-04 21:41:12 Terrasse 8.40 7.39 80.10
74723 2022-11-04 21:14:21 Bahnzimmer 20.00 19.63 60.20
74722 2022-11-04 21:12:56 Terrasse 8.40 7.41 81.10
74721 2022-11-04 20:44:41 Terrasse 8.50 7.54 81.70
74720 2022-11-04 20:44:21 Bahnzimmer 19.70 19.30 60.40
74719 2022-11-04 20:16:24 Terrasse 8.30 7.30 80.90
74718 2022-11-04 20:14:20 Bahnzimmer 19.40 18.99 60.90
74717 2022-11-04 19:48:10 Terrasse 8.40 7.38 79.70
74716 2022-11-04 19:44:20 Bahnzimmer 19.30 18.88 61.10
74715 2022-11-04 19:19:58 Terrasse 8.60 7.58 79.20
74714 2022-11-04 19:14:19 Bahnzimmer 19.40 18.99 60.90
74713 2022-11-04 18:51:43 Terrasse 9.00 8.06 80.70
74712 2022-11-04 18:44:18 Bahnzimmer 19.30 18.88 61.00
74711 2022-11-04 18:23:28 Terrasse 9.20 8.27 80.30
74710 2022-11-04 18:14:18 Bahnzimmer 19.30 18.88 60.90
74709 2022-11-04 17:55:13 Terrasse 9.40 8.49 80.10
74708 2022-11-04 17:44:17 Bahnzimmer 19.30 18.87 60.70
74707 2022-11-04 17:26:59 Terrasse 9.90 9.00 78.60
74706 2022-11-04 17:14:16 Bahnzimmer 19.40 18.98 60.70
74705 2022-11-04 16:58:45 Terrasse 10.20 9.24 75.40
74704 2022-11-04 16:44:16 Bahnzimmer 19.40 18.97 60.20
74703 2022-11-04 16:30:33 Terrasse 10.80 9.84 73.00
74702 2022-11-04 16:14:15 Bahnzimmer 19.30 18.82 58.90
74701 2022-11-04 16:02:24 Terrasse 11.60 10.60 68.50
74700 2022-11-04 15:44:14 Bahnzimmer 18.70 18.08 55.80
74699 2022-11-04 15:34:18 Terrasse 12.90 12.01 67.50
74698 2022-11-04 15:14:14 Bahnzimmer 19.60 19.23 61.80
74697 2022-11-04 15:05:49 Terrasse 11.30 10.36 71.70
74696 2022-11-04 14:44:13 Bahnzimmer 19.50 19.12 61.90
74695 2022-11-04 14:37:34 Terrasse 11.50 10.56 71.10
74694 2022-11-04 14:14:12 Bahnzimmer 19.40 18.99 61.00
74693 2022-11-04 14:09:14 Terrasse 11.10 10.13 71.50
74692 2022-11-04 13:44:07 Bahnzimmer 19.50 19.10 61.20
74691 2022-11-04 13:40:52 Terrasse 10.20 9.25 75.60
74690 2022-11-04 13:14:04 Bahnzimmer 19.50 19.10 61.00
74689 2022-11-04 13:12:34 Terrasse 9.90 8.98 78.10
74688 2022-11-04 12:44:19 Terrasse 10.10 9.21 78.30
74687 2022-11-04 12:44:03 Bahnzimmer 19.50 19.07 59.90
74686 2022-11-04 12:16:00 Terrasse 9.50 8.58 79.40
74685 2022-11-04 12:14:03 Bahnzimmer 19.90 19.56 61.90
74684 2022-11-04 11:47:44 Terrasse 9.40 8.46 79.10
74683 2022-11-04 11:44:02 Bahnzimmer 20.00 19.65 61.20
74682 2022-11-04 11:19:25 Terrasse 9.20 8.27 80.40
74681 2022-11-04 11:14:01 Bahnzimmer 20.00 19.66 61.30
74680 2022-11-04 10:51:05 Terrasse 8.50 7.53 81.50
74679 2022-11-04 10:44:01 Bahnzimmer 19.70 19.34 61.70
74678 2022-11-04 10:22:46 Terrasse 8.20 7.23 82.40
74677 2022-11-04 10:14:00 Bahnzimmer 19.60 19.22 61.30
74676 2022-11-04 09:54:29 Terrasse 8.00 7.00 82.10
74675 2022-11-04 09:44:00 Bahnzimmer 19.30 18.88 61.20
74674 2022-11-04 09:26:14 Terrasse 8.00 6.99 81.60
74673 2022-11-04 09:13:59 Bahnzimmer 19.10 18.66 61.10
74672 2022-11-04 08:57:56 Terrasse 7.80 6.78 82.20
74671 2022-11-04 08:43:58 Bahnzimmer 19.20 18.77 61.00
74670 2022-11-04 08:29:40 Terrasse 7.60 6.56 82.20
74669 2022-11-04 08:13:58 Bahnzimmer 19.40 18.97 60.30
74668 2022-11-04 08:01:23 Terrasse 7.50 6.45 82.10
74667 2022-11-04 07:43:57 Bahnzimmer 19.50 19.06 59.70
74666 2022-11-04 07:33:06 Terrasse 7.50 6.43 81.20
74665 2022-11-04 07:13:56 Bahnzimmer 19.20 18.67 57.10
74664 2022-11-04 07:04:53 Terrasse 7.50 6.42 81.10
74663 2022-11-04 06:36:37 Terrasse 7.60 6.53 80.90
74662 2022-11-04 06:13:50 Bahnzimmer 19.00 18.56 61.40
74661 2022-11-04 06:08:22 Terrasse 7.60 6.52 80.50
74660 2022-11-04 05:43:49 Bahnzimmer 18.90 18.45 61.60
74659 2022-11-04 05:40:08 Terrasse 8.00 6.94 79.90
74658 2022-11-04 05:13:49 Bahnzimmer 18.60 18.13 62.00
74657 2022-11-04 05:11:54 Terrasse 8.30 7.26 79.60
74656 2022-11-04 04:43:48 Bahnzimmer 18.40 17.91 62.00
74655 2022-11-04 04:43:39 Terrasse 8.40 7.41 80.80
74654 2022-11-04 04:15:25 Terrasse 8.60 7.66 82.20
74653 2022-11-04 04:13:47 Bahnzimmer 18.50 18.03 62.10
74652 2022-11-04 03:47:10 Terrasse 8.90 7.98 81.90
74651 2022-11-04 03:43:47 Bahnzimmer 18.50 18.02 62.00
74650 2022-11-04 03:18:54 Terrasse 9.00 8.12 82.80
74649 2022-11-04 03:13:46 Bahnzimmer 18.60 18.13 61.90
74648 2022-11-04 02:50:39 Terrasse 9.20 8.36 83.80
74647 2022-11-04 02:43:45 Bahnzimmer 18.70 18.24 61.80
74646 2022-11-04 02:22:22 Terrasse 9.20 8.36 83.70
74645 2022-11-04 02:13:45 Bahnzimmer 18.70 18.24 61.70
74644 2022-11-04 01:54:07 Terrasse 9.40 8.58 83.70
74643 2022-11-04 01:43:44 Bahnzimmer 18.80 18.34 61.60
74642 2022-11-04 01:25:51 Terrasse 9.40 8.58 83.60
74641 2022-11-04 01:13:44 Bahnzimmer 18.90 18.45 61.40
74640 2022-11-04 00:57:35 Terrasse 9.60 8.82 84.40
74639 2022-11-04 00:43:43 Bahnzimmer 19.00 18.56 61.30
74638 2022-11-04 00:29:19 Terrasse 9.50 8.70 84.10
74637 2022-11-04 00:13:42 Bahnzimmer 19.00 18.57 61.70
74636 2022-11-04 00:01:05 Terrasse 9.50 8.70 84.00
74635 2022-11-03 23:43:42 Bahnzimmer 19.20 18.78 61.40
74634 2022-11-03 23:32:50 Terrasse 9.50 8.71 84.30
74633 2022-11-03 23:13:41 Bahnzimmer 19.30 18.88 61.10
74632 2022-11-03 23:04:38 Terrasse 9.60 8.80 83.70
74631 2022-11-03 22:43:40 Bahnzimmer 19.30 18.88 61.00
74630 2022-11-03 22:36:23 Terrasse 9.60 8.79 83.10
74629 2022-11-03 22:13:39 Bahnzimmer 19.20 18.77 61.10
74628 2022-11-03 22:08:09 Terrasse 9.60 8.78 82.90
74627 2022-11-03 21:43:39 Bahnzimmer 19.30 18.87 60.80
74626 2022-11-03 21:39:55 Terrasse 9.60 8.77 82.40
74625 2022-11-03 21:13:38 Bahnzimmer 19.30 18.87 60.80
74624 2022-11-03 21:11:41 Terrasse 9.70 8.86 81.90
74623 2022-11-03 20:43:38 Bahnzimmer 19.20 18.76 60.70
74622 2022-11-03 20:43:27 Terrasse 9.70 8.83 80.70
74621 2022-11-03 20:15:14 Terrasse 9.80 8.95 81.00
74620 2022-11-03 20:13:37 Bahnzimmer 19.10 18.65 60.70
74619 2022-11-03 19:47:01 Terrasse 9.90 9.03 79.90
74618 2022-11-03 19:43:36 Bahnzimmer 19.20 18.75 60.40
74617 2022-11-03 19:18:46 Terrasse 9.90 9.04 80.10
74616 2022-11-03 19:13:35 Bahnzimmer 19.20 18.75 60.30
74615 2022-11-03 18:50:33 Terrasse 10.00 9.13 79.60
74614 2022-11-03 18:43:35 Bahnzimmer 18.70 18.17 59.30
74613 2022-11-03 18:22:19 Terrasse 10.00 9.14 79.70
74612 2022-11-03 18:13:34 Bahnzimmer 19.30 18.89 61.40
74611 2022-11-03 17:54:20 Terrasse 10.10 9.21 78.30
74610 2022-11-03 17:43:33 Bahnzimmer 19.30 18.88 61.20
74609 2022-11-03 17:26:02 Terrasse 10.20 9.25 75.80
74608 2022-11-03 17:13:33 Bahnzimmer 19.30 18.88 61.10
74607 2022-11-03 16:57:50 Terrasse 10.30 9.34 75.00
74606 2022-11-03 16:43:32 Bahnzimmer 19.30 18.87 60.70
74605 2022-11-03 16:29:37 Terrasse 10.50 9.51 72.90
74604 2022-11-03 16:13:31 Bahnzimmer 19.20 18.73 59.70
74603 2022-11-03 16:01:23 Terrasse 10.70 9.73 72.90
74602 2022-11-03 15:43:31 Bahnzimmer 19.50 19.13 62.10
74601 2022-11-03 15:33:10 Terrasse 10.70 9.71 72.30
74600 2022-11-03 15:13:30 Bahnzimmer 19.40 19.01 62.00
74599 2022-11-03 15:04:56 Terrasse 10.80 9.81 71.60
74598 2022-11-03 14:43:29 Bahnzimmer 19.30 18.91 62.10
74597 2022-11-03 14:36:42 Terrasse 11.00 10.02 71.50
74596 2022-11-03 14:13:29 Bahnzimmer 19.00 18.57 61.70
74595 2022-11-03 14:08:29 Terrasse 11.10 10.08 69.40
74594 2022-11-03 13:43:28 Bahnzimmer 19.10 18.67 61.60
74593 2022-11-03 13:40:18 Terrasse 11.50 10.50 68.90
74592 2022-11-03 13:13:27 Bahnzimmer 19.10 18.68 61.70
74591 2022-11-03 13:11:56 Terrasse 10.90 9.86 69.50
74590 2022-11-03 12:43:44 Terrasse 11.10 10.06 68.60
74589 2022-11-03 12:43:27 Bahnzimmer 19.10 18.67 61.60
74588 2022-11-03 12:13:26 Bahnzimmer 19.10 18.67 61.60
74587 2022-11-03 11:44:59 Terrasse 11.20 10.16 68.20
74586 2022-11-03 11:43:25 Bahnzimmer 19.40 19.00 61.40
74585 2022-11-03 11:16:44 Terrasse 10.90 9.86 69.40
74584 2022-11-03 11:13:25 Bahnzimmer 19.70 19.32 61.00
74583 2022-11-03 10:48:26 Terrasse 10.50 9.47 71.30
74582 2022-11-03 10:43:24 Bahnzimmer 19.70 19.31 60.60
74581 2022-11-03 10:20:08 Terrasse 10.00 8.97 73.50
74580 2022-11-03 10:13:23 Bahnzimmer 19.60 19.20 60.60
74579 2022-11-03 09:51:48 Terrasse 9.20 8.15 75.50
74578 2022-11-03 09:43:23 Bahnzimmer 19.60 19.19 60.20
74577 2022-11-03 09:23:33 Terrasse 8.50 7.41 76.80
74576 2022-11-03 09:13:22 Bahnzimmer 19.40 18.98 60.70
74575 2022-11-03 08:43:21 Bahnzimmer 19.70 19.29 60.10
74574 2022-11-03 08:22:56 Terrasse 7.20 6.01 78.10
74573 2022-11-03 08:13:20 Bahnzimmer 19.50 19.05 59.30
74572 2022-11-03 07:54:41 Terrasse 6.80 5.56 77.40
74571 2022-11-03 07:43:20 Bahnzimmer 19.40 18.92 58.30
74570 2022-11-03 07:26:24 Terrasse 6.80 5.55 77.10
74569 2022-11-03 07:13:19 Bahnzimmer 18.40 17.79 57.40
74568 2022-11-03 06:58:10 Terrasse 6.80 5.52 75.90
74567 2022-11-03 06:43:18 Bahnzimmer 19.30 18.89 61.30
74566 2022-11-03 06:29:55 Terrasse 6.80 5.51 75.70
74565 2022-11-03 06:13:18 Bahnzimmer 19.30 18.89 61.30
74564 2022-11-03 06:02:35 Terrasse 6.90 5.62 75.50
74563 2022-11-03 05:43:17 Bahnzimmer 19.10 18.67 61.50
74562 2022-11-03 05:33:42 Terrasse 7.00 5.73 75.70
74561 2022-11-03 05:13:17 Bahnzimmer 18.80 18.35 61.80
74560 2022-11-03 05:05:26 Terrasse 7.00 5.71 75.00
74559 2022-11-03 04:43:16 Bahnzimmer 18.60 18.14 62.20
74558 2022-11-03 04:37:10 Terrasse 7.00 5.71 74.80
74557 2022-11-03 04:13:15 Bahnzimmer 18.60 18.14 62.20
74556 2022-11-03 04:08:56 Terrasse 7.00 5.69 74.10
74555 2022-11-03 03:43:15 Bahnzimmer 18.50 18.03 62.40
74554 2022-11-03 03:40:41 Terrasse 7.20 5.91 74.10
74553 2022-11-03 03:13:14 Bahnzimmer 18.50 18.02 62.00
74552 2022-11-03 03:12:25 Terrasse 7.40 6.13 74.10
74551 2022-11-03 02:44:10 Terrasse 7.60 6.35 73.90
74550 2022-11-03 02:43:13 Bahnzimmer 18.60 18.13 62.00
74549 2022-11-03 02:15:56 Terrasse 7.80 6.57 74.00
74548 2022-11-03 02:13:13 Bahnzimmer 18.70 18.24 61.80
74547 2022-11-03 01:47:40 Terrasse 7.90 6.67 73.80
74546 2022-11-03 01:43:12 Bahnzimmer 18.80 18.35 61.80
74545 2022-11-03 01:19:26 Terrasse 8.10 6.88 73.30
74544 2022-11-03 01:13:11 Bahnzimmer 18.90 18.46 61.80
74543 2022-11-03 00:51:10 Terrasse 8.10 6.87 73.00
74542 2022-11-03 00:43:11 Bahnzimmer 19.00 18.56 61.30
74541 2022-11-03 00:22:54 Terrasse 8.00 6.76 72.90
74540 2022-11-03 00:13:10 Bahnzimmer 19.10 18.68 62.00
74539 2022-11-02 23:54:44 Terrasse 8.00 6.74 72.10
74538 2022-11-02 23:43:09 Bahnzimmer 19.30 18.90 61.70
74537 2022-11-02 23:26:31 Terrasse 8.10 6.84 71.70
74536 2022-11-02 23:13:09 Bahnzimmer 19.50 19.10 61.20
74535 2022-11-02 22:58:18 Terrasse 8.00 6.71 70.90
74534 2022-11-02 22:43:08 Bahnzimmer 19.40 18.99 61.20
74533 2022-11-02 22:30:06 Terrasse 7.80 6.47 70.20
74532 2022-11-02 22:13:07 Bahnzimmer 19.40 19.00 61.30
74531 2022-11-02 22:01:54 Terrasse 7.90 6.56 69.60
74530 2022-11-02 21:43:07 Bahnzimmer 19.30 18.89 61.40
74529 2022-11-02 21:33:43 Terrasse 8.10 6.77 69.20
74528 2022-11-02 21:13:06 Bahnzimmer 19.20 18.78 61.30
74527 2022-11-02 21:05:30 Terrasse 8.30 6.97 68.30
74526 2022-11-02 20:43:05 Bahnzimmer 19.20 18.78 61.40
74525 2022-11-02 20:37:17 Terrasse 8.60 7.28 67.60
74524 2022-11-02 20:13:05 Bahnzimmer 19.00 18.56 61.40
74523 2022-11-02 20:09:06 Terrasse 8.80 7.50 67.50
74522 2022-11-02 19:43:04 Bahnzimmer 18.90 18.45 61.50
74521 2022-11-02 19:40:55 Terrasse 9.00 7.70 66.80
74520 2022-11-02 19:13:03 Bahnzimmer 18.80 18.34 61.40
74519 2022-11-02 19:12:45 Terrasse 9.40 8.12 66.20
74518 2022-11-02 18:44:34 Terrasse 10.00 8.76 65.30
74517 2022-11-02 18:43:03 Bahnzimmer 18.70 18.23 61.30
74516 2022-11-02 18:16:25 Terrasse 10.40 9.18 64.50
74515 2022-11-02 18:13:02 Bahnzimmer 18.70 18.24 61.90
74514 2022-11-02 17:48:15 Terrasse 11.00 9.81 63.40
74513 2022-11-02 17:43:01 Bahnzimmer 18.70 18.22 61.10
74512 2022-11-02 17:20:07 Terrasse 11.90 10.75 61.30
74511 2022-11-02 17:13:01 Bahnzimmer 18.70 18.22 61.00
74510 2022-11-02 16:51:59 Terrasse 12.90 11.72 56.40
74509 2022-11-02 16:43:00 Bahnzimmer 18.60 18.10 60.50
74508 2022-11-02 16:23:50 Terrasse 14.00 12.87 54.00
74507 2022-11-02 16:12:59 Bahnzimmer 18.30 17.67 57.00
74506 2022-11-02 15:55:52 Terrasse 16.00 14.96 50.00
74505 2022-11-02 15:42:59 Bahnzimmer 18.80 18.41 64.20
74504 2022-11-02 15:27:34 Terrasse 16.00 14.97 50.40
74503 2022-11-02 15:12:58 Bahnzimmer 18.70 18.30 64.00
74502 2022-11-02 14:59:11 Terrasse 15.70 14.64 50.20
74501 2022-11-02 14:42:57 Bahnzimmer 18.70 18.29 63.70
74500 2022-11-02 14:30:42 Terrasse 14.20 13.08 53.90
74499 2022-11-02 14:12:57 Bahnzimmer 18.70 18.27 62.90
74498 2022-11-02 14:02:34 Terrasse 15.00 13.98 54.40
74497 2022-11-02 13:42:56 Bahnzimmer 18.80 18.38 63.10
74496 2022-11-02 13:34:20 Terrasse 14.60 13.51 53.60
74495 2022-11-02 13:12:55 Bahnzimmer 18.90 18.48 62.50
74494 2022-11-02 13:06:03 Terrasse 14.90 13.91 55.90
74493 2022-11-02 12:42:55 Bahnzimmer 18.90 18.46 61.90
74492 2022-11-02 12:37:39 Terrasse 13.80 12.72 56.80
74491 2022-11-02 12:12:54 Bahnzimmer 18.90 18.46 61.70
74490 2022-11-02 12:09:24 Terrasse 13.90 12.85 57.60
74489 2022-11-02 11:42:54 Bahnzimmer 18.70 18.17 59.30
74488 2022-11-02 11:41:07 Terrasse 13.70 12.77 62.90
74487 2022-11-02 11:12:53 Bahnzimmer 19.10 18.75 64.70
74486 2022-11-02 11:12:47 Terrasse 13.00 12.04 64.40
74485 2022-11-02 10:44:26 Terrasse 12.10 11.15 68.30
74484 2022-11-02 10:42:52 Bahnzimmer 19.20 18.86 64.60
74483 2022-11-02 10:16:04 Terrasse 11.30 10.36 71.70
74482 2022-11-02 10:12:52 Bahnzimmer 19.30 18.97 64.40
74481 2022-11-02 09:47:43 Terrasse 10.30 9.33 74.60
74480 2022-11-02 09:42:51 Bahnzimmer 19.30 18.98 64.90
74479 2022-11-02 09:19:24 Terrasse 9.40 8.39 76.30
74478 2022-11-02 09:12:50 Bahnzimmer 19.10 18.73 63.80
74477 2022-11-02 08:51:06 Terrasse 8.60 7.53 77.20
74476 2022-11-02 08:42:50 Bahnzimmer 19.40 19.05 63.30
74475 2022-11-02 08:22:50 Terrasse 8.30 7.21 77.40
74474 2022-11-02 08:12:49 Bahnzimmer 19.40 19.08 64.60
74473 2022-11-02 07:54:35 Terrasse 8.10 6.99 77.70
74472 2022-11-02 07:42:48 Bahnzimmer 19.40 19.07 64.30
74471 2022-11-02 07:26:22 Terrasse 7.80 6.64 76.70
74470 2022-11-02 07:12:48 Bahnzimmer 19.20 18.85 64.20
74469 2022-11-02 06:58:21 Terrasse 8.00 6.82 75.10
74468 2022-11-02 06:42:47 Bahnzimmer 18.90 18.53 64.40
74467 2022-11-02 06:30:26 Terrasse 8.20 7.01 74.10
74466 2022-11-02 06:12:46 Bahnzimmer 18.80 18.42 64.40
74465 2022-11-02 06:02:07 Terrasse 8.50 7.35 74.30
74464 2022-11-02 05:42:46 Bahnzimmer 18.70 18.31 64.60
74463 2022-11-02 05:33:54 Terrasse 8.70 7.57 74.30
74462 2022-11-02 05:12:45 Bahnzimmer 18.30 17.89 65.20
74461 2022-11-02 05:05:37 Terrasse 8.60 7.46 74.50
74460 2022-11-02 04:42:44 Bahnzimmer 18.20 17.77 64.80
74459 2022-11-02 04:37:21 Terrasse 8.70 7.57 74.40
74458 2022-11-02 04:12:44 Bahnzimmer 18.20 17.77 64.80
74457 2022-11-02 04:09:04 Terrasse 8.60 7.46 74.30
74456 2022-11-02 03:42:43 Bahnzimmer 18.30 17.87 64.70
74455 2022-11-02 03:40:46 Terrasse 8.50 7.32 73.30
74454 2022-11-02 03:12:42 Bahnzimmer 18.30 17.88 64.80
74453 2022-11-02 03:12:33 Terrasse 8.60 7.44 73.60
74452 2022-11-02 02:44:17 Terrasse 8.50 7.31 72.80
74451 2022-11-02 02:42:42 Bahnzimmer 18.40 17.99 64.80
74450 2022-11-02 02:16:01 Terrasse 8.60 7.41 72.40
74449 2022-11-02 02:12:41 Bahnzimmer 18.40 17.99 65.00
74448 2022-11-02 01:47:45 Terrasse 8.60 7.40 72.10
74447 2022-11-02 01:42:40 Bahnzimmer 18.50 18.10 64.80
74446 2022-11-02 01:19:28 Terrasse 8.60 7.40 72.20
74445 2022-11-02 01:12:40 Bahnzimmer 18.60 18.20 64.70
74444 2022-11-02 00:51:12 Terrasse 8.60 7.39 71.70
74443 2022-11-02 00:42:39 Bahnzimmer 18.70 18.31 64.60
74442 2022-11-02 00:22:58 Terrasse 9.00 7.81 71.20
74441 2022-11-02 00:12:38 Bahnzimmer 18.80 18.42 64.60
74440 2022-11-01 23:54:44 Terrasse 9.20 8.02 70.50
74439 2022-11-01 23:42:38 Bahnzimmer 18.90 18.54 64.80
74438 2022-11-01 23:26:29 Terrasse 9.50 8.32 69.50
74437 2022-11-01 23:12:37 Bahnzimmer 19.00 18.64 64.60
74436 2022-11-01 22:58:13 Terrasse 9.60 8.42 69.30
74435 2022-11-01 22:42:37 Bahnzimmer 18.90 18.54 64.90
74434 2022-11-01 22:29:57 Terrasse 9.40 8.23 70.20
74433 2022-11-01 22:12:36 Bahnzimmer 18.90 18.53 64.70
74432 2022-11-01 22:01:40 Terrasse 9.00 7.77 69.40
74431 2022-11-01 21:42:35 Bahnzimmer 18.80 18.43 64.90
74430 2022-11-01 21:33:25 Terrasse 9.20 7.95 68.00
74429 2022-11-01 21:12:35 Bahnzimmer 18.80 18.44 65.10
74428 2022-11-01 21:05:23 Terrasse 9.50 8.26 67.20
74427 2022-11-01 20:42:34 Bahnzimmer 18.80 18.43 65.00
74426 2022-11-01 20:37:04 Terrasse 9.90 8.68 66.40
74425 2022-11-01 20:12:33 Bahnzimmer 18.80 18.44 65.10
74424 2022-11-01 20:08:49 Terrasse 10.30 9.07 64.60
74423 2022-11-01 19:42:33 Bahnzimmer 18.80 18.44 65.30
74422 2022-11-01 19:40:36 Terrasse 10.70 9.48 63.40
74421 2022-11-01 19:12:32 Bahnzimmer 18.80 18.44 65.30
74420 2022-11-01 19:12:22 Terrasse 11.00 9.78 62.20
74419 2022-11-01 18:44:09 Terrasse 11.50 10.30 60.90
74418 2022-11-01 18:42:31 Bahnzimmer 18.80 18.42 64.50
74417 2022-11-01 18:15:56 Terrasse 12.00 10.81 59.70
74416 2022-11-01 18:12:31 Bahnzimmer 18.40 17.99 64.90
74415 2022-11-01 17:47:44 Terrasse 12.90 11.78 58.70
74414 2022-11-01 17:12:25 Bahnzimmer 18.30 17.87 64.60
74413 2022-11-01 16:42:24 Bahnzimmer 18.30 17.89 65.10
74412 2022-11-01 16:21:34 Terrasse 16.80 15.80 48.30
74411 2022-11-01 16:12:23 Bahnzimmer 18.30 17.87 64.40
74410 2022-11-01 15:53:47 Terrasse 20.60 19.90 45.20
74409 2022-11-01 15:42:23 Bahnzimmer 18.40 17.97 64.20
74408 2022-11-01 15:25:10 Terrasse 20.60 19.91 45.70
74407 2022-11-01 15:12:22 Bahnzimmer 18.40 17.95 63.50
74406 2022-11-01 14:56:41 Terrasse 18.80 18.00 48.40
74405 2022-11-01 14:42:21 Bahnzimmer 18.50 18.00 61.00
74404 2022-11-01 14:28:46 Terrasse 18.20 17.40 50.60
74403 2022-11-01 14:12:21 Bahnzimmer 18.50 18.03 62.20
74402 2022-11-01 14:00:19 Terrasse 17.60 16.76 51.40
74401 2022-11-01 13:42:20 Bahnzimmer 18.60 18.26 67.00
74400 2022-11-01 13:31:59 Terrasse 17.20 16.36 53.20
74399 2022-11-01 13:12:19 Bahnzimmer 18.50 18.17 67.50
74398 2022-11-01 13:04:17 Terrasse 17.40 16.61 54.10
74397 2022-11-01 12:42:19 Bahnzimmer 18.60 18.28 67.70
74396 2022-11-01 12:12:18 Bahnzimmer 18.60 18.28 67.70
74395 2022-11-01 12:03:53 Terrasse 16.10 15.45 64.40
74394 2022-11-01 11:42:17 Bahnzimmer 18.80 18.50 67.40
74393 2022-11-01 11:35:57 Terrasse 15.60 15.10 72.10
74392 2022-11-01 11:12:17 Bahnzimmer 18.50 18.17 67.70
74391 2022-11-01 10:42:16 Bahnzimmer 18.50 18.17 67.70
74390 2022-11-01 10:37:00 Terrasse 13.50 13.10 83.90
74389 2022-11-01 10:12:15 Bahnzimmer 18.50 18.17 67.60
74388 2022-11-01 10:08:53 Terrasse 13.00 12.57 84.70
74387 2022-11-01 09:42:15 Bahnzimmer 18.60 18.28 67.70
74386 2022-11-01 09:41:27 Terrasse 12.90 12.46 84.90
74385 2022-11-01 09:12:35 Terrasse 12.80 12.35 85.00
74384 2022-11-01 09:12:14 Bahnzimmer 18.60 18.28 67.50
74383 2022-11-01 08:44:18 Terrasse 12.50 12.02 85.00
74382 2022-11-01 08:42:13 Bahnzimmer 18.70 18.38 67.30
74381 2022-11-01 08:16:00 Terrasse 12.50 12.02 84.90
74380 2022-11-01 08:12:13 Bahnzimmer 18.80 18.49 67.10
74379 2022-11-01 07:47:44 Terrasse 12.30 11.79 84.50
74378 2022-11-01 07:42:12 Bahnzimmer 18.90 18.60 67.10
74377 2022-11-01 07:19:28 Terrasse 12.30 11.78 83.90
74376 2022-11-01 07:12:11 Bahnzimmer 18.80 18.49 67.10
74375 2022-11-01 06:51:13 Terrasse 12.40 11.87 83.30
74374 2022-11-01 06:22:57 Terrasse 12.50 11.98 83.20
74373 2022-11-01 06:12:05 Bahnzimmer 18.70 18.38 67.20
74372 2022-11-01 05:54:54 Terrasse 12.50 11.96 82.50
74371 2022-11-01 05:42:05 Bahnzimmer 18.70 18.38 67.20
74370 2022-11-01 05:27:18 Terrasse 12.50 11.94 81.80
74369 2022-11-01 05:12:04 Bahnzimmer 18.40 18.06 67.60
74368 2022-11-01 04:59:53 Terrasse 12.50 11.94 81.60
74367 2022-11-01 04:42:03 Bahnzimmer 18.40 18.06 67.70
74366 2022-11-01 04:30:36 Terrasse 12.50 11.92 80.90
74365 2022-11-01 04:12:03 Bahnzimmer 18.40 18.06 67.70
74364 2022-11-01 04:02:38 Terrasse 12.50 11.90 80.40
74363 2022-11-01 03:42:02 Bahnzimmer 18.50 18.17 67.70
74362 2022-11-01 03:35:15 Terrasse 12.80 12.23 80.30
74361 2022-11-01 03:12:01 Bahnzimmer 18.50 18.17 67.70
74360 2022-11-01 03:06:34 Terrasse 12.70 12.12 80.20
74359 2022-11-01 02:42:01 Bahnzimmer 18.50 18.17 67.70
74358 2022-11-01 02:38:28 Terrasse 12.80 12.24 80.50
74357 2022-11-01 02:12:00 Bahnzimmer 18.60 18.28 67.60
74356 2022-11-01 01:42:42 Terrasse 12.70 12.09 79.20
74355 2022-11-01 01:41:59 Bahnzimmer 18.60 18.28 67.60
74354 2022-11-01 01:14:50 Terrasse 12.70 12.09 78.90
74353 2022-11-01 01:11:59 Bahnzimmer 18.70 18.39 67.60
74352 2022-11-01 00:46:40 Terrasse 12.60 11.95 78.10
74351 2022-11-01 00:41:58 Bahnzimmer 18.70 18.39 67.50
74350 2022-11-01 00:18:38 Terrasse 12.50 11.81 76.60
74349 2022-11-01 00:11:57 Bahnzimmer 18.70 18.40 67.90
74348 2022-10-31 23:50:17 Terrasse 12.50 11.80 76.50
74347 2022-10-31 23:41:57 Bahnzimmer 18.80 18.50 67.70
74346 2022-10-31 23:22:02 Terrasse 12.80 12.11 75.70
74345 2022-10-31 23:11:56 Bahnzimmer 18.90 18.61 67.50
74344 2022-10-31 22:53:46 Terrasse 13.00 12.32 75.20
74343 2022-10-31 22:41:55 Bahnzimmer 18.90 18.61 67.50
74342 2022-10-31 22:25:32 Terrasse 13.20 12.54 75.10
74341 2022-10-31 22:11:55 Bahnzimmer 18.80 18.51 67.80
74340 2022-10-31 21:57:17 Terrasse 13.30 12.65 75.30
74339 2022-10-31 21:41:54 Bahnzimmer 18.80 18.50 67.70
74338 2022-10-31 21:29:01 Terrasse 13.40 12.76 75.10
74337 2022-10-31 21:11:53 Bahnzimmer 18.70 18.40 68.00
74336 2022-10-31 21:00:47 Terrasse 13.60 12.96 74.50
74335 2022-10-31 20:41:53 Bahnzimmer 18.80 18.51 67.90
74334 2022-10-31 20:32:33 Terrasse 14.10 13.48 73.20
74333 2022-10-31 20:11:52 Bahnzimmer 18.70 18.40 68.10
74332 2022-10-31 20:04:19 Terrasse 14.60 14.01 72.70
74331 2022-10-31 19:41:52 Bahnzimmer 18.90 18.61 67.70
74330 2022-10-31 19:36:05 Terrasse 14.90 14.33 72.30
74329 2022-10-31 19:11:51 Bahnzimmer 19.00 18.72 67.60
74328 2022-10-31 19:07:51 Terrasse 15.10 14.52 71.10
74327 2022-10-31 18:41:50 Bahnzimmer 19.00 18.72 67.70
74326 2022-10-31 18:39:36 Terrasse 15.60 15.03 69.60
74325 2022-10-31 18:11:50 Bahnzimmer 18.70 18.39 67.70
74324 2022-10-31 18:11:21 Terrasse 15.70 15.09 67.50
74323 2022-10-31 17:43:07 Terrasse 16.00 15.38 66.00
74322 2022-10-31 17:41:49 Bahnzimmer 18.80 18.52 68.30
74321 2022-10-31 17:15:49 Terrasse 16.10 15.48 65.80
74320 2022-10-31 17:11:48 Bahnzimmer 18.80 18.53 68.60
74319 2022-10-31 16:46:58 Terrasse 16.70 16.15 66.20
74318 2022-10-31 16:41:48 Bahnzimmer 18.80 18.51 68.10
74317 2022-10-31 16:18:51 Terrasse 18.00 17.51 63.40
74316 2022-10-31 16:11:47 Bahnzimmer 18.90 18.63 68.40
74315 2022-10-31 15:50:53 Terrasse 19.40 18.98 60.50
74314 2022-10-31 15:41:46 Bahnzimmer 18.90 18.62 68.10
74313 2022-10-31 15:22:28 Terrasse 17.80 17.31 64.00
74312 2022-10-31 15:11:46 Bahnzimmer 18.80 18.50 67.50
74311 2022-10-31 14:54:18 Terrasse 18.40 17.90 61.50
74310 2022-10-31 14:41:45 Bahnzimmer 18.80 18.47 66.40
74309 2022-10-31 14:26:07 Terrasse 19.20 18.75 60.30
74308 2022-10-31 14:11:44 Bahnzimmer 18.90 18.55 65.20
74307 2022-10-31 13:57:48 Terrasse 19.00 18.58 62.10
74306 2022-10-31 13:41:44 Bahnzimmer 18.70 18.38 67.20
74305 2022-10-31 13:29:28 Terrasse 18.20 17.68 61.60
74304 2022-10-31 13:11:43 Bahnzimmer 18.80 18.47 66.50
74303 2022-10-31 13:01:12 Terrasse 18.00 17.53 64.00
74302 2022-10-31 12:41:42 Bahnzimmer 19.00 18.74 68.30
74301 2022-10-31 12:32:54 Terrasse 17.70 17.24 65.60
74300 2022-10-31 12:11:42 Bahnzimmer 19.00 18.73 68.00
74299 2022-10-31 12:04:33 Terrasse 17.10 16.65 68.40
74298 2022-10-31 11:41:37 Bahnzimmer 19.00 18.73 68.00
74297 2022-10-31 11:36:16 Terrasse 16.80 16.33 68.70
74296 2022-10-31 11:11:37 Bahnzimmer 19.10 18.83 67.60
74295 2022-10-31 11:07:56 Terrasse 16.10 15.61 70.50
74294 2022-10-31 10:41:36 Bahnzimmer 19.20 18.94 67.40
74293 2022-10-31 10:39:36 Terrasse 15.50 14.99 72.20
74292 2022-10-31 10:11:15 Terrasse 14.70 14.12 72.70
74291 2022-10-31 09:42:54 Terrasse 13.60 13.02 76.80
74290 2022-10-31 09:41:30 Bahnzimmer 19.20 18.92 66.90
74289 2022-10-31 09:14:35 Terrasse 12.80 12.15 77.00
74288 2022-10-31 09:11:29 Bahnzimmer 19.10 18.81 66.70
74287 2022-10-31 08:46:14 Terrasse 12.10 11.41 78.40
74286 2022-10-31 08:41:29 Bahnzimmer 19.10 18.81 66.70
74285 2022-10-31 08:17:58 Terrasse 11.60 10.85 78.10
74284 2022-10-31 08:11:28 Bahnzimmer 19.20 18.91 66.30
74283 2022-10-31 07:49:41 Terrasse 11.20 10.42 78.20
74282 2022-10-31 07:41:27 Bahnzimmer 19.10 18.81 67.00
74281 2022-10-31 07:21:26 Terrasse 11.10 10.28 77.20
74280 2022-10-31 07:11:27 Bahnzimmer 18.90 18.58 66.60
74279 2022-10-31 06:53:13 Terrasse 11.20 10.38 76.70
74278 2022-10-31 06:41:26 Bahnzimmer 18.70 18.36 66.60
74277 2022-10-31 06:25:00 Terrasse 11.30 10.48 76.50
74276 2022-10-31 06:11:25 Bahnzimmer 18.60 18.26 66.70
74275 2022-10-31 05:56:46 Terrasse 11.30 10.49 76.70
74274 2022-10-31 05:41:25 Bahnzimmer 18.50 18.15 66.80
74273 2022-10-31 05:28:34 Terrasse 11.50 10.68 75.80
74272 2022-10-31 05:11:24 Bahnzimmer 18.30 17.94 67.10
74271 2022-10-31 05:00:18 Terrasse 11.60 10.77 74.90
74270 2022-10-31 04:41:23 Bahnzimmer 18.30 17.93 67.00
74269 2022-10-31 04:32:05 Terrasse 11.80 10.98 74.30
74268 2022-10-31 04:11:23 Bahnzimmer 18.30 17.94 67.10
74267 2022-10-31 04:03:53 Terrasse 11.90 11.06 73.20
74266 2022-10-31 03:41:22 Bahnzimmer 18.30 17.93 67.00
74265 2022-10-31 03:35:39 Terrasse 11.90 11.05 73.10
74264 2022-10-31 03:11:21 Bahnzimmer 18.30 17.94 67.10
74263 2022-10-31 03:07:27 Terrasse 12.10 11.28 73.40
74262 2022-10-31 02:41:21 Bahnzimmer 18.30 17.94 67.20
74261 2022-10-31 02:39:14 Terrasse 12.20 11.38 73.00
74260 2022-10-31 02:11:20 Bahnzimmer 18.40 18.05 67.20
74259 2022-10-31 02:11:00 Terrasse 12.30 11.48 72.50
74258 2022-10-31 01:42:44 Terrasse 12.20 11.36 72.30
74257 2022-10-31 01:41:20 Bahnzimmer 18.40 18.05 67.20
74256 2022-10-31 01:14:31 Terrasse 12.30 11.47 72.10
74255 2022-10-31 01:11:19 Bahnzimmer 18.50 18.16 67.10
74254 2022-10-31 00:46:18 Terrasse 12.40 11.57 71.80
74253 2022-10-31 00:41:18 Bahnzimmer 18.60 18.27 67.10
74252 2022-10-31 00:18:06 Terrasse 12.50 11.67 71.60
74251 2022-10-31 00:11:18 Bahnzimmer 18.60 18.27 67.20
74250 2022-10-30 23:49:52 Terrasse 12.50 11.67 71.40
74249 2022-10-30 23:41:17 Bahnzimmer 18.70 18.38 67.10
74248 2022-10-30 23:21:38 Terrasse 12.80 11.99 70.90
74247 2022-10-30 23:11:16 Bahnzimmer 18.70 18.38 67.10
74246 2022-10-30 22:53:23 Terrasse 12.90 12.10 70.90
74245 2022-10-30 22:41:16 Bahnzimmer 18.60 18.27 67.20
74244 2022-10-30 22:25:09 Terrasse 13.00 12.21 70.90
74243 2022-10-30 22:11:15 Bahnzimmer 18.60 18.27 67.20
74242 2022-10-30 21:56:57 Terrasse 13.30 12.53 70.50
74241 2022-10-30 21:41:13 Bahnzimmer 18.40 18.06 67.60
74240 2022-10-30 21:28:43</